<?xml version="1.0" encoding="UTF-8" standalone="no" ?>
<gpx xmlns="http://www.topografix.com/GPX/1/1" xmlns:xsi="http://www.w3.org/2001/XMLSchema-instance" xsi:schemaLocation="http://www.topografix.com/GPX/1/1 http://www.topografix.com/GPX/1/1/gpx.xsd" version="1.1" creator="VisuGPX - https://www.visugpx.com">
  <metadata>
    <name>GERBEROY</name>
    <desc><![CDATA[Gerberoy]]></desc>
  </metadata>
  <trk>
    <name><![CDATA[GERBEROY_1]]></name>
    <trkseg>
      <trkpt lat="49.53438" lon="1.84962">
        <ele>193.2</ele>
        <time>2014-06-08T10:07:42.21</time>
      </trkpt>
      <trkpt lat="49.53438" lon="1.84962">
        <ele>193.2</ele>
        <time>2014-06-08T10:07:42.26</time>
      </trkpt>
      <trkpt lat="49.53442" lon="1.84953">
        <ele>193.4</ele>
        <time>2014-06-08T10:07:48.21</time>
      </trkpt>
      <trkpt lat="49.53445" lon="1.84949">
        <ele>190.2</ele>
        <time>2014-06-08T10:07:55.22</time>
      </trkpt>
      <trkpt lat="49.53445" lon="1.84944">
        <ele>190.1</ele>
        <time>2014-06-08T10:08:02.19</time>
      </trkpt>
      <trkpt lat="49.53446" lon="1.84933">
        <ele>192.1</ele>
        <time>2014-06-08T10:08:09.21</time>
      </trkpt>
      <trkpt lat="49.5345" lon="1.84926">
        <ele>188.3</ele>
        <time>2014-06-08T10:08:16.22</time>
      </trkpt>
      <trkpt lat="49.53452" lon="1.84917">
        <ele>186.4</ele>
        <time>2014-06-08T10:08:23.19</time>
      </trkpt>
      <trkpt lat="49.53454" lon="1.84911">
        <ele>189.5</ele>
        <time>2014-06-08T10:08:30.19</time>
      </trkpt>
      <trkpt lat="49.53453" lon="1.84908">
        <ele>191.3</ele>
        <time>2014-06-08T10:08:37.20</time>
      </trkpt>
      <trkpt lat="49.53457" lon="1.84898">
        <ele>191.4</ele>
        <time>2014-06-08T10:08:43.19</time>
      </trkpt>
      <trkpt lat="49.5346" lon="1.84888">
        <ele>191.6</ele>
        <time>2014-06-08T10:08:50.19</time>
      </trkpt>
      <trkpt lat="49.53461" lon="1.84879">
        <ele>192.3</ele>
        <time>2014-06-08T10:08:57.19</time>
      </trkpt>
      <trkpt lat="49.53463" lon="1.84868">
        <ele>192.9</ele>
        <time>2014-06-08T10:09:03.19</time>
      </trkpt>
      <trkpt lat="49.53464" lon="1.84857">
        <ele>192.7</ele>
        <time>2014-06-08T10:09:10.19</time>
      </trkpt>
      <trkpt lat="49.53464" lon="1.84847">
        <ele>192.9</ele>
        <time>2014-06-08T10:09:17.19</time>
      </trkpt>
      <trkpt lat="49.53462" lon="1.8484">
        <ele>193.2</ele>
        <time>2014-06-08T10:09:24.19</time>
      </trkpt>
      <trkpt lat="49.5346" lon="1.84828">
        <ele>193.4</ele>
        <time>2014-06-08T10:09:31.20</time>
      </trkpt>
      <trkpt lat="49.53455" lon="1.84826">
        <ele>193.4</ele>
        <time>2014-06-08T10:09:38.20</time>
      </trkpt>
      <trkpt lat="49.53455" lon="1.84813">
        <ele>192.6</ele>
        <time>2014-06-08T10:09:44.19</time>
      </trkpt>
      <trkpt lat="49.5345" lon="1.84804">
        <ele>192.4</ele>
        <time>2014-06-08T10:09:49.19</time>
      </trkpt>
      <trkpt lat="49.53446" lon="1.84794">
        <ele>191.8</ele>
        <time>2014-06-08T10:09:55.18</time>
      </trkpt>
      <trkpt lat="49.53441" lon="1.84785">
        <ele>191</ele>
        <time>2014-06-08T10:10:01.18</time>
      </trkpt>
      <trkpt lat="49.53436" lon="1.84775">
        <ele>190.3</ele>
        <time>2014-06-08T10:10:08.18</time>
      </trkpt>
      <trkpt lat="49.53427" lon="1.84773">
        <ele>190</ele>
        <time>2014-06-08T10:10:14.18</time>
      </trkpt>
      <trkpt lat="49.53419" lon="1.84771">
        <ele>190.2</ele>
        <time>2014-06-08T10:10:20.18</time>
      </trkpt>
      <trkpt lat="49.53412" lon="1.84773">
        <ele>190.2</ele>
        <time>2014-06-08T10:10:25.18</time>
      </trkpt>
      <trkpt lat="49.53406" lon="1.84766">
        <ele>186.8</ele>
        <time>2014-06-08T10:10:32.19</time>
      </trkpt>
      <trkpt lat="49.53399" lon="1.8477">
        <ele>186.1</ele>
        <time>2014-06-08T10:10:39.19</time>
      </trkpt>
      <trkpt lat="49.53393" lon="1.84777">
        <ele>185.1</ele>
        <time>2014-06-08T10:10:46.19</time>
      </trkpt>
      <trkpt lat="49.53384" lon="1.84782">
        <ele>184</ele>
        <time>2014-06-08T10:10:53.19</time>
      </trkpt>
      <trkpt lat="49.53376" lon="1.84783">
        <ele>182.9</ele>
        <time>2014-06-08T10:10:59.19</time>
      </trkpt>
      <trkpt lat="49.53369" lon="1.84783">
        <ele>182.4</ele>
        <time>2014-06-08T10:11:06.19</time>
      </trkpt>
      <trkpt lat="49.53363" lon="1.8478">
        <ele>182.1</ele>
        <time>2014-06-08T10:11:13.19</time>
      </trkpt>
      <trkpt lat="49.53356" lon="1.84782">
        <ele>181.3</ele>
        <time>2014-06-08T10:11:20.19</time>
      </trkpt>
      <trkpt lat="49.53348" lon="1.84783">
        <ele>180.8</ele>
        <time>2014-06-08T10:11:25.19</time>
      </trkpt>
      <trkpt lat="49.53342" lon="1.84785">
        <ele>180.2</ele>
        <time>2014-06-08T10:11:32.19</time>
      </trkpt>
      <trkpt lat="49.53334" lon="1.84788">
        <ele>179.5</ele>
        <time>2014-06-08T10:11:38.21</time>
      </trkpt>
      <trkpt lat="49.53327" lon="1.84786">
        <ele>179</ele>
        <time>2014-06-08T10:11:43.19</time>
      </trkpt>
      <trkpt lat="49.53319" lon="1.84781">
        <ele>178.6</ele>
        <time>2014-06-08T10:11:48.19</time>
      </trkpt>
      <trkpt lat="49.53312" lon="1.84785">
        <ele>178.2</ele>
        <time>2014-06-08T10:11:54.19</time>
      </trkpt>
      <trkpt lat="49.53305" lon="1.84792">
        <ele>177.7</ele>
        <time>2014-06-08T10:12:00.19</time>
      </trkpt>
      <trkpt lat="49.53298" lon="1.84798">
        <ele>177.5</ele>
        <time>2014-06-08T10:12:07.19</time>
      </trkpt>
      <trkpt lat="49.53291" lon="1.84803">
        <ele>177.2</ele>
        <time>2014-06-08T10:12:12.19</time>
      </trkpt>
      <trkpt lat="49.53283" lon="1.84807">
        <ele>177</ele>
        <time>2014-06-08T10:12:18.19</time>
      </trkpt>
      <trkpt lat="49.53275" lon="1.84811">
        <ele>176.8</ele>
        <time>2014-06-08T10:12:24.19</time>
      </trkpt>
      <trkpt lat="49.53269" lon="1.8481">
        <ele>176.6</ele>
        <time>2014-06-08T10:12:31.20</time>
      </trkpt>
      <trkpt lat="49.53263" lon="1.84814">
        <ele>176.2</ele>
        <time>2014-06-08T10:12:38.19</time>
      </trkpt>
      <trkpt lat="49.5326" lon="1.8481">
        <ele>176.1</ele>
        <time>2014-06-08T10:12:45.19</time>
      </trkpt>
      <trkpt lat="49.53261" lon="1.84812">
        <ele>175.5</ele>
        <time>2014-06-08T10:12:52.23</time>
      </trkpt>
      <trkpt lat="49.53257" lon="1.84816">
        <ele>174.4</ele>
        <time>2014-06-08T10:12:53.21</time>
      </trkpt>
      <trkpt lat="49.5325" lon="1.84822">
        <ele>174.2</ele>
        <time>2014-06-08T10:12:58.19</time>
      </trkpt>
      <trkpt lat="49.53244" lon="1.8483">
        <ele>174.4</ele>
        <time>2014-06-08T10:13:02.19</time>
      </trkpt>
      <trkpt lat="49.53238" lon="1.84837">
        <ele>174.3</ele>
        <time>2014-06-08T10:13:07.19</time>
      </trkpt>
      <trkpt lat="49.53232" lon="1.84846">
        <ele>173.9</ele>
        <time>2014-06-08T10:13:12.19</time>
      </trkpt>
      <trkpt lat="49.53226" lon="1.84854">
        <ele>173.6</ele>
        <time>2014-06-08T10:13:18.19</time>
      </trkpt>
      <trkpt lat="49.5322" lon="1.84862">
        <ele>173.3</ele>
        <time>2014-06-08T10:13:23.19</time>
      </trkpt>
      <trkpt lat="49.53213" lon="1.84866">
        <ele>173.3</ele>
        <time>2014-06-08T10:13:28.21</time>
      </trkpt>
      <trkpt lat="49.53209" lon="1.84877">
        <ele>173.2</ele>
        <time>2014-06-08T10:13:33.19</time>
      </trkpt>
      <trkpt lat="49.53205" lon="1.84888">
        <ele>173</ele>
        <time>2014-06-08T10:13:39.19</time>
      </trkpt>
      <trkpt lat="49.53199" lon="1.84895">
        <ele>173.4</ele>
        <time>2014-06-08T10:13:45.21</time>
      </trkpt>
      <trkpt lat="49.53193" lon="1.84904">
        <ele>173.4</ele>
        <time>2014-06-08T10:13:51.19</time>
      </trkpt>
      <trkpt lat="49.53189" lon="1.84915">
        <ele>173.2</ele>
        <time>2014-06-08T10:13:58.19</time>
      </trkpt>
      <trkpt lat="49.53185" lon="1.84921">
        <ele>173.2</ele>
        <time>2014-06-08T10:14:05.19</time>
      </trkpt>
      <trkpt lat="49.53179" lon="1.84926">
        <ele>172.8</ele>
        <time>2014-06-08T10:14:11.19</time>
      </trkpt>
      <trkpt lat="49.53174" lon="1.84936">
        <ele>172.8</ele>
        <time>2014-06-08T10:14:17.19</time>
      </trkpt>
      <trkpt lat="49.53169" lon="1.84942">
        <ele>172.7</ele>
        <time>2014-06-08T10:14:24.19</time>
      </trkpt>
      <trkpt lat="49.53164" lon="1.84949">
        <ele>172.7</ele>
        <time>2014-06-08T10:14:31.19</time>
      </trkpt>
      <trkpt lat="49.53159" lon="1.84955">
        <ele>173.1</ele>
        <time>2014-06-08T10:14:38.19</time>
      </trkpt>
      <trkpt lat="49.53155" lon="1.84963">
        <ele>173.2</ele>
        <time>2014-06-08T10:14:45.19</time>
      </trkpt>
      <trkpt lat="49.53152" lon="1.84969">
        <ele>173.3</ele>
        <time>2014-06-08T10:14:52.19</time>
      </trkpt>
      <trkpt lat="49.53145" lon="1.84976">
        <ele>173.1</ele>
        <time>2014-06-08T10:14:58.19</time>
      </trkpt>
      <trkpt lat="49.53141" lon="1.84984">
        <ele>173.5</ele>
        <time>2014-06-08T10:15:05.22</time>
      </trkpt>
      <trkpt lat="49.53137" lon="1.84993">
        <ele>173.9</ele>
        <time>2014-06-08T10:15:09.22</time>
      </trkpt>
      <trkpt lat="49.53134" lon="1.84992">
        <ele>173.8</ele>
        <time>2014-06-08T10:15:16.19</time>
      </trkpt>
      <trkpt lat="49.5313" lon="1.84996">
        <ele>171.8</ele>
        <time>2014-06-08T10:15:23.19</time>
      </trkpt>
      <trkpt lat="49.53124" lon="1.85003">
        <ele>171.4</ele>
        <time>2014-06-08T10:15:30.22</time>
      </trkpt>
      <trkpt lat="49.53118" lon="1.8501">
        <ele>171.1</ele>
        <time>2014-06-08T10:15:37.19</time>
      </trkpt>
      <trkpt lat="49.53113" lon="1.85019">
        <ele>170.5</ele>
        <time>2014-06-08T10:15:44.19</time>
      </trkpt>
      <trkpt lat="49.53107" lon="1.85027">
        <ele>168.7</ele>
        <time>2014-06-08T10:15:50.19</time>
      </trkpt>
      <trkpt lat="49.53102" lon="1.85036">
        <ele>167.4</ele>
        <time>2014-06-08T10:15:57.20</time>
      </trkpt>
      <trkpt lat="49.53098" lon="1.85047">
        <ele>166.9</ele>
        <time>2014-06-08T10:16:04.19</time>
      </trkpt>
      <trkpt lat="49.53095" lon="1.85056">
        <ele>166.6</ele>
        <time>2014-06-08T10:16:11.19</time>
      </trkpt>
      <trkpt lat="49.53092" lon="1.85063">
        <ele>165.9</ele>
        <time>2014-06-08T10:16:18.19</time>
      </trkpt>
      <trkpt lat="49.53087" lon="1.85073">
        <ele>165.3</ele>
        <time>2014-06-08T10:16:25.19</time>
      </trkpt>
      <trkpt lat="49.53085" lon="1.85084">
        <ele>164.9</ele>
        <time>2014-06-08T10:16:31.19</time>
      </trkpt>
      <trkpt lat="49.5308" lon="1.85092">
        <ele>164.3</ele>
        <time>2014-06-08T10:16:38.19</time>
      </trkpt>
      <trkpt lat="49.53077" lon="1.85094">
        <ele>164</ele>
        <time>2014-06-08T10:16:45.19</time>
      </trkpt>
      <trkpt lat="49.53076" lon="1.85094">
        <ele>163.8</ele>
        <time>2014-06-08T10:16:52.19</time>
      </trkpt>
      <trkpt lat="49.53074" lon="1.851">
        <ele>163.6</ele>
        <time>2014-06-08T10:16:55.21</time>
      </trkpt>
      <trkpt lat="49.5307" lon="1.8511">
        <ele>163.5</ele>
        <time>2014-06-08T10:17:02.19</time>
      </trkpt>
      <trkpt lat="49.53066" lon="1.85116">
        <ele>163.4</ele>
        <time>2014-06-08T10:17:09.19</time>
      </trkpt>
      <trkpt lat="49.53059" lon="1.85124">
        <ele>163.4</ele>
        <time>2014-06-08T10:17:16.19</time>
      </trkpt>
      <trkpt lat="49.53056" lon="1.85135">
        <ele>163.3</ele>
        <time>2014-06-08T10:17:21.19</time>
      </trkpt>
      <trkpt lat="49.53052" lon="1.85145">
        <ele>163.3</ele>
        <time>2014-06-08T10:17:26.19</time>
      </trkpt>
      <trkpt lat="49.53048" lon="1.85155">
        <ele>163.2</ele>
        <time>2014-06-08T10:17:32.21</time>
      </trkpt>
      <trkpt lat="49.53044" lon="1.85167">
        <ele>163</ele>
        <time>2014-06-08T10:17:38.19</time>
      </trkpt>
      <trkpt lat="49.53039" lon="1.85175">
        <ele>162.9</ele>
        <time>2014-06-08T10:17:43.22</time>
      </trkpt>
      <trkpt lat="49.53034" lon="1.85185">
        <ele>162.7</ele>
        <time>2014-06-08T10:17:49.20</time>
      </trkpt>
      <trkpt lat="49.53029" lon="1.85194">
        <ele>162.7</ele>
        <time>2014-06-08T10:17:55.19</time>
      </trkpt>
      <trkpt lat="49.53024" lon="1.85202">
        <ele>162.7</ele>
        <time>2014-06-08T10:18:00.19</time>
      </trkpt>
      <trkpt lat="49.53017" lon="1.85211">
        <ele>162.7</ele>
        <time>2014-06-08T10:18:06.19</time>
      </trkpt>
      <trkpt lat="49.53011" lon="1.85218">
        <ele>163</ele>
        <time>2014-06-08T10:18:12.19</time>
      </trkpt>
      <trkpt lat="49.53006" lon="1.85226">
        <ele>163.3</ele>
        <time>2014-06-08T10:18:18.19</time>
      </trkpt>
      <trkpt lat="49.53" lon="1.85236">
        <ele>163.4</ele>
        <time>2014-06-08T10:18:24.19</time>
      </trkpt>
      <trkpt lat="49.52996" lon="1.85247">
        <ele>163.5</ele>
        <time>2014-06-08T10:18:31.19</time>
      </trkpt>
      <trkpt lat="49.52992" lon="1.85253">
        <ele>163.5</ele>
        <time>2014-06-08T10:18:38.19</time>
      </trkpt>
      <trkpt lat="49.52987" lon="1.85263">
        <ele>163.1</ele>
        <time>2014-06-08T10:18:43.19</time>
      </trkpt>
      <trkpt lat="49.52983" lon="1.85273">
        <ele>162.5</ele>
        <time>2014-06-08T10:18:50.19</time>
      </trkpt>
      <trkpt lat="49.52979" lon="1.85284">
        <ele>162.1</ele>
        <time>2014-06-08T10:18:55.19</time>
      </trkpt>
      <trkpt lat="49.52974" lon="1.85294">
        <ele>161.6</ele>
        <time>2014-06-08T10:19:00.19</time>
      </trkpt>
      <trkpt lat="49.5297" lon="1.85303">
        <ele>161</ele>
        <time>2014-06-08T10:19:05.19</time>
      </trkpt>
      <trkpt lat="49.52966" lon="1.85313">
        <ele>160.5</ele>
        <time>2014-06-08T10:19:12.19</time>
      </trkpt>
      <trkpt lat="49.52963" lon="1.85321">
        <ele>160.1</ele>
        <time>2014-06-08T10:19:19.19</time>
      </trkpt>
      <trkpt lat="49.52961" lon="1.85325">
        <ele>160</ele>
        <time>2014-06-08T10:19:26.19</time>
      </trkpt>
      <trkpt lat="49.52961" lon="1.85327">
        <ele>159.8</ele>
        <time>2014-06-08T10:19:33.19</time>
      </trkpt>
      <trkpt lat="49.52956" lon="1.85331">
        <ele>159.6</ele>
        <time>2014-06-08T10:19:39.21</time>
      </trkpt>
      <trkpt lat="49.52956" lon="1.8534">
        <ele>159.3</ele>
        <time>2014-06-08T10:19:46.20</time>
      </trkpt>
      <trkpt lat="49.52954" lon="1.85352">
        <ele>159.4</ele>
        <time>2014-06-08T10:19:53.19</time>
      </trkpt>
      <trkpt lat="49.52952" lon="1.85363">
        <ele>158.3</ele>
        <time>2014-06-08T10:19:58.42</time>
      </trkpt>
      <trkpt lat="49.52951" lon="1.85369">
        <ele>158.6</ele>
        <time>2014-06-08T10:20:05.22</time>
      </trkpt>
      <trkpt lat="49.52949" lon="1.85371">
        <ele>159.4</ele>
        <time>2014-06-08T10:20:12.19</time>
      </trkpt>
      <trkpt lat="49.5295" lon="1.85383">
        <ele>159.7</ele>
        <time>2014-06-08T10:20:18.24</time>
      </trkpt>
      <trkpt lat="49.5295" lon="1.85394">
        <ele>158.5</ele>
        <time>2014-06-08T10:20:24.16</time>
      </trkpt>
      <trkpt lat="49.52949" lon="1.85402">
        <ele>157.9</ele>
        <time>2014-06-08T10:20:31.16</time>
      </trkpt>
      <trkpt lat="49.52947" lon="1.85405">
        <ele>157.4</ele>
        <time>2014-06-08T10:20:38.16</time>
      </trkpt>
      <trkpt lat="49.52943" lon="1.85416">
        <ele>156.7</ele>
        <time>2014-06-08T10:20:44.16</time>
      </trkpt>
      <trkpt lat="49.52942" lon="1.85425">
        <ele>156.1</ele>
        <time>2014-06-08T10:20:51.16</time>
      </trkpt>
      <trkpt lat="49.5294" lon="1.85432">
        <ele>156.1</ele>
        <time>2014-06-08T10:20:58.22</time>
      </trkpt>
      <trkpt lat="49.52936" lon="1.8543">
        <ele>155.8</ele>
        <time>2014-06-08T10:21:05.16</time>
      </trkpt>
      <trkpt lat="49.52933" lon="1.8542">
        <ele>155.6</ele>
        <time>2014-06-08T10:21:12.49</time>
      </trkpt>
      <trkpt lat="49.52933" lon="1.8541">
        <ele>155.7</ele>
        <time>2014-06-08T10:21:19.44</time>
      </trkpt>
      <trkpt lat="49.52931" lon="1.85405">
        <ele>155.6</ele>
        <time>2014-06-08T10:21:26.48</time>
      </trkpt>
      <trkpt lat="49.52928" lon="1.85395">
        <ele>155.5</ele>
        <time>2014-06-08T10:21:33.47</time>
      </trkpt>
      <trkpt lat="49.52922" lon="1.85385">
        <ele>155.5</ele>
        <time>2014-06-08T10:21:40.45</time>
      </trkpt>
      <trkpt lat="49.52918" lon="1.85374">
        <ele>155.5</ele>
        <time>2014-06-08T10:21:45.48</time>
      </trkpt>
      <trkpt lat="49.52914" lon="1.85364">
        <ele>155.4</ele>
        <time>2014-06-08T10:21:52.45</time>
      </trkpt>
      <trkpt lat="49.52908" lon="1.85357">
        <ele>155.2</ele>
        <time>2014-06-08T10:21:57.43</time>
      </trkpt>
      <trkpt lat="49.52902" lon="1.85349">
        <ele>155</ele>
        <time>2014-06-08T10:22:04.43</time>
      </trkpt>
      <trkpt lat="49.52897" lon="1.8534">
        <ele>154.6</ele>
        <time>2014-06-08T10:22:10.43</time>
      </trkpt>
      <trkpt lat="49.52892" lon="1.8533">
        <ele>154.4</ele>
        <time>2014-06-08T10:22:16.43</time>
      </trkpt>
      <trkpt lat="49.52887" lon="1.8532">
        <ele>154.2</ele>
        <time>2014-06-08T10:22:23.43</time>
      </trkpt>
      <trkpt lat="49.5288" lon="1.85314">
        <ele>153.9</ele>
        <time>2014-06-08T10:22:30.43</time>
      </trkpt>
      <trkpt lat="49.52875" lon="1.85304">
        <ele>153.7</ele>
        <time>2014-06-08T10:22:35.43</time>
      </trkpt>
      <trkpt lat="49.52869" lon="1.85298">
        <ele>153.5</ele>
        <time>2014-06-08T10:22:42.43</time>
      </trkpt>
      <trkpt lat="49.52862" lon="1.85293">
        <ele>153.3</ele>
        <time>2014-06-08T10:22:49.43</time>
      </trkpt>
      <trkpt lat="49.52855" lon="1.85287">
        <ele>153</ele>
        <time>2014-06-08T10:22:55.43</time>
      </trkpt>
      <trkpt lat="49.52849" lon="1.85281">
        <ele>152.6</ele>
        <time>2014-06-08T10:23:01.43</time>
      </trkpt>
      <trkpt lat="49.52842" lon="1.85276">
        <ele>152.3</ele>
        <time>2014-06-08T10:23:07.43</time>
      </trkpt>
      <trkpt lat="49.52835" lon="1.8527">
        <ele>151.9</ele>
        <time>2014-06-08T10:23:14.43</time>
      </trkpt>
      <trkpt lat="49.52829" lon="1.85263">
        <ele>151.4</ele>
        <time>2014-06-08T10:23:21.43</time>
      </trkpt>
      <trkpt lat="49.52823" lon="1.85257">
        <ele>151.1</ele>
        <time>2014-06-08T10:23:28.43</time>
      </trkpt>
      <trkpt lat="49.52816" lon="1.85251">
        <ele>150.6</ele>
        <time>2014-06-08T10:23:35.43</time>
      </trkpt>
      <trkpt lat="49.52809" lon="1.85248">
        <ele>150.4</ele>
        <time>2014-06-08T10:23:40.43</time>
      </trkpt>
      <trkpt lat="49.52802" lon="1.85241">
        <ele>150.2</ele>
        <time>2014-06-08T10:23:46.43</time>
      </trkpt>
      <trkpt lat="49.52795" lon="1.85236">
        <ele>149.9</ele>
        <time>2014-06-08T10:23:53.43</time>
      </trkpt>
      <trkpt lat="49.52788" lon="1.85231">
        <ele>149.7</ele>
        <time>2014-06-08T10:24:00.43</time>
      </trkpt>
      <trkpt lat="49.52782" lon="1.85222">
        <ele>149.2</ele>
        <time>2014-06-08T10:24:07.43</time>
      </trkpt>
      <trkpt lat="49.52775" lon="1.85218">
        <ele>148.9</ele>
        <time>2014-06-08T10:24:13.43</time>
      </trkpt>
      <trkpt lat="49.52768" lon="1.85212">
        <ele>148.5</ele>
        <time>2014-06-08T10:24:20.43</time>
      </trkpt>
      <trkpt lat="49.52761" lon="1.85205">
        <ele>148.2</ele>
        <time>2014-06-08T10:24:27.42</time>
      </trkpt>
      <trkpt lat="49.52756" lon="1.85202">
        <ele>147.9</ele>
        <time>2014-06-08T10:24:34.43</time>
      </trkpt>
      <trkpt lat="49.5275" lon="1.85194">
        <ele>147.3</ele>
        <time>2014-06-08T10:24:41.43</time>
      </trkpt>
      <trkpt lat="49.52745" lon="1.85187">
        <ele>146.8</ele>
        <time>2014-06-08T10:24:48.43</time>
      </trkpt>
      <trkpt lat="49.52738" lon="1.85182">
        <ele>146.3</ele>
        <time>2014-06-08T10:24:53.43</time>
      </trkpt>
      <trkpt lat="49.52732" lon="1.85176">
        <ele>145.7</ele>
        <time>2014-06-08T10:25:00.46</time>
      </trkpt>
      <trkpt lat="49.52726" lon="1.85175">
        <ele>144.9</ele>
        <time>2014-06-08T10:25:07.43</time>
      </trkpt>
      <trkpt lat="49.52719" lon="1.85171">
        <ele>143.4</ele>
        <time>2014-06-08T10:25:14.43</time>
      </trkpt>
      <trkpt lat="49.52716" lon="1.8517">
        <ele>142.2</ele>
        <time>2014-06-08T10:25:21.43</time>
      </trkpt>
      <trkpt lat="49.52709" lon="1.85174">
        <ele>138.1</ele>
        <time>2014-06-08T10:25:28.43</time>
      </trkpt>
      <trkpt lat="49.52704" lon="1.85181">
        <ele>137.8</ele>
        <time>2014-06-08T10:25:35.43</time>
      </trkpt>
      <trkpt lat="49.52702" lon="1.85185">
        <ele>137.1</ele>
        <time>2014-06-08T10:25:42.43</time>
      </trkpt>
      <trkpt lat="49.52701" lon="1.85192">
        <ele>136.6</ele>
        <time>2014-06-08T10:25:47.46</time>
      </trkpt>
      <trkpt lat="49.52707" lon="1.85199">
        <ele>134.8</ele>
        <time>2014-06-08T10:25:51.40</time>
      </trkpt>
      <trkpt lat="49.52702" lon="1.852">
        <ele>133.8</ele>
        <time>2014-06-08T10:25:58.38</time>
      </trkpt>
      <trkpt lat="49.52695" lon="1.85201">
        <ele>133.6</ele>
        <time>2014-06-08T10:26:05.43</time>
      </trkpt>
      <trkpt lat="49.52691" lon="1.85205">
        <ele>133.3</ele>
        <time>2014-06-08T10:26:12.38</time>
      </trkpt>
      <trkpt lat="49.52688" lon="1.85207">
        <ele>133.4</ele>
        <time>2014-06-08T10:26:19.38</time>
      </trkpt>
      <trkpt lat="49.52685" lon="1.8521">
        <ele>133.2</ele>
        <time>2014-06-08T10:26:26.38</time>
      </trkpt>
      <trkpt lat="49.52682" lon="1.8521">
        <ele>133.3</ele>
        <time>2014-06-08T10:26:33.38</time>
      </trkpt>
      <trkpt lat="49.52678" lon="1.85211">
        <ele>133.4</ele>
        <time>2014-06-08T10:26:40.38</time>
      </trkpt>
      <trkpt lat="49.52676" lon="1.85212">
        <ele>133.3</ele>
        <time>2014-06-08T10:26:47.38</time>
      </trkpt>
      <trkpt lat="49.52676" lon="1.85213">
        <ele>133.3</ele>
        <time>2014-06-08T10:26:54.38</time>
      </trkpt>
      <trkpt lat="49.52674" lon="1.85224">
        <ele>133.1</ele>
        <time>2014-06-08T10:26:56.41</time>
      </trkpt>
      <trkpt lat="49.52668" lon="1.85231">
        <ele>133.2</ele>
        <time>2014-06-08T10:27:03.38</time>
      </trkpt>
      <trkpt lat="49.52662" lon="1.85239">
        <ele>133.2</ele>
        <time>2014-06-08T10:27:09.38</time>
      </trkpt>
      <trkpt lat="49.52656" lon="1.85246">
        <ele>133</ele>
        <time>2014-06-08T10:27:15.38</time>
      </trkpt>
      <trkpt lat="49.52652" lon="1.85255">
        <ele>132.9</ele>
        <time>2014-06-08T10:27:22.39</time>
      </trkpt>
      <trkpt lat="49.52646" lon="1.85263">
        <ele>133</ele>
        <time>2014-06-08T10:27:28.39</time>
      </trkpt>
      <trkpt lat="49.5264" lon="1.85271">
        <ele>133.1</ele>
        <time>2014-06-08T10:27:34.39</time>
      </trkpt>
      <trkpt lat="49.52636" lon="1.8528">
        <ele>133.1</ele>
        <time>2014-06-08T10:27:41.38</time>
      </trkpt>
      <trkpt lat="49.52631" lon="1.85288">
        <ele>133.5</ele>
        <time>2014-06-08T10:27:48.38</time>
      </trkpt>
      <trkpt lat="49.52627" lon="1.85297">
        <ele>133.9</ele>
        <time>2014-06-08T10:27:55.38</time>
      </trkpt>
      <trkpt lat="49.52622" lon="1.85307">
        <ele>134</ele>
        <time>2014-06-08T10:28:01.38</time>
      </trkpt>
      <trkpt lat="49.52617" lon="1.85316">
        <ele>134.2</ele>
        <time>2014-06-08T10:28:07.39</time>
      </trkpt>
      <trkpt lat="49.52613" lon="1.85324">
        <ele>135.1</ele>
        <time>2014-06-08T10:28:14.38</time>
      </trkpt>
      <trkpt lat="49.52607" lon="1.8533">
        <ele>135.1</ele>
        <time>2014-06-08T10:28:19.38</time>
      </trkpt>
      <trkpt lat="49.52601" lon="1.85338">
        <ele>135.3</ele>
        <time>2014-06-08T10:28:26.38</time>
      </trkpt>
      <trkpt lat="49.52596" lon="1.85347">
        <ele>135.5</ele>
        <time>2014-06-08T10:28:32.38</time>
      </trkpt>
      <trkpt lat="49.52589" lon="1.85352">
        <ele>135.9</ele>
        <time>2014-06-08T10:28:39.38</time>
      </trkpt>
      <trkpt lat="49.52581" lon="1.85357">
        <ele>136.2</ele>
        <time>2014-06-08T10:28:45.38</time>
      </trkpt>
      <trkpt lat="49.52575" lon="1.85363">
        <ele>136.5</ele>
        <time>2014-06-08T10:28:52.39</time>
      </trkpt>
      <trkpt lat="49.52569" lon="1.8537">
        <ele>136.4</ele>
        <time>2014-06-08T10:28:57.38</time>
      </trkpt>
      <trkpt lat="49.52563" lon="1.85374">
        <ele>136.4</ele>
        <time>2014-06-08T10:29:04.39</time>
      </trkpt>
      <trkpt lat="49.5256" lon="1.85379">
        <ele>136.8</ele>
        <time>2014-06-08T10:29:11.38</time>
      </trkpt>
      <trkpt lat="49.52558" lon="1.85374">
        <ele>133</ele>
        <time>2014-06-08T10:29:17.41</time>
      </trkpt>
      <trkpt lat="49.52554" lon="1.85384">
        <ele>132.9</ele>
        <time>2014-06-08T10:29:22.38</time>
      </trkpt>
      <trkpt lat="49.52547" lon="1.85392">
        <ele>132.9</ele>
        <time>2014-06-08T10:29:29.38</time>
      </trkpt>
      <trkpt lat="49.52541" lon="1.85398">
        <ele>132.9</ele>
        <time>2014-06-08T10:29:35.38</time>
      </trkpt>
      <trkpt lat="49.52532" lon="1.85402">
        <ele>131.4</ele>
        <time>2014-06-08T10:29:41.38</time>
      </trkpt>
      <trkpt lat="49.52525" lon="1.85405">
        <ele>128.8</ele>
        <time>2014-06-08T10:29:47.38</time>
      </trkpt>
      <trkpt lat="49.52517" lon="1.85406">
        <ele>126.3</ele>
        <time>2014-06-08T10:29:54.38</time>
      </trkpt>
      <trkpt lat="49.5251" lon="1.85407">
        <ele>126.6</ele>
        <time>2014-06-08T10:30:01.38</time>
      </trkpt>
      <trkpt lat="49.52507" lon="1.85406">
        <ele>127</ele>
        <time>2014-06-08T10:30:08.38</time>
      </trkpt>
      <trkpt lat="49.52503" lon="1.8541">
        <ele>127.4</ele>
        <time>2014-06-08T10:30:10.40</time>
      </trkpt>
      <trkpt lat="49.52494" lon="1.85413">
        <ele>127.3</ele>
        <time>2014-06-08T10:30:16.38</time>
      </trkpt>
      <trkpt lat="49.52486" lon="1.8541">
        <ele>128.6</ele>
        <time>2014-06-08T10:30:23.38</time>
      </trkpt>
      <trkpt lat="49.52485" lon="1.85404">
        <ele>129.3</ele>
        <time>2014-06-08T10:30:30.38</time>
      </trkpt>
      <trkpt lat="49.52485" lon="1.85411">
        <ele>132.3</ele>
        <time>2014-06-08T10:30:36.40</time>
      </trkpt>
      <trkpt lat="49.52486" lon="1.85411">
        <ele>132.6</ele>
        <time>2014-06-08T10:30:43.38</time>
      </trkpt>
      <trkpt lat="49.52476" lon="1.85411">
        <ele>131.6</ele>
        <time>2014-06-08T10:30:44.40</time>
      </trkpt>
      <trkpt lat="49.52471" lon="1.85413">
        <ele>131.9</ele>
        <time>2014-06-08T10:30:51.38</time>
      </trkpt>
      <trkpt lat="49.52463" lon="1.85412">
        <ele>132.1</ele>
        <time>2014-06-08T10:30:58.38</time>
      </trkpt>
      <trkpt lat="49.52457" lon="1.85408">
        <ele>132.2</ele>
        <time>2014-06-08T10:31:05.38</time>
      </trkpt>
      <trkpt lat="49.52452" lon="1.85403">
        <ele>132.7</ele>
        <time>2014-06-08T10:31:12.38</time>
      </trkpt>
      <trkpt lat="49.52444" lon="1.85397">
        <ele>133.2</ele>
        <time>2014-06-08T10:31:19.38</time>
      </trkpt>
      <trkpt lat="49.52437" lon="1.8539">
        <ele>133.5</ele>
        <time>2014-06-08T10:31:26.38</time>
      </trkpt>
      <trkpt lat="49.52431" lon="1.85384">
        <ele>133.4</ele>
        <time>2014-06-08T10:31:32.38</time>
      </trkpt>
      <trkpt lat="49.52424" lon="1.85379">
        <ele>133.4</ele>
        <time>2014-06-08T10:31:39.38</time>
      </trkpt>
      <trkpt lat="49.52417" lon="1.85379">
        <ele>133.2</ele>
        <time>2014-06-08T10:31:44.38</time>
      </trkpt>
      <trkpt lat="49.5241" lon="1.85373">
        <ele>132.7</ele>
        <time>2014-06-08T10:31:51.38</time>
      </trkpt>
      <trkpt lat="49.52401" lon="1.85371">
        <ele>132.9</ele>
        <time>2014-06-08T10:31:57.38</time>
      </trkpt>
      <trkpt lat="49.52394" lon="1.8537">
        <ele>132.9</ele>
        <time>2014-06-08T10:32:04.38</time>
      </trkpt>
      <trkpt lat="49.52386" lon="1.85367">
        <ele>133</ele>
        <time>2014-06-08T10:32:11.38</time>
      </trkpt>
      <trkpt lat="49.52377" lon="1.85367">
        <ele>133.1</ele>
        <time>2014-06-08T10:32:18.38</time>
      </trkpt>
      <trkpt lat="49.52372" lon="1.85363">
        <ele>133</ele>
        <time>2014-06-08T10:32:25.38</time>
      </trkpt>
      <trkpt lat="49.52365" lon="1.85358">
        <ele>133.1</ele>
        <time>2014-06-08T10:32:32.38</time>
      </trkpt>
      <trkpt lat="49.52358" lon="1.85358">
        <ele>133.2</ele>
        <time>2014-06-08T10:32:39.38</time>
      </trkpt>
      <trkpt lat="49.52353" lon="1.8535">
        <ele>133.8</ele>
        <time>2014-06-08T10:32:43.38</time>
      </trkpt>
      <trkpt lat="49.52344" lon="1.85348">
        <ele>134.4</ele>
        <time>2014-06-08T10:32:50.38</time>
      </trkpt>
      <trkpt lat="49.52338" lon="1.85345">
        <ele>134.8</ele>
        <time>2014-06-08T10:32:57.38</time>
      </trkpt>
      <trkpt lat="49.52332" lon="1.85338">
        <ele>135.3</ele>
        <time>2014-06-08T10:33:03.38</time>
      </trkpt>
      <trkpt lat="49.52326" lon="1.85331">
        <ele>136</ele>
        <time>2014-06-08T10:33:10.38</time>
      </trkpt>
      <trkpt lat="49.5232" lon="1.85326">
        <ele>136.3</ele>
        <time>2014-06-08T10:33:17.38</time>
      </trkpt>
      <trkpt lat="49.52313" lon="1.85329">
        <ele>136.5</ele>
        <time>2014-06-08T10:33:23.38</time>
      </trkpt>
      <trkpt lat="49.52306" lon="1.85328">
        <ele>136.1</ele>
        <time>2014-06-08T10:33:30.38</time>
      </trkpt>
      <trkpt lat="49.523" lon="1.8533">
        <ele>136.2</ele>
        <time>2014-06-08T10:33:37.38</time>
      </trkpt>
      <trkpt lat="49.52293" lon="1.85331">
        <ele>136.4</ele>
        <time>2014-06-08T10:33:43.38</time>
      </trkpt>
      <trkpt lat="49.52286" lon="1.85337">
        <ele>136.6</ele>
        <time>2014-06-08T10:33:49.38</time>
      </trkpt>
      <trkpt lat="49.52279" lon="1.85343">
        <ele>136.5</ele>
        <time>2014-06-08T10:33:56.39</time>
      </trkpt>
      <trkpt lat="49.52275" lon="1.85348">
        <ele>136.6</ele>
        <time>2014-06-08T10:34:03.38</time>
      </trkpt>
      <trkpt lat="49.52268" lon="1.85352">
        <ele>136.8</ele>
        <time>2014-06-08T10:34:10.38</time>
      </trkpt>
      <trkpt lat="49.52263" lon="1.85362">
        <ele>137.4</ele>
        <time>2014-06-08T10:34:17.38</time>
      </trkpt>
      <trkpt lat="49.52259" lon="1.85372">
        <ele>138.1</ele>
        <time>2014-06-08T10:34:23.38</time>
      </trkpt>
      <trkpt lat="49.52252" lon="1.85378">
        <ele>138.4</ele>
        <time>2014-06-08T10:34:30.38</time>
      </trkpt>
      <trkpt lat="49.52246" lon="1.85385">
        <ele>138.4</ele>
        <time>2014-06-08T10:34:37.43</time>
      </trkpt>
      <trkpt lat="49.5224" lon="1.85391">
        <ele>138.7</ele>
        <time>2014-06-08T10:34:44.38</time>
      </trkpt>
      <trkpt lat="49.52234" lon="1.85401">
        <ele>139.5</ele>
        <time>2014-06-08T10:34:49.38</time>
      </trkpt>
      <trkpt lat="49.52228" lon="1.85408">
        <ele>139.8</ele>
        <time>2014-06-08T10:34:56.38</time>
      </trkpt>
      <trkpt lat="49.5222" lon="1.85413">
        <ele>140.5</ele>
        <time>2014-06-08T10:35:02.38</time>
      </trkpt>
      <trkpt lat="49.52213" lon="1.8542">
        <ele>141</ele>
        <time>2014-06-08T10:35:07.39</time>
      </trkpt>
      <trkpt lat="49.52206" lon="1.85424">
        <ele>141.1</ele>
        <time>2014-06-08T10:35:14.38</time>
      </trkpt>
      <trkpt lat="49.52203" lon="1.85434">
        <ele>141.7</ele>
        <time>2014-06-08T10:35:19.38</time>
      </trkpt>
      <trkpt lat="49.52196" lon="1.8544">
        <ele>142.4</ele>
        <time>2014-06-08T10:35:26.38</time>
      </trkpt>
      <trkpt lat="49.5219" lon="1.85442">
        <ele>143.3</ele>
        <time>2014-06-08T10:35:33.38</time>
      </trkpt>
      <trkpt lat="49.52185" lon="1.85442">
        <ele>144.3</ele>
        <time>2014-06-08T10:35:40.38</time>
      </trkpt>
      <trkpt lat="49.52179" lon="1.85446">
        <ele>145</ele>
        <time>2014-06-08T10:35:47.39</time>
      </trkpt>
      <trkpt lat="49.52172" lon="1.85453">
        <ele>145.5</ele>
        <time>2014-06-08T10:35:53.38</time>
      </trkpt>
      <trkpt lat="49.52166" lon="1.8546">
        <ele>146.3</ele>
        <time>2014-06-08T10:35:59.38</time>
      </trkpt>
      <trkpt lat="49.52159" lon="1.85466">
        <ele>147.1</ele>
        <time>2014-06-08T10:36:05.38</time>
      </trkpt>
      <trkpt lat="49.52154" lon="1.85476">
        <ele>147.8</ele>
        <time>2014-06-08T10:36:11.38</time>
      </trkpt>
      <trkpt lat="49.52149" lon="1.85481">
        <ele>148.2</ele>
        <time>2014-06-08T10:36:18.38</time>
      </trkpt>
      <trkpt lat="49.52142" lon="1.85486">
        <ele>149.3</ele>
        <time>2014-06-08T10:36:24.38</time>
      </trkpt>
      <trkpt lat="49.52135" lon="1.85491">
        <ele>150</ele>
        <time>2014-06-08T10:36:29.38</time>
      </trkpt>
      <trkpt lat="49.52129" lon="1.85496">
        <ele>150.4</ele>
        <time>2014-06-08T10:36:35.38</time>
      </trkpt>
      <trkpt lat="49.52122" lon="1.85499">
        <ele>150.8</ele>
        <time>2014-06-08T10:36:42.38</time>
      </trkpt>
      <trkpt lat="49.52115" lon="1.85505">
        <ele>151.5</ele>
        <time>2014-06-08T10:36:49.38</time>
      </trkpt>
      <trkpt lat="49.52109" lon="1.85509">
        <ele>152.5</ele>
        <time>2014-06-08T10:36:56.38</time>
      </trkpt>
      <trkpt lat="49.52102" lon="1.85516">
        <ele>153.5</ele>
        <time>2014-06-08T10:37:03.41</time>
      </trkpt>
      <trkpt lat="49.52096" lon="1.8552">
        <ele>154.3</ele>
        <time>2014-06-08T10:37:09.38</time>
      </trkpt>
      <trkpt lat="49.5209" lon="1.85527">
        <ele>155</ele>
        <time>2014-06-08T10:37:15.38</time>
      </trkpt>
      <trkpt lat="49.52085" lon="1.85532">
        <ele>155.5</ele>
        <time>2014-06-08T10:37:22.38</time>
      </trkpt>
      <trkpt lat="49.52081" lon="1.85533">
        <ele>156.4</ele>
        <time>2014-06-08T10:37:29.38</time>
      </trkpt>
      <trkpt lat="49.52081" lon="1.85531">
        <ele>156.7</ele>
        <time>2014-06-08T10:37:36.38</time>
      </trkpt>
      <trkpt lat="49.52074" lon="1.85536">
        <ele>157.3</ele>
        <time>2014-06-08T10:37:38.40</time>
      </trkpt>
      <trkpt lat="49.52068" lon="1.85542">
        <ele>157.8</ele>
        <time>2014-06-08T10:37:45.38</time>
      </trkpt>
      <trkpt lat="49.52061" lon="1.85545">
        <ele>158.2</ele>
        <time>2014-06-08T10:37:52.38</time>
      </trkpt>
      <trkpt lat="49.52054" lon="1.85549">
        <ele>159</ele>
        <time>2014-06-08T10:37:59.38</time>
      </trkpt>
      <trkpt lat="49.52045" lon="1.85551">
        <ele>159.3</ele>
        <time>2014-06-08T10:38:06.38</time>
      </trkpt>
      <trkpt lat="49.52037" lon="1.85551">
        <ele>159.5</ele>
        <time>2014-06-08T10:38:13.38</time>
      </trkpt>
      <trkpt lat="49.5203" lon="1.85553">
        <ele>159.8</ele>
        <time>2014-06-08T10:38:20.38</time>
      </trkpt>
      <trkpt lat="49.52022" lon="1.85555">
        <ele>160</ele>
        <time>2014-06-08T10:38:27.38</time>
      </trkpt>
      <trkpt lat="49.52017" lon="1.85554">
        <ele>160.1</ele>
        <time>2014-06-08T10:38:34.38</time>
      </trkpt>
      <trkpt lat="49.52011" lon="1.85552">
        <ele>160.2</ele>
        <time>2014-06-08T10:38:41.38</time>
      </trkpt>
      <trkpt lat="49.52005" lon="1.85558">
        <ele>160.2</ele>
        <time>2014-06-08T10:38:47.38</time>
      </trkpt>
      <trkpt lat="49.51997" lon="1.85562">
        <ele>160.5</ele>
        <time>2014-06-08T10:38:54.38</time>
      </trkpt>
      <trkpt lat="49.5199" lon="1.85563">
        <ele>161</ele>
        <time>2014-06-08T10:39:00.38</time>
      </trkpt>
      <trkpt lat="49.51983" lon="1.85565">
        <ele>161.3</ele>
        <time>2014-06-08T10:39:07.38</time>
      </trkpt>
      <trkpt lat="49.51976" lon="1.85566">
        <ele>161.4</ele>
        <time>2014-06-08T10:39:14.38</time>
      </trkpt>
      <trkpt lat="49.51973" lon="1.85561">
        <ele>161.6</ele>
        <time>2014-06-08T10:39:21.38</time>
      </trkpt>
      <trkpt lat="49.51972" lon="1.8556">
        <ele>161.8</ele>
        <time>2014-06-08T10:39:28.38</time>
      </trkpt>
      <trkpt lat="49.51965" lon="1.85566">
        <ele>162.2</ele>
        <time>2014-06-08T10:39:32.40</time>
      </trkpt>
      <trkpt lat="49.51957" lon="1.85566">
        <ele>162.4</ele>
        <time>2014-06-08T10:39:39.38</time>
      </trkpt>
      <trkpt lat="49.51952" lon="1.85568">
        <ele>162.6</ele>
        <time>2014-06-08T10:39:46.38</time>
      </trkpt>
      <trkpt lat="49.51945" lon="1.8557">
        <ele>162.8</ele>
        <time>2014-06-08T10:39:53.38</time>
      </trkpt>
      <trkpt lat="49.51938" lon="1.85572">
        <ele>162.9</ele>
        <time>2014-06-08T10:40:00.38</time>
      </trkpt>
      <trkpt lat="49.51931" lon="1.85574">
        <ele>163</ele>
        <time>2014-06-08T10:40:07.38</time>
      </trkpt>
      <trkpt lat="49.51924" lon="1.85579">
        <ele>162.8</ele>
        <time>2014-06-08T10:40:14.38</time>
      </trkpt>
      <trkpt lat="49.51917" lon="1.85582">
        <ele>162.8</ele>
        <time>2014-06-08T10:40:18.38</time>
      </trkpt>
      <trkpt lat="49.51909" lon="1.85588">
        <ele>162.8</ele>
        <time>2014-06-08T10:40:23.38</time>
      </trkpt>
      <trkpt lat="49.51901" lon="1.85591">
        <ele>163.1</ele>
        <time>2014-06-08T10:40:30.38</time>
      </trkpt>
      <trkpt lat="49.51897" lon="1.85595">
        <ele>163.3</ele>
        <time>2014-06-08T10:40:37.38</time>
      </trkpt>
      <trkpt lat="49.51893" lon="1.85592">
        <ele>163.6</ele>
        <time>2014-06-08T10:40:44.38</time>
      </trkpt>
      <trkpt lat="49.51888" lon="1.8559">
        <ele>164</ele>
        <time>2014-06-08T10:40:51.38</time>
      </trkpt>
      <trkpt lat="49.51886" lon="1.85586">
        <ele>164.8</ele>
        <time>2014-06-08T10:40:58.38</time>
      </trkpt>
      <trkpt lat="49.51878" lon="1.85591">
        <ele>166</ele>
        <time>2014-06-08T10:41:02.41</time>
      </trkpt>
      <trkpt lat="49.51872" lon="1.85581">
        <ele>167.4</ele>
        <time>2014-06-08T10:41:03.40</time>
      </trkpt>
      <trkpt lat="49.51867" lon="1.85577">
        <ele>167.6</ele>
        <time>2014-06-08T10:41:10.39</time>
      </trkpt>
      <trkpt lat="49.51862" lon="1.85568">
        <ele>167.7</ele>
        <time>2014-06-08T10:41:17.39</time>
      </trkpt>
      <trkpt lat="49.51857" lon="1.8556">
        <ele>167.6</ele>
        <time>2014-06-08T10:41:24.39</time>
      </trkpt>
      <trkpt lat="49.51853" lon="1.85548">
        <ele>167.4</ele>
        <time>2014-06-08T10:41:31.39</time>
      </trkpt>
      <trkpt lat="49.51848" lon="1.8554">
        <ele>167.4</ele>
        <time>2014-06-08T10:41:38.39</time>
      </trkpt>
      <trkpt lat="49.51842" lon="1.85529">
        <ele>167.3</ele>
        <time>2014-06-08T10:41:43.39</time>
      </trkpt>
      <trkpt lat="49.51838" lon="1.85518">
        <ele>167.2</ele>
        <time>2014-06-08T10:41:49.39</time>
      </trkpt>
      <trkpt lat="49.51834" lon="1.85508">
        <ele>167.1</ele>
        <time>2014-06-08T10:41:56.38</time>
      </trkpt>
      <trkpt lat="49.51831" lon="1.85497">
        <ele>167.1</ele>
        <time>2014-06-08T10:42:02.38</time>
      </trkpt>
      <trkpt lat="49.51826" lon="1.85489">
        <ele>167.1</ele>
        <time>2014-06-08T10:42:08.38</time>
      </trkpt>
      <trkpt lat="49.51822" lon="1.85478">
        <ele>167.1</ele>
        <time>2014-06-08T10:42:14.38</time>
      </trkpt>
      <trkpt lat="49.51819" lon="1.85467">
        <ele>167.2</ele>
        <time>2014-06-08T10:42:21.38</time>
      </trkpt>
      <trkpt lat="49.51817" lon="1.85456">
        <ele>167.3</ele>
        <time>2014-06-08T10:42:28.38</time>
      </trkpt>
      <trkpt lat="49.51815" lon="1.85446">
        <ele>167.3</ele>
        <time>2014-06-08T10:42:33.38</time>
      </trkpt>
      <trkpt lat="49.51811" lon="1.85435">
        <ele>167.3</ele>
        <time>2014-06-08T10:42:39.38</time>
      </trkpt>
      <trkpt lat="49.51807" lon="1.85425">
        <ele>167.6</ele>
        <time>2014-06-08T10:42:46.38</time>
      </trkpt>
      <trkpt lat="49.51804" lon="1.85416">
        <ele>167.9</ele>
        <time>2014-06-08T10:42:53.38</time>
      </trkpt>
      <trkpt lat="49.51801" lon="1.85408">
        <ele>168</ele>
        <time>2014-06-08T10:43:00.38</time>
      </trkpt>
      <trkpt lat="49.51797" lon="1.85396">
        <ele>168</ele>
        <time>2014-06-08T10:43:07.40</time>
      </trkpt>
      <trkpt lat="49.51793" lon="1.85386">
        <ele>167.8</ele>
        <time>2014-06-08T10:43:14.38</time>
      </trkpt>
      <trkpt lat="49.51787" lon="1.85379">
        <ele>167.8</ele>
        <time>2014-06-08T10:43:20.38</time>
      </trkpt>
      <trkpt lat="49.51784" lon="1.85368">
        <ele>168.2</ele>
        <time>2014-06-08T10:43:27.38</time>
      </trkpt>
      <trkpt lat="49.5178" lon="1.85357">
        <ele>168.3</ele>
        <time>2014-06-08T10:43:34.38</time>
      </trkpt>
      <trkpt lat="49.51775" lon="1.85349">
        <ele>168.4</ele>
        <time>2014-06-08T10:43:41.38</time>
      </trkpt>
      <trkpt lat="49.5177" lon="1.8534">
        <ele>168.6</ele>
        <time>2014-06-08T10:43:48.38</time>
      </trkpt>
      <trkpt lat="49.51766" lon="1.85331">
        <ele>168.7</ele>
        <time>2014-06-08T10:43:53.38</time>
      </trkpt>
      <trkpt lat="49.51761" lon="1.85321">
        <ele>168.6</ele>
        <time>2014-06-08T10:44:00.38</time>
      </trkpt>
      <trkpt lat="49.51756" lon="1.85312">
        <ele>168.6</ele>
        <time>2014-06-08T10:44:06.38</time>
      </trkpt>
      <trkpt lat="49.51752" lon="1.85303">
        <ele>168.7</ele>
        <time>2014-06-08T10:44:12.38</time>
      </trkpt>
      <trkpt lat="49.5175" lon="1.85291">
        <ele>169.1</ele>
        <time>2014-06-08T10:44:19.40</time>
      </trkpt>
      <trkpt lat="49.51746" lon="1.8528">
        <ele>169.5</ele>
        <time>2014-06-08T10:44:24.38</time>
      </trkpt>
      <trkpt lat="49.51742" lon="1.85269">
        <ele>169.8</ele>
        <time>2014-06-08T10:44:31.38</time>
      </trkpt>
      <trkpt lat="49.51738" lon="1.85259">
        <ele>170.3</ele>
        <time>2014-06-08T10:44:38.38</time>
      </trkpt>
      <trkpt lat="49.51734" lon="1.85249">
        <ele>170.7</ele>
        <time>2014-06-08T10:44:45.38</time>
      </trkpt>
      <trkpt lat="49.51731" lon="1.8524">
        <ele>171.2</ele>
        <time>2014-06-08T10:44:52.38</time>
      </trkpt>
      <trkpt lat="49.51725" lon="1.85233">
        <ele>171.3</ele>
        <time>2014-06-08T10:44:58.38</time>
      </trkpt>
      <trkpt lat="49.51719" lon="1.85225">
        <ele>171.9</ele>
        <time>2014-06-08T10:45:04.38</time>
      </trkpt>
      <trkpt lat="49.51713" lon="1.85218">
        <ele>172.1</ele>
        <time>2014-06-08T10:45:11.38</time>
      </trkpt>
      <trkpt lat="49.51708" lon="1.85211">
        <ele>172.1</ele>
        <time>2014-06-08T10:45:18.38</time>
      </trkpt>
      <trkpt lat="49.51703" lon="1.85206">
        <ele>172.5</ele>
        <time>2014-06-08T10:45:25.40</time>
      </trkpt>
      <trkpt lat="49.51698" lon="1.85198">
        <ele>172.6</ele>
        <time>2014-06-08T10:45:31.38</time>
      </trkpt>
      <trkpt lat="49.51691" lon="1.85192">
        <ele>173.2</ele>
        <time>2014-06-08T10:45:38.38</time>
      </trkpt>
      <trkpt lat="49.51684" lon="1.85185">
        <ele>173.7</ele>
        <time>2014-06-08T10:45:45.38</time>
      </trkpt>
      <trkpt lat="49.51677" lon="1.85178">
        <ele>174.1</ele>
        <time>2014-06-08T10:45:51.38</time>
      </trkpt>
      <trkpt lat="49.5167" lon="1.85173">
        <ele>174.4</ele>
        <time>2014-06-08T10:45:58.38</time>
      </trkpt>
      <trkpt lat="49.51664" lon="1.85167">
        <ele>174</ele>
        <time>2014-06-08T10:46:04.42</time>
      </trkpt>
      <trkpt lat="49.51657" lon="1.85162">
        <ele>173.6</ele>
        <time>2014-06-08T10:46:11.38</time>
      </trkpt>
      <trkpt lat="49.5165" lon="1.85154">
        <ele>173.3</ele>
        <time>2014-06-08T10:46:17.38</time>
      </trkpt>
      <trkpt lat="49.51643" lon="1.85148">
        <ele>173.3</ele>
        <time>2014-06-08T10:46:24.38</time>
      </trkpt>
      <trkpt lat="49.51637" lon="1.85141">
        <ele>173.5</ele>
        <time>2014-06-08T10:46:29.38</time>
      </trkpt>
      <trkpt lat="49.5163" lon="1.85135">
        <ele>173.8</ele>
        <time>2014-06-08T10:46:36.38</time>
      </trkpt>
      <trkpt lat="49.51624" lon="1.85128">
        <ele>174.4</ele>
        <time>2014-06-08T10:46:43.38</time>
      </trkpt>
      <trkpt lat="49.51618" lon="1.8512">
        <ele>174.5</ele>
        <time>2014-06-08T10:46:50.38</time>
      </trkpt>
      <trkpt lat="49.51614" lon="1.85112">
        <ele>174.5</ele>
        <time>2014-06-08T10:46:55.38</time>
      </trkpt>
      <trkpt lat="49.51608" lon="1.85105">
        <ele>174.8</ele>
        <time>2014-06-08T10:47:02.38</time>
      </trkpt>
      <trkpt lat="49.51602" lon="1.85098">
        <ele>175</ele>
        <time>2014-06-08T10:47:08.38</time>
      </trkpt>
      <trkpt lat="49.51596" lon="1.85092">
        <ele>175.3</ele>
        <time>2014-06-08T10:47:15.38</time>
      </trkpt>
      <trkpt lat="49.51589" lon="1.85086">
        <ele>175.7</ele>
        <time>2014-06-08T10:47:21.38</time>
      </trkpt>
      <trkpt lat="49.51582" lon="1.85082">
        <ele>176</ele>
        <time>2014-06-08T10:47:28.38</time>
      </trkpt>
      <trkpt lat="49.51575" lon="1.85077">
        <ele>176.1</ele>
        <time>2014-06-08T10:47:34.40</time>
      </trkpt>
      <trkpt lat="49.51568" lon="1.85074">
        <ele>176</ele>
        <time>2014-06-08T10:47:40.38</time>
      </trkpt>
      <trkpt lat="49.5156" lon="1.85072">
        <ele>176.2</ele>
        <time>2014-06-08T10:47:47.38</time>
      </trkpt>
      <trkpt lat="49.51553" lon="1.85069">
        <ele>176.2</ele>
        <time>2014-06-08T10:47:54.38</time>
      </trkpt>
      <trkpt lat="49.51546" lon="1.85062">
        <ele>176.1</ele>
        <time>2014-06-08T10:48:00.38</time>
      </trkpt>
      <trkpt lat="49.51539" lon="1.85059">
        <ele>176</ele>
        <time>2014-06-08T10:48:06.38</time>
      </trkpt>
      <trkpt lat="49.51532" lon="1.85056">
        <ele>176.2</ele>
        <time>2014-06-08T10:48:11.38</time>
      </trkpt>
      <trkpt lat="49.51525" lon="1.85052">
        <ele>176.3</ele>
        <time>2014-06-08T10:48:18.38</time>
      </trkpt>
      <trkpt lat="49.51516" lon="1.85049">
        <ele>176.7</ele>
        <time>2014-06-08T10:48:25.38</time>
      </trkpt>
      <trkpt lat="49.51507" lon="1.85046">
        <ele>177.4</ele>
        <time>2014-06-08T10:48:32.38</time>
      </trkpt>
      <trkpt lat="49.515" lon="1.85043">
        <ele>178</ele>
        <time>2014-06-08T10:48:38.38</time>
      </trkpt>
      <trkpt lat="49.51493" lon="1.85039">
        <ele>178.8</ele>
        <time>2014-06-08T10:48:45.38</time>
      </trkpt>
      <trkpt lat="49.51486" lon="1.85039">
        <ele>179</ele>
        <time>2014-06-08T10:48:51.38</time>
      </trkpt>
      <trkpt lat="49.51477" lon="1.85035">
        <ele>179.7</ele>
        <time>2014-06-08T10:48:58.38</time>
      </trkpt>
      <trkpt lat="49.51469" lon="1.85033">
        <ele>180.6</ele>
        <time>2014-06-08T10:49:04.38</time>
      </trkpt>
      <trkpt lat="49.51462" lon="1.85029">
        <ele>182</ele>
        <time>2014-06-08T10:49:10.38</time>
      </trkpt>
      <trkpt lat="49.51455" lon="1.85025">
        <ele>182.7</ele>
        <time>2014-06-08T10:49:16.38</time>
      </trkpt>
      <trkpt lat="49.51447" lon="1.8502">
        <ele>183.5</ele>
        <time>2014-06-08T10:49:23.38</time>
      </trkpt>
      <trkpt lat="49.5144" lon="1.85016">
        <ele>184.6</ele>
        <time>2014-06-08T10:49:29.38</time>
      </trkpt>
      <trkpt lat="49.51432" lon="1.85014">
        <ele>185.1</ele>
        <time>2014-06-08T10:49:35.38</time>
      </trkpt>
      <trkpt lat="49.51424" lon="1.85012">
        <ele>185.8</ele>
        <time>2014-06-08T10:49:42.38</time>
      </trkpt>
      <trkpt lat="49.51417" lon="1.85009">
        <ele>186</ele>
        <time>2014-06-08T10:49:48.38</time>
      </trkpt>
      <trkpt lat="49.51409" lon="1.85005">
        <ele>186.2</ele>
        <time>2014-06-08T10:49:54.38</time>
      </trkpt>
      <trkpt lat="49.51402" lon="1.85002">
        <ele>187.2</ele>
        <time>2014-06-08T10:50:01.38</time>
      </trkpt>
      <trkpt lat="49.51395" lon="1.84999">
        <ele>188.3</ele>
        <time>2014-06-08T10:50:07.38</time>
      </trkpt>
      <trkpt lat="49.51388" lon="1.84995">
        <ele>189.6</ele>
        <time>2014-06-08T10:50:13.38</time>
      </trkpt>
      <trkpt lat="49.51385" lon="1.8499">
        <ele>190.9</ele>
        <time>2014-06-08T10:50:20.38</time>
      </trkpt>
      <trkpt lat="49.51383" lon="1.84989">
        <ele>191.4</ele>
        <time>2014-06-08T10:50:27.38</time>
      </trkpt>
      <trkpt lat="49.51377" lon="1.84987">
        <ele>191.7</ele>
        <time>2014-06-08T10:50:28.40</time>
      </trkpt>
      <trkpt lat="49.51369" lon="1.84989">
        <ele>191.8</ele>
        <time>2014-06-08T10:50:35.38</time>
      </trkpt>
      <trkpt lat="49.51363" lon="1.84987">
        <ele>191.8</ele>
        <time>2014-06-08T10:50:42.38</time>
      </trkpt>
      <trkpt lat="49.51356" lon="1.84983">
        <ele>192</ele>
        <time>2014-06-08T10:50:48.40</time>
      </trkpt>
      <trkpt lat="49.51349" lon="1.8498">
        <ele>192.4</ele>
        <time>2014-06-08T10:50:55.38</time>
      </trkpt>
      <trkpt lat="49.51341" lon="1.84977">
        <ele>192.6</ele>
        <time>2014-06-08T10:51:02.38</time>
      </trkpt>
      <trkpt lat="49.51334" lon="1.84975">
        <ele>193</ele>
        <time>2014-06-08T10:51:09.38</time>
      </trkpt>
      <trkpt lat="49.51327" lon="1.84972">
        <ele>193.2</ele>
        <time>2014-06-08T10:51:14.38</time>
      </trkpt>
      <trkpt lat="49.51319" lon="1.8497">
        <ele>193.4</ele>
        <time>2014-06-08T10:51:20.38</time>
      </trkpt>
      <trkpt lat="49.51311" lon="1.8497">
        <ele>193.6</ele>
        <time>2014-06-08T10:51:27.39</time>
      </trkpt>
      <trkpt lat="49.51306" lon="1.84971">
        <ele>193.7</ele>
        <time>2014-06-08T10:51:34.39</time>
      </trkpt>
      <trkpt lat="49.513" lon="1.84967">
        <ele>193.9</ele>
        <time>2014-06-08T10:51:41.39</time>
      </trkpt>
      <trkpt lat="49.51294" lon="1.84964">
        <ele>194</ele>
        <time>2014-06-08T10:51:48.41</time>
      </trkpt>
      <trkpt lat="49.51286" lon="1.84962">
        <ele>193.9</ele>
        <time>2014-06-08T10:51:55.39</time>
      </trkpt>
      <trkpt lat="49.51279" lon="1.84961">
        <ele>194.1</ele>
        <time>2014-06-08T10:52:02.39</time>
      </trkpt>
      <trkpt lat="49.51271" lon="1.84958">
        <ele>194.2</ele>
        <time>2014-06-08T10:52:08.39</time>
      </trkpt>
      <trkpt lat="49.51265" lon="1.84953">
        <ele>194.2</ele>
        <time>2014-06-08T10:52:15.39</time>
      </trkpt>
      <trkpt lat="49.51259" lon="1.84948">
        <ele>194.2</ele>
        <time>2014-06-08T10:52:21.39</time>
      </trkpt>
      <trkpt lat="49.51251" lon="1.84944">
        <ele>194.2</ele>
        <time>2014-06-08T10:52:28.39</time>
      </trkpt>
      <trkpt lat="49.51243" lon="1.84942">
        <ele>194.2</ele>
        <time>2014-06-08T10:52:34.39</time>
      </trkpt>
      <trkpt lat="49.51235" lon="1.84941">
        <ele>194.2</ele>
        <time>2014-06-08T10:52:39.39</time>
      </trkpt>
      <trkpt lat="49.51228" lon="1.84938">
        <ele>194</ele>
        <time>2014-06-08T10:52:46.39</time>
      </trkpt>
      <trkpt lat="49.51222" lon="1.84935">
        <ele>193.8</ele>
        <time>2014-06-08T10:52:53.39</time>
      </trkpt>
      <trkpt lat="49.51215" lon="1.84931">
        <ele>193.8</ele>
        <time>2014-06-08T10:53:00.39</time>
      </trkpt>
      <trkpt lat="49.51208" lon="1.84927">
        <ele>193.9</ele>
        <time>2014-06-08T10:53:07.39</time>
      </trkpt>
      <trkpt lat="49.51202" lon="1.84924">
        <ele>194</ele>
        <time>2014-06-08T10:53:13.39</time>
      </trkpt>
      <trkpt lat="49.51197" lon="1.84923">
        <ele>194.1</ele>
        <time>2014-06-08T10:53:20.39</time>
      </trkpt>
      <trkpt lat="49.51189" lon="1.84921">
        <ele>193.7</ele>
        <time>2014-06-08T10:53:26.39</time>
      </trkpt>
      <trkpt lat="49.51182" lon="1.84917">
        <ele>193.5</ele>
        <time>2014-06-08T10:53:32.39</time>
      </trkpt>
      <trkpt lat="49.51176" lon="1.84912">
        <ele>193.1</ele>
        <time>2014-06-08T10:53:39.39</time>
      </trkpt>
      <trkpt lat="49.5117" lon="1.84904">
        <ele>192.7</ele>
        <time>2014-06-08T10:53:46.39</time>
      </trkpt>
      <trkpt lat="49.51167" lon="1.84897">
        <ele>192.4</ele>
        <time>2014-06-08T10:53:53.39</time>
      </trkpt>
      <trkpt lat="49.51166" lon="1.84889">
        <ele>192.2</ele>
        <time>2014-06-08T10:54:00.41</time>
      </trkpt>
      <trkpt lat="49.51164" lon="1.84881">
        <ele>192</ele>
        <time>2014-06-08T10:54:07.39</time>
      </trkpt>
      <trkpt lat="49.51166" lon="1.84873">
        <ele>191.6</ele>
        <time>2014-06-08T10:54:14.39</time>
      </trkpt>
      <trkpt lat="49.51165" lon="1.84864">
        <ele>191.4</ele>
        <time>2014-06-08T10:54:21.39</time>
      </trkpt>
      <trkpt lat="49.51165" lon="1.84855">
        <ele>191</ele>
        <time>2014-06-08T10:54:28.39</time>
      </trkpt>
      <trkpt lat="49.51166" lon="1.84845">
        <ele>190.8</ele>
        <time>2014-06-08T10:54:35.39</time>
      </trkpt>
      <trkpt lat="49.51166" lon="1.84834">
        <ele>190.8</ele>
        <time>2014-06-08T10:54:42.43</time>
      </trkpt>
      <trkpt lat="49.51164" lon="1.84823">
        <ele>190.7</ele>
        <time>2014-06-08T10:54:49.39</time>
      </trkpt>
      <trkpt lat="49.51163" lon="1.84811">
        <ele>190.7</ele>
        <time>2014-06-08T10:54:56.39</time>
      </trkpt>
      <trkpt lat="49.51162" lon="1.848">
        <ele>190.3</ele>
        <time>2014-06-08T10:55:02.39</time>
      </trkpt>
      <trkpt lat="49.5116" lon="1.84788">
        <ele>189.9</ele>
        <time>2014-06-08T10:55:06.39</time>
      </trkpt>
      <trkpt lat="49.51157" lon="1.84778">
        <ele>189.5</ele>
        <time>2014-06-08T10:55:12.46</time>
      </trkpt>
      <trkpt lat="49.51155" lon="1.84767">
        <ele>189.2</ele>
        <time>2014-06-08T10:55:18.39</time>
      </trkpt>
      <trkpt lat="49.51155" lon="1.84757">
        <ele>188.6</ele>
        <time>2014-06-08T10:55:25.39</time>
      </trkpt>
      <trkpt lat="49.51154" lon="1.84745">
        <ele>188</ele>
        <time>2014-06-08T10:55:31.39</time>
      </trkpt>
      <trkpt lat="49.51153" lon="1.84734">
        <ele>187.7</ele>
        <time>2014-06-08T10:55:36.39</time>
      </trkpt>
      <trkpt lat="49.51155" lon="1.84725">
        <ele>187.4</ele>
        <time>2014-06-08T10:55:43.39</time>
      </trkpt>
      <trkpt lat="49.51156" lon="1.84714">
        <ele>187</ele>
        <time>2014-06-08T10:55:50.39</time>
      </trkpt>
      <trkpt lat="49.51159" lon="1.84704">
        <ele>186.5</ele>
        <time>2014-06-08T10:55:56.39</time>
      </trkpt>
      <trkpt lat="49.5116" lon="1.84692">
        <ele>186.1</ele>
        <time>2014-06-08T10:56:03.39</time>
      </trkpt>
      <trkpt lat="49.5116" lon="1.8468">
        <ele>185.9</ele>
        <time>2014-06-08T10:56:10.39</time>
      </trkpt>
      <trkpt lat="49.51158" lon="1.84669">
        <ele>185.9</ele>
        <time>2014-06-08T10:56:17.39</time>
      </trkpt>
      <trkpt lat="49.51155" lon="1.84658">
        <ele>185.5</ele>
        <time>2014-06-08T10:56:24.39</time>
      </trkpt>
      <trkpt lat="49.51151" lon="1.84648">
        <ele>185.2</ele>
        <time>2014-06-08T10:56:31.39</time>
      </trkpt>
      <trkpt lat="49.51145" lon="1.84638">
        <ele>185.1</ele>
        <time>2014-06-08T10:56:36.39</time>
      </trkpt>
      <trkpt lat="49.51141" lon="1.84628">
        <ele>184.5</ele>
        <time>2014-06-08T10:56:43.38</time>
      </trkpt>
      <trkpt lat="49.51136" lon="1.8462">
        <ele>183.9</ele>
        <time>2014-06-08T10:56:50.39</time>
      </trkpt>
      <trkpt lat="49.5113" lon="1.84611">
        <ele>183.3</ele>
        <time>2014-06-08T10:56:57.39</time>
      </trkpt>
      <trkpt lat="49.51127" lon="1.84601">
        <ele>182.9</ele>
        <time>2014-06-08T10:57:03.39</time>
      </trkpt>
      <trkpt lat="49.51122" lon="1.8459">
        <ele>182.7</ele>
        <time>2014-06-08T10:57:09.39</time>
      </trkpt>
      <trkpt lat="49.51117" lon="1.84582">
        <ele>182.4</ele>
        <time>2014-06-08T10:57:15.39</time>
      </trkpt>
      <trkpt lat="49.51114" lon="1.84572">
        <ele>182.1</ele>
        <time>2014-06-08T10:57:22.39</time>
      </trkpt>
      <trkpt lat="49.5111" lon="1.84564">
        <ele>181.9</ele>
        <time>2014-06-08T10:57:29.39</time>
      </trkpt>
      <trkpt lat="49.51106" lon="1.84553">
        <ele>182.1</ele>
        <time>2014-06-08T10:57:35.39</time>
      </trkpt>
      <trkpt lat="49.51104" lon="1.84542">
        <ele>182.1</ele>
        <time>2014-06-08T10:57:41.39</time>
      </trkpt>
      <trkpt lat="49.511" lon="1.84533">
        <ele>182.2</ele>
        <time>2014-06-08T10:57:48.41</time>
      </trkpt>
      <trkpt lat="49.51099" lon="1.84521">
        <ele>182.5</ele>
        <time>2014-06-08T10:57:55.39</time>
      </trkpt>
      <trkpt lat="49.51097" lon="1.8451">
        <ele>182.7</ele>
        <time>2014-06-08T10:58:02.39</time>
      </trkpt>
      <trkpt lat="49.51096" lon="1.84498">
        <ele>182.7</ele>
        <time>2014-06-08T10:58:09.39</time>
      </trkpt>
      <trkpt lat="49.51095" lon="1.84487">
        <ele>182.6</ele>
        <time>2014-06-08T10:58:15.39</time>
      </trkpt>
      <trkpt lat="49.51096" lon="1.84476">
        <ele>182.6</ele>
        <time>2014-06-08T10:58:21.39</time>
      </trkpt>
      <trkpt lat="49.51096" lon="1.84464">
        <ele>182.5</ele>
        <time>2014-06-08T10:58:28.39</time>
      </trkpt>
      <trkpt lat="49.51095" lon="1.84453">
        <ele>182.2</ele>
        <time>2014-06-08T10:58:35.38</time>
      </trkpt>
      <trkpt lat="49.51093" lon="1.84442">
        <ele>182.1</ele>
        <time>2014-06-08T10:58:41.39</time>
      </trkpt>
      <trkpt lat="49.51091" lon="1.84431">
        <ele>182.1</ele>
        <time>2014-06-08T10:58:47.38</time>
      </trkpt>
      <trkpt lat="49.51088" lon="1.8442">
        <ele>181.9</ele>
        <time>2014-06-08T10:58:54.39</time>
      </trkpt>
      <trkpt lat="49.51087" lon="1.84409">
        <ele>182.3</ele>
        <time>2014-06-08T10:59:00.39</time>
      </trkpt>
      <trkpt lat="49.51087" lon="1.84397">
        <ele>182.8</ele>
        <time>2014-06-08T10:59:07.38</time>
      </trkpt>
      <trkpt lat="49.51089" lon="1.84388">
        <ele>183.1</ele>
        <time>2014-06-08T10:59:14.39</time>
      </trkpt>
      <trkpt lat="49.51093" lon="1.84376">
        <ele>183.2</ele>
        <time>2014-06-08T10:59:20.39</time>
      </trkpt>
      <trkpt lat="49.51096" lon="1.84365">
        <ele>183.3</ele>
        <time>2014-06-08T10:59:27.38</time>
      </trkpt>
      <trkpt lat="49.51097" lon="1.84353">
        <ele>183.4</ele>
        <time>2014-06-08T10:59:34.38</time>
      </trkpt>
      <trkpt lat="49.511" lon="1.84342">
        <ele>183.3</ele>
        <time>2014-06-08T10:59:41.38</time>
      </trkpt>
      <trkpt lat="49.51104" lon="1.84331">
        <ele>183.3</ele>
        <time>2014-06-08T10:59:48.39</time>
      </trkpt>
      <trkpt lat="49.51105" lon="1.84322">
        <ele>183.3</ele>
        <time>2014-06-08T10:59:55.38</time>
      </trkpt>
      <trkpt lat="49.51105" lon="1.84319">
        <ele>183.3</ele>
        <time>2014-06-08T11:00:02.39</time>
      </trkpt>
      <trkpt lat="49.51097" lon="1.84317">
        <ele>183.7</ele>
        <time>2014-06-08T11:00:03.42</time>
      </trkpt>
      <trkpt lat="49.51094" lon="1.84316">
        <ele>183.7</ele>
        <time>2014-06-08T11:00:10.35</time>
      </trkpt>
      <trkpt lat="49.51088" lon="1.84313">
        <ele>184</ele>
        <time>2014-06-08T11:00:14.36</time>
      </trkpt>
      <trkpt lat="49.5108" lon="1.84312">
        <ele>184.2</ele>
        <time>2014-06-08T11:00:21.35</time>
      </trkpt>
      <trkpt lat="49.51074" lon="1.84311">
        <ele>184.3</ele>
        <time>2014-06-08T11:00:28.35</time>
      </trkpt>
      <trkpt lat="49.51068" lon="1.84308">
        <ele>184.4</ele>
        <time>2014-06-08T11:00:35.35</time>
      </trkpt>
      <trkpt lat="49.51061" lon="1.84305">
        <ele>184.8</ele>
        <time>2014-06-08T11:00:42.35</time>
      </trkpt>
      <trkpt lat="49.51054" lon="1.84298">
        <ele>185.5</ele>
        <time>2014-06-08T11:00:48.35</time>
      </trkpt>
      <trkpt lat="49.51047" lon="1.84297">
        <ele>185.9</ele>
        <time>2014-06-08T11:00:55.35</time>
      </trkpt>
      <trkpt lat="49.5104" lon="1.84296">
        <ele>186.4</ele>
        <time>2014-06-08T11:01:02.35</time>
      </trkpt>
      <trkpt lat="49.51033" lon="1.84293">
        <ele>186.8</ele>
        <time>2014-06-08T11:01:09.35</time>
      </trkpt>
      <trkpt lat="49.51025" lon="1.84293">
        <ele>187.3</ele>
        <time>2014-06-08T11:01:16.35</time>
      </trkpt>
      <trkpt lat="49.51019" lon="1.8429">
        <ele>187.5</ele>
        <time>2014-06-08T11:01:23.35</time>
      </trkpt>
      <trkpt lat="49.51013" lon="1.84289">
        <ele>187.8</ele>
        <time>2014-06-08T11:01:30.35</time>
      </trkpt>
      <trkpt lat="49.51005" lon="1.8429">
        <ele>188.5</ele>
        <time>2014-06-08T11:01:36.35</time>
      </trkpt>
      <trkpt lat="49.50998" lon="1.8429">
        <ele>188.8</ele>
        <time>2014-06-08T11:01:43.35</time>
      </trkpt>
      <trkpt lat="49.5099" lon="1.84286">
        <ele>188.9</ele>
        <time>2014-06-08T11:01:49.35</time>
      </trkpt>
      <trkpt lat="49.50982" lon="1.84283">
        <ele>189.1</ele>
        <time>2014-06-08T11:01:55.35</time>
      </trkpt>
      <trkpt lat="49.50974" lon="1.84283">
        <ele>189.6</ele>
        <time>2014-06-08T11:02:02.35</time>
      </trkpt>
      <trkpt lat="49.50965" lon="1.84281">
        <ele>189.9</ele>
        <time>2014-06-08T11:02:08.35</time>
      </trkpt>
      <trkpt lat="49.50958" lon="1.84279">
        <ele>190</ele>
        <time>2014-06-08T11:02:15.35</time>
      </trkpt>
      <trkpt lat="49.5095" lon="1.84277">
        <ele>189.9</ele>
        <time>2014-06-08T11:02:21.35</time>
      </trkpt>
      <trkpt lat="49.50942" lon="1.84275">
        <ele>190.1</ele>
        <time>2014-06-08T11:02:26.35</time>
      </trkpt>
      <trkpt lat="49.50934" lon="1.84272">
        <ele>190.1</ele>
        <time>2014-06-08T11:02:31.35</time>
      </trkpt>
      <trkpt lat="49.50927" lon="1.84271">
        <ele>190.1</ele>
        <time>2014-06-08T11:02:38.35</time>
      </trkpt>
      <trkpt lat="49.5092" lon="1.8427">
        <ele>190.2</ele>
        <time>2014-06-08T11:02:43.37</time>
      </trkpt>
      <trkpt lat="49.50911" lon="1.84267">
        <ele>190.6</ele>
        <time>2014-06-08T11:02:49.35</time>
      </trkpt>
      <trkpt lat="49.50903" lon="1.84266">
        <ele>190.5</ele>
        <time>2014-06-08T11:02:53.35</time>
      </trkpt>
      <trkpt lat="49.50895" lon="1.84262">
        <ele>190.8</ele>
        <time>2014-06-08T11:02:58.35</time>
      </trkpt>
      <trkpt lat="49.50888" lon="1.84255">
        <ele>191</ele>
        <time>2014-06-08T11:03:03.35</time>
      </trkpt>
      <trkpt lat="49.50882" lon="1.84252">
        <ele>191.7</ele>
        <time>2014-06-08T11:03:08.35</time>
      </trkpt>
      <trkpt lat="49.50876" lon="1.8425">
        <ele>192.5</ele>
        <time>2014-06-08T11:03:15.35</time>
      </trkpt>
      <trkpt lat="49.50869" lon="1.84249">
        <ele>193</ele>
        <time>2014-06-08T11:03:22.35</time>
      </trkpt>
      <trkpt lat="49.5086" lon="1.84247">
        <ele>193.8</ele>
        <time>2014-06-08T11:03:29.35</time>
      </trkpt>
      <trkpt lat="49.50851" lon="1.84247">
        <ele>194.7</ele>
        <time>2014-06-08T11:03:36.35</time>
      </trkpt>
      <trkpt lat="49.50844" lon="1.84247">
        <ele>195.5</ele>
        <time>2014-06-08T11:03:43.35</time>
      </trkpt>
      <trkpt lat="49.50837" lon="1.84247">
        <ele>195.8</ele>
        <time>2014-06-08T11:03:50.35</time>
      </trkpt>
      <trkpt lat="49.50829" lon="1.84244">
        <ele>197.1</ele>
        <time>2014-06-08T11:03:56.35</time>
      </trkpt>
      <trkpt lat="49.50822" lon="1.84244">
        <ele>198.1</ele>
        <time>2014-06-08T11:04:02.35</time>
      </trkpt>
      <trkpt lat="49.50814" lon="1.84244">
        <ele>199.3</ele>
        <time>2014-06-08T11:04:09.35</time>
      </trkpt>
      <trkpt lat="49.50806" lon="1.84245">
        <ele>199.5</ele>
        <time>2014-06-08T11:04:15.35</time>
      </trkpt>
      <trkpt lat="49.50798" lon="1.84244">
        <ele>200.4</ele>
        <time>2014-06-08T11:04:22.35</time>
      </trkpt>
      <trkpt lat="49.5079" lon="1.84243">
        <ele>201.3</ele>
        <time>2014-06-08T11:04:28.35</time>
      </trkpt>
      <trkpt lat="49.50782" lon="1.84243">
        <ele>202.3</ele>
        <time>2014-06-08T11:04:34.35</time>
      </trkpt>
      <trkpt lat="49.50774" lon="1.8424">
        <ele>202.9</ele>
        <time>2014-06-08T11:04:39.35</time>
      </trkpt>
      <trkpt lat="49.50766" lon="1.8424">
        <ele>203.4</ele>
        <time>2014-06-08T11:04:45.35</time>
      </trkpt>
      <trkpt lat="49.50758" lon="1.84238">
        <ele>203.8</ele>
        <time>2014-06-08T11:04:52.35</time>
      </trkpt>
      <trkpt lat="49.50751" lon="1.84235">
        <ele>204.2</ele>
        <time>2014-06-08T11:04:58.35</time>
      </trkpt>
      <trkpt lat="49.50744" lon="1.84237">
        <ele>205.1</ele>
        <time>2014-06-08T11:05:05.37</time>
      </trkpt>
      <trkpt lat="49.50737" lon="1.84237">
        <ele>205.2</ele>
        <time>2014-06-08T11:05:12.35</time>
      </trkpt>
      <trkpt lat="49.50728" lon="1.84237">
        <ele>205.5</ele>
        <time>2014-06-08T11:05:18.35</time>
      </trkpt>
      <trkpt lat="49.50721" lon="1.84235">
        <ele>205.7</ele>
        <time>2014-06-08T11:05:23.35</time>
      </trkpt>
      <trkpt lat="49.50713" lon="1.84237">
        <ele>205.9</ele>
        <time>2014-06-08T11:05:30.35</time>
      </trkpt>
      <trkpt lat="49.50706" lon="1.84237">
        <ele>205.8</ele>
        <time>2014-06-08T11:05:37.35</time>
      </trkpt>
      <trkpt lat="49.50698" lon="1.84237">
        <ele>206</ele>
        <time>2014-06-08T11:05:43.35</time>
      </trkpt>
      <trkpt lat="49.5069" lon="1.84237">
        <ele>206.1</ele>
        <time>2014-06-08T11:05:50.35</time>
      </trkpt>
      <trkpt lat="49.50683" lon="1.84237">
        <ele>206.1</ele>
        <time>2014-06-08T11:05:57.35</time>
      </trkpt>
      <trkpt lat="49.50675" lon="1.84237">
        <ele>206</ele>
        <time>2014-06-08T11:06:04.35</time>
      </trkpt>
      <trkpt lat="49.50668" lon="1.84237">
        <ele>206</ele>
        <time>2014-06-08T11:06:11.35</time>
      </trkpt>
      <trkpt lat="49.5066" lon="1.84236">
        <ele>205.6</ele>
        <time>2014-06-08T11:06:18.35</time>
      </trkpt>
      <trkpt lat="49.50653" lon="1.84233">
        <ele>205.4</ele>
        <time>2014-06-08T11:06:25.35</time>
      </trkpt>
      <trkpt lat="49.50652" lon="1.84226">
        <ele>206</ele>
        <time>2014-06-08T11:06:32.35</time>
      </trkpt>
      <trkpt lat="49.50653" lon="1.84224">
        <ele>206.1</ele>
        <time>2014-06-08T11:06:39.37</time>
      </trkpt>
      <trkpt lat="49.50656" lon="1.84213">
        <ele>207.1</ele>
        <time>2014-06-08T11:06:46.35</time>
      </trkpt>
      <trkpt lat="49.50661" lon="1.84206">
        <ele>207.3</ele>
        <time>2014-06-08T11:06:53.35</time>
      </trkpt>
      <trkpt lat="49.50666" lon="1.84197">
        <ele>207.5</ele>
        <time>2014-06-08T11:07:00.35</time>
      </trkpt>
      <trkpt lat="49.50671" lon="1.84188">
        <ele>207.8</ele>
        <time>2014-06-08T11:07:07.35</time>
      </trkpt>
      <trkpt lat="49.50676" lon="1.84178">
        <ele>208</ele>
        <time>2014-06-08T11:07:14.35</time>
      </trkpt>
      <trkpt lat="49.50681" lon="1.84167">
        <ele>208.4</ele>
        <time>2014-06-08T11:07:21.35</time>
      </trkpt>
      <trkpt lat="49.50685" lon="1.84157">
        <ele>209.3</ele>
        <time>2014-06-08T11:07:28.35</time>
      </trkpt>
      <trkpt lat="49.5069" lon="1.84149">
        <ele>209.7</ele>
        <time>2014-06-08T11:07:34.35</time>
      </trkpt>
      <trkpt lat="49.50694" lon="1.84139">
        <ele>210.2</ele>
        <time>2014-06-08T11:07:41.35</time>
      </trkpt>
      <trkpt lat="49.50698" lon="1.8413">
        <ele>210.8</ele>
        <time>2014-06-08T11:07:48.35</time>
      </trkpt>
      <trkpt lat="49.50702" lon="1.84121">
        <ele>211.5</ele>
        <time>2014-06-08T11:07:55.35</time>
      </trkpt>
      <trkpt lat="49.50708" lon="1.84111">
        <ele>211.7</ele>
        <time>2014-06-08T11:08:02.35</time>
      </trkpt>
      <trkpt lat="49.50713" lon="1.84104">
        <ele>212.1</ele>
        <time>2014-06-08T11:08:09.36</time>
      </trkpt>
      <trkpt lat="49.50718" lon="1.84095">
        <ele>212.6</ele>
        <time>2014-06-08T11:08:15.35</time>
      </trkpt>
      <trkpt lat="49.50724" lon="1.84089">
        <ele>213</ele>
        <time>2014-06-08T11:08:21.35</time>
      </trkpt>
      <trkpt lat="49.50729" lon="1.8408">
        <ele>213.5</ele>
        <time>2014-06-08T11:08:28.35</time>
      </trkpt>
      <trkpt lat="49.50735" lon="1.84074">
        <ele>214.2</ele>
        <time>2014-06-08T11:08:34.35</time>
      </trkpt>
      <trkpt lat="49.50741" lon="1.84067">
        <ele>214.8</ele>
        <time>2014-06-08T11:08:40.35</time>
      </trkpt>
      <trkpt lat="49.50747" lon="1.84061">
        <ele>215.2</ele>
        <time>2014-06-08T11:08:46.35</time>
      </trkpt>
      <trkpt lat="49.50753" lon="1.84055">
        <ele>216.4</ele>
        <time>2014-06-08T11:08:53.35</time>
      </trkpt>
      <trkpt lat="49.50759" lon="1.84049">
        <ele>216.9</ele>
        <time>2014-06-08T11:08:59.35</time>
      </trkpt>
      <trkpt lat="49.50764" lon="1.84042">
        <ele>217.3</ele>
        <time>2014-06-08T11:09:06.35</time>
      </trkpt>
      <trkpt lat="49.50771" lon="1.84035">
        <ele>217.7</ele>
        <time>2014-06-08T11:09:13.35</time>
      </trkpt>
      <trkpt lat="49.50778" lon="1.84028">
        <ele>217.8</ele>
        <time>2014-06-08T11:09:19.35</time>
      </trkpt>
      <trkpt lat="49.50784" lon="1.84023">
        <ele>217.8</ele>
        <time>2014-06-08T11:09:24.40</time>
      </trkpt>
      <trkpt lat="49.50792" lon="1.84017">
        <ele>218.3</ele>
        <time>2014-06-08T11:09:31.35</time>
      </trkpt>
      <trkpt lat="49.50798" lon="1.84011">
        <ele>218.8</ele>
        <time>2014-06-08T11:09:38.35</time>
      </trkpt>
      <trkpt lat="49.50804" lon="1.84002">
        <ele>219.4</ele>
        <time>2014-06-08T11:09:44.35</time>
      </trkpt>
      <trkpt lat="49.5081" lon="1.83994">
        <ele>219.9</ele>
        <time>2014-06-08T11:09:51.35</time>
      </trkpt>
      <trkpt lat="49.50816" lon="1.83987">
        <ele>220.4</ele>
        <time>2014-06-08T11:09:57.35</time>
      </trkpt>
      <trkpt lat="49.50822" lon="1.83977">
        <ele>221.2</ele>
        <time>2014-06-08T11:10:04.35</time>
      </trkpt>
      <trkpt lat="49.50827" lon="1.83969">
        <ele>222.1</ele>
        <time>2014-06-08T11:10:11.35</time>
      </trkpt>
      <trkpt lat="49.50833" lon="1.8396">
        <ele>222.8</ele>
        <time>2014-06-08T11:10:18.35</time>
      </trkpt>
      <trkpt lat="49.50836" lon="1.83952">
        <ele>223.5</ele>
        <time>2014-06-08T11:10:25.35</time>
      </trkpt>
      <trkpt lat="49.50841" lon="1.83942">
        <ele>223.9</ele>
        <time>2014-06-08T11:10:31.35</time>
      </trkpt>
      <trkpt lat="49.50846" lon="1.83934">
        <ele>224.2</ele>
        <time>2014-06-08T11:10:38.35</time>
      </trkpt>
      <trkpt lat="49.50851" lon="1.83926">
        <ele>224.1</ele>
        <time>2014-06-08T11:10:44.35</time>
      </trkpt>
      <trkpt lat="49.50855" lon="1.83917">
        <ele>224.3</ele>
        <time>2014-06-08T11:10:50.35</time>
      </trkpt>
      <trkpt lat="49.50861" lon="1.83907">
        <ele>224.5</ele>
        <time>2014-06-08T11:10:56.35</time>
      </trkpt>
      <trkpt lat="49.50864" lon="1.83897">
        <ele>224.6</ele>
        <time>2014-06-08T11:11:03.35</time>
      </trkpt>
      <trkpt lat="49.50871" lon="1.83889">
        <ele>224.6</ele>
        <time>2014-06-08T11:11:10.35</time>
      </trkpt>
      <trkpt lat="49.50872" lon="1.83877">
        <ele>223.9</ele>
        <time>2014-06-08T11:11:17.35</time>
      </trkpt>
      <trkpt lat="49.50877" lon="1.83868">
        <ele>223.3</ele>
        <time>2014-06-08T11:11:24.35</time>
      </trkpt>
      <trkpt lat="49.50881" lon="1.83858">
        <ele>222.8</ele>
        <time>2014-06-08T11:11:30.35</time>
      </trkpt>
      <trkpt lat="49.50885" lon="1.83846">
        <ele>222.6</ele>
        <time>2014-06-08T11:11:37.35</time>
      </trkpt>
      <trkpt lat="49.50886" lon="1.83834">
        <ele>222.3</ele>
        <time>2014-06-08T11:11:44.35</time>
      </trkpt>
      <trkpt lat="49.50887" lon="1.83823">
        <ele>221.5</ele>
        <time>2014-06-08T11:11:50.35</time>
      </trkpt>
      <trkpt lat="49.5089" lon="1.83812">
        <ele>220.8</ele>
        <time>2014-06-08T11:11:57.35</time>
      </trkpt>
      <trkpt lat="49.50892" lon="1.838">
        <ele>219.8</ele>
        <time>2014-06-08T11:12:04.35</time>
      </trkpt>
      <trkpt lat="49.50892" lon="1.83787">
        <ele>219</ele>
        <time>2014-06-08T11:12:11.35</time>
      </trkpt>
      <trkpt lat="49.50889" lon="1.83778">
        <ele>217.4</ele>
        <time>2014-06-08T11:12:18.35</time>
      </trkpt>
      <trkpt lat="49.50889" lon="1.83778">
        <ele>216.9</ele>
        <time>2014-06-08T11:12:25.35</time>
      </trkpt>
      <trkpt lat="49.50891" lon="1.83768">
        <ele>215.2</ele>
        <time>2014-06-08T11:12:28.44</time>
      </trkpt>
      <trkpt lat="49.5089" lon="1.83766">
        <ele>215.1</ele>
        <time>2014-06-08T11:12:35.42</time>
      </trkpt>
      <trkpt lat="49.50891" lon="1.83751">
        <ele>213.8</ele>
        <time>2014-06-08T11:12:36.44</time>
      </trkpt>
      <trkpt lat="49.50892" lon="1.83747">
        <ele>213.2</ele>
        <time>2014-06-08T11:12:43.42</time>
      </trkpt>
      <trkpt lat="49.50894" lon="1.83738">
        <ele>212.8</ele>
        <time>2014-06-08T11:12:46.44</time>
      </trkpt>
      <trkpt lat="49.50896" lon="1.83726">
        <ele>212.7</ele>
        <time>2014-06-08T11:12:53.42</time>
      </trkpt>
      <trkpt lat="49.50895" lon="1.83715">
        <ele>212.4</ele>
        <time>2014-06-08T11:13:00.42</time>
      </trkpt>
      <trkpt lat="49.50899" lon="1.83705">
        <ele>212.1</ele>
        <time>2014-06-08T11:13:07.44</time>
      </trkpt>
      <trkpt lat="49.50903" lon="1.83694">
        <ele>212.1</ele>
        <time>2014-06-08T11:13:14.43</time>
      </trkpt>
      <trkpt lat="49.50906" lon="1.83683">
        <ele>212</ele>
        <time>2014-06-08T11:13:20.83</time>
      </trkpt>
      <trkpt lat="49.5091" lon="1.83674">
        <ele>211.9</ele>
        <time>2014-06-08T11:13:25.43</time>
      </trkpt>
      <trkpt lat="49.50913" lon="1.83664">
        <ele>212.1</ele>
        <time>2014-06-08T11:13:32.43</time>
      </trkpt>
      <trkpt lat="49.50918" lon="1.83654">
        <ele>212.7</ele>
        <time>2014-06-08T11:13:38.45</time>
      </trkpt>
      <trkpt lat="49.50925" lon="1.83648">
        <ele>213</ele>
        <time>2014-06-08T11:13:43.42</time>
      </trkpt>
      <trkpt lat="49.50927" lon="1.83636">
        <ele>213.2</ele>
        <time>2014-06-08T11:13:48.43</time>
      </trkpt>
      <trkpt lat="49.50931" lon="1.83626">
        <ele>212.7</ele>
        <time>2014-06-08T11:13:53.42</time>
      </trkpt>
      <trkpt lat="49.50934" lon="1.83616">
        <ele>212.4</ele>
        <time>2014-06-08T11:13:59.42</time>
      </trkpt>
      <trkpt lat="49.50939" lon="1.83607">
        <ele>212.4</ele>
        <time>2014-06-08T11:14:04.42</time>
      </trkpt>
      <trkpt lat="49.50945" lon="1.83598">
        <ele>212.6</ele>
        <time>2014-06-08T11:14:11.42</time>
      </trkpt>
      <trkpt lat="49.5095" lon="1.83588">
        <ele>212.9</ele>
        <time>2014-06-08T11:14:18.43</time>
      </trkpt>
      <trkpt lat="49.50954" lon="1.83578">
        <ele>212.9</ele>
        <time>2014-06-08T11:14:24.43</time>
      </trkpt>
      <trkpt lat="49.50959" lon="1.83568">
        <ele>213.1</ele>
        <time>2014-06-08T11:14:31.42</time>
      </trkpt>
      <trkpt lat="49.50965" lon="1.83558">
        <ele>213.2</ele>
        <time>2014-06-08T11:14:37.42</time>
      </trkpt>
      <trkpt lat="49.5097" lon="1.83548">
        <ele>213.3</ele>
        <time>2014-06-08T11:14:43.42</time>
      </trkpt>
      <trkpt lat="49.50977" lon="1.8354">
        <ele>213.3</ele>
        <time>2014-06-08T11:14:48.43</time>
      </trkpt>
      <trkpt lat="49.5098" lon="1.83529">
        <ele>212.9</ele>
        <time>2014-06-08T11:14:54.43</time>
      </trkpt>
      <trkpt lat="49.50984" lon="1.83519">
        <ele>212.5</ele>
        <time>2014-06-08T11:15:01.42</time>
      </trkpt>
      <trkpt lat="49.50987" lon="1.83509">
        <ele>212</ele>
        <time>2014-06-08T11:15:07.42</time>
      </trkpt>
      <trkpt lat="49.50992" lon="1.835">
        <ele>211.9</ele>
        <time>2014-06-08T11:15:14.43</time>
      </trkpt>
      <trkpt lat="49.50995" lon="1.83491">
        <ele>211.7</ele>
        <time>2014-06-08T11:15:21.43</time>
      </trkpt>
      <trkpt lat="49.50999" lon="1.83485">
        <ele>211.8</ele>
        <time>2014-06-08T11:15:28.42</time>
      </trkpt>
      <trkpt lat="49.51003" lon="1.83474">
        <ele>212.4</ele>
        <time>2014-06-08T11:15:35.42</time>
      </trkpt>
      <trkpt lat="49.51008" lon="1.83465">
        <ele>213.5</ele>
        <time>2014-06-08T11:15:42.43</time>
      </trkpt>
      <trkpt lat="49.51012" lon="1.83455">
        <ele>214.2</ele>
        <time>2014-06-08T11:15:49.42</time>
      </trkpt>
      <trkpt lat="49.51015" lon="1.83446">
        <ele>214.3</ele>
        <time>2014-06-08T11:15:56.42</time>
      </trkpt>
      <trkpt lat="49.51014" lon="1.83445">
        <ele>214.1</ele>
        <time>2014-06-08T11:16:03.42</time>
      </trkpt>
      <trkpt lat="49.51018" lon="1.83435">
        <ele>212.9</ele>
        <time>2014-06-08T11:16:04.45</time>
      </trkpt>
      <trkpt lat="49.51021" lon="1.83425">
        <ele>212.9</ele>
        <time>2014-06-08T11:16:11.43</time>
      </trkpt>
      <trkpt lat="49.51025" lon="1.83416">
        <ele>213.1</ele>
        <time>2014-06-08T11:16:17.42</time>
      </trkpt>
      <trkpt lat="49.51028" lon="1.83407">
        <ele>213.1</ele>
        <time>2014-06-08T11:16:24.43</time>
      </trkpt>
      <trkpt lat="49.51028" lon="1.83404">
        <ele>213</ele>
        <time>2014-06-08T11:16:31.43</time>
      </trkpt>
      <trkpt lat="49.51027" lon="1.83393">
        <ele>212.8</ele>
        <time>2014-06-08T11:16:33.45</time>
      </trkpt>
      <trkpt lat="49.51031" lon="1.83383">
        <ele>212.5</ele>
        <time>2014-06-08T11:16:40.42</time>
      </trkpt>
      <trkpt lat="49.51035" lon="1.83374">
        <ele>212.2</ele>
        <time>2014-06-08T11:16:47.42</time>
      </trkpt>
      <trkpt lat="49.51038" lon="1.83364">
        <ele>212.2</ele>
        <time>2014-06-08T11:16:54.43</time>
      </trkpt>
      <trkpt lat="49.51041" lon="1.83354">
        <ele>212.1</ele>
        <time>2014-06-08T11:17:00.43</time>
      </trkpt>
      <trkpt lat="49.51044" lon="1.83343">
        <ele>211.8</ele>
        <time>2014-06-08T11:17:06.43</time>
      </trkpt>
      <trkpt lat="49.51046" lon="1.83333">
        <ele>211.3</ele>
        <time>2014-06-08T11:17:13.43</time>
      </trkpt>
      <trkpt lat="49.51048" lon="1.83321">
        <ele>210.7</ele>
        <time>2014-06-08T11:17:20.42</time>
      </trkpt>
      <trkpt lat="49.51052" lon="1.83311">
        <ele>210.3</ele>
        <time>2014-06-08T11:17:26.43</time>
      </trkpt>
      <trkpt lat="49.51055" lon="1.83302">
        <ele>209.9</ele>
        <time>2014-06-08T11:17:32.43</time>
      </trkpt>
      <trkpt lat="49.5106" lon="1.83291">
        <ele>209.5</ele>
        <time>2014-06-08T11:17:38.42</time>
      </trkpt>
      <trkpt lat="49.51062" lon="1.8328">
        <ele>209.1</ele>
        <time>2014-06-08T11:17:44.43</time>
      </trkpt>
      <trkpt lat="49.51066" lon="1.83269">
        <ele>208.3</ele>
        <time>2014-06-08T11:17:51.43</time>
      </trkpt>
      <trkpt lat="49.51071" lon="1.8326">
        <ele>207.7</ele>
        <time>2014-06-08T11:17:57.43</time>
      </trkpt>
      <trkpt lat="49.51073" lon="1.83249">
        <ele>207.3</ele>
        <time>2014-06-08T11:18:03.43</time>
      </trkpt>
      <trkpt lat="49.51075" lon="1.83237">
        <ele>206.9</ele>
        <time>2014-06-08T11:18:09.43</time>
      </trkpt>
      <trkpt lat="49.51079" lon="1.83229">
        <ele>206.2</ele>
        <time>2014-06-08T11:18:15.43</time>
      </trkpt>
      <trkpt lat="49.51081" lon="1.83217">
        <ele>205.5</ele>
        <time>2014-06-08T11:18:21.43</time>
      </trkpt>
      <trkpt lat="49.51084" lon="1.83208">
        <ele>204.8</ele>
        <time>2014-06-08T11:18:28.42</time>
      </trkpt>
      <trkpt lat="49.51087" lon="1.83198">
        <ele>204.3</ele>
        <time>2014-06-08T11:18:34.50</time>
      </trkpt>
      <trkpt lat="49.5109" lon="1.83185">
        <ele>202.8</ele>
        <time>2014-06-08T11:18:41.42</time>
      </trkpt>
      <trkpt lat="49.51093" lon="1.83174">
        <ele>202</ele>
        <time>2014-06-08T11:18:48.42</time>
      </trkpt>
      <trkpt lat="49.51097" lon="1.83165">
        <ele>201.7</ele>
        <time>2014-06-08T11:18:55.43</time>
      </trkpt>
      <trkpt lat="49.511" lon="1.83155">
        <ele>201.3</ele>
        <time>2014-06-08T11:19:01.43</time>
      </trkpt>
      <trkpt lat="49.51105" lon="1.83146">
        <ele>200.6</ele>
        <time>2014-06-08T11:19:07.45</time>
      </trkpt>
      <trkpt lat="49.51109" lon="1.83135">
        <ele>200.2</ele>
        <time>2014-06-08T11:19:14.42</time>
      </trkpt>
      <trkpt lat="49.51111" lon="1.83124">
        <ele>200.1</ele>
        <time>2014-06-08T11:19:20.42</time>
      </trkpt>
      <trkpt lat="49.51115" lon="1.83114">
        <ele>199.6</ele>
        <time>2014-06-08T11:19:26.42</time>
      </trkpt>
      <trkpt lat="49.51119" lon="1.83104">
        <ele>199.4</ele>
        <time>2014-06-08T11:19:33.43</time>
      </trkpt>
      <trkpt lat="49.51122" lon="1.83094">
        <ele>199.2</ele>
        <time>2014-06-08T11:19:39.43</time>
      </trkpt>
      <trkpt lat="49.51126" lon="1.83084">
        <ele>199</ele>
        <time>2014-06-08T11:19:45.43</time>
      </trkpt>
      <trkpt lat="49.51128" lon="1.83074">
        <ele>198.6</ele>
        <time>2014-06-08T11:19:52.42</time>
      </trkpt>
      <trkpt lat="49.51131" lon="1.83064">
        <ele>198.4</ele>
        <time>2014-06-08T11:19:58.42</time>
      </trkpt>
      <trkpt lat="49.51134" lon="1.83052">
        <ele>198.4</ele>
        <time>2014-06-08T11:20:04.42</time>
      </trkpt>
      <trkpt lat="49.51136" lon="1.83042">
        <ele>198.3</ele>
        <time>2014-06-08T11:20:10.42</time>
      </trkpt>
      <trkpt lat="49.51138" lon="1.8303">
        <ele>198.4</ele>
        <time>2014-06-08T11:20:16.42</time>
      </trkpt>
      <trkpt lat="49.51142" lon="1.8302">
        <ele>198.7</ele>
        <time>2014-06-08T11:20:23.42</time>
      </trkpt>
      <trkpt lat="49.51145" lon="1.83009">
        <ele>199</ele>
        <time>2014-06-08T11:20:30.42</time>
      </trkpt>
      <trkpt lat="49.51148" lon="1.82998">
        <ele>199.5</ele>
        <time>2014-06-08T11:20:36.42</time>
      </trkpt>
      <trkpt lat="49.5115" lon="1.82986">
        <ele>199.4</ele>
        <time>2014-06-08T11:20:43.43</time>
      </trkpt>
      <trkpt lat="49.51152" lon="1.82974">
        <ele>199.1</ele>
        <time>2014-06-08T11:20:49.43</time>
      </trkpt>
      <trkpt lat="49.51154" lon="1.82962">
        <ele>199.2</ele>
        <time>2014-06-08T11:20:56.42</time>
      </trkpt>
      <trkpt lat="49.51158" lon="1.82953">
        <ele>199.3</ele>
        <time>2014-06-08T11:21:03.43</time>
      </trkpt>
      <trkpt lat="49.51162" lon="1.82943">
        <ele>199.5</ele>
        <time>2014-06-08T11:21:10.42</time>
      </trkpt>
      <trkpt lat="49.51169" lon="1.82934">
        <ele>199.4</ele>
        <time>2014-06-08T11:21:16.45</time>
      </trkpt>
      <trkpt lat="49.51172" lon="1.82925">
        <ele>198.9</ele>
        <time>2014-06-08T11:21:23.42</time>
      </trkpt>
      <trkpt lat="49.51175" lon="1.82914">
        <ele>199</ele>
        <time>2014-06-08T11:21:30.42</time>
      </trkpt>
      <trkpt lat="49.51177" lon="1.82903">
        <ele>198.9</ele>
        <time>2014-06-08T11:21:36.42</time>
      </trkpt>
      <trkpt lat="49.51182" lon="1.82894">
        <ele>198.3</ele>
        <time>2014-06-08T11:21:42.42</time>
      </trkpt>
      <trkpt lat="49.51184" lon="1.82882">
        <ele>198.1</ele>
        <time>2014-06-08T11:21:47.42</time>
      </trkpt>
      <trkpt lat="49.51189" lon="1.82872">
        <ele>197.4</ele>
        <time>2014-06-08T11:21:53.42</time>
      </trkpt>
      <trkpt lat="49.51194" lon="1.82863">
        <ele>196.8</ele>
        <time>2014-06-08T11:21:59.42</time>
      </trkpt>
      <trkpt lat="49.51197" lon="1.82852">
        <ele>196.2</ele>
        <time>2014-06-08T11:22:05.42</time>
      </trkpt>
      <trkpt lat="49.512" lon="1.82843">
        <ele>195.4</ele>
        <time>2014-06-08T11:22:11.42</time>
      </trkpt>
      <trkpt lat="49.51202" lon="1.8283">
        <ele>194.9</ele>
        <time>2014-06-08T11:22:17.42</time>
      </trkpt>
      <trkpt lat="49.51205" lon="1.82819">
        <ele>194.7</ele>
        <time>2014-06-08T11:22:22.42</time>
      </trkpt>
      <trkpt lat="49.51208" lon="1.82808">
        <ele>194.8</ele>
        <time>2014-06-08T11:22:27.42</time>
      </trkpt>
      <trkpt lat="49.5121" lon="1.82797">
        <ele>195.3</ele>
        <time>2014-06-08T11:22:33.43</time>
      </trkpt>
      <trkpt lat="49.51213" lon="1.82785">
        <ele>195.7</ele>
        <time>2014-06-08T11:22:39.43</time>
      </trkpt>
      <trkpt lat="49.51216" lon="1.82773">
        <ele>195.9</ele>
        <time>2014-06-08T11:22:45.42</time>
      </trkpt>
      <trkpt lat="49.5122" lon="1.82761">
        <ele>196.3</ele>
        <time>2014-06-08T11:22:51.42</time>
      </trkpt>
      <trkpt lat="49.51223" lon="1.82751">
        <ele>196.1</ele>
        <time>2014-06-08T11:22:56.42</time>
      </trkpt>
      <trkpt lat="49.51226" lon="1.82739">
        <ele>196.4</ele>
        <time>2014-06-08T11:23:03.42</time>
      </trkpt>
      <trkpt lat="49.51227" lon="1.82728">
        <ele>196.5</ele>
        <time>2014-06-08T11:23:09.42</time>
      </trkpt>
      <trkpt lat="49.51231" lon="1.82717">
        <ele>196.8</ele>
        <time>2014-06-08T11:23:16.42</time>
      </trkpt>
      <trkpt lat="49.51233" lon="1.82705">
        <ele>196.9</ele>
        <time>2014-06-08T11:23:22.45</time>
      </trkpt>
      <trkpt lat="49.51235" lon="1.82693">
        <ele>196.7</ele>
        <time>2014-06-08T11:23:27.43</time>
      </trkpt>
      <trkpt lat="49.51236" lon="1.82681">
        <ele>196.2</ele>
        <time>2014-06-08T11:23:34.43</time>
      </trkpt>
      <trkpt lat="49.51237" lon="1.8267">
        <ele>195.6</ele>
        <time>2014-06-08T11:23:41.42</time>
      </trkpt>
      <trkpt lat="49.51239" lon="1.82658">
        <ele>194.4</ele>
        <time>2014-06-08T11:23:47.42</time>
      </trkpt>
      <trkpt lat="49.5124" lon="1.82651">
        <ele>194.1</ele>
        <time>2014-06-08T11:23:54.42</time>
      </trkpt>
      <trkpt lat="49.51239" lon="1.82645">
        <ele>193.8</ele>
        <time>2014-06-08T11:23:58.46</time>
      </trkpt>
      <trkpt lat="49.51241" lon="1.82633">
        <ele>193.6</ele>
        <time>2014-06-08T11:24:01.43</time>
      </trkpt>
      <trkpt lat="49.51244" lon="1.82621">
        <ele>193.9</ele>
        <time>2014-06-08T11:24:08.42</time>
      </trkpt>
      <trkpt lat="49.51245" lon="1.82611">
        <ele>193.8</ele>
        <time>2014-06-08T11:24:14.42</time>
      </trkpt>
      <trkpt lat="49.51247" lon="1.82599">
        <ele>193.7</ele>
        <time>2014-06-08T11:24:21.42</time>
      </trkpt>
      <trkpt lat="49.5125" lon="1.82588">
        <ele>193.4</ele>
        <time>2014-06-08T11:24:27.42</time>
      </trkpt>
      <trkpt lat="49.51251" lon="1.82576">
        <ele>193.3</ele>
        <time>2014-06-08T11:24:34.42</time>
      </trkpt>
      <trkpt lat="49.51252" lon="1.82565">
        <ele>193.5</ele>
        <time>2014-06-08T11:24:40.42</time>
      </trkpt>
      <trkpt lat="49.51255" lon="1.82553">
        <ele>193.5</ele>
        <time>2014-06-08T11:24:47.42</time>
      </trkpt>
      <trkpt lat="49.51257" lon="1.82542">
        <ele>193.1</ele>
        <time>2014-06-08T11:24:53.42</time>
      </trkpt>
      <trkpt lat="49.51259" lon="1.82531">
        <ele>193</ele>
        <time>2014-06-08T11:24:59.42</time>
      </trkpt>
      <trkpt lat="49.51263" lon="1.82518">
        <ele>193.1</ele>
        <time>2014-06-08T11:25:06.42</time>
      </trkpt>
      <trkpt lat="49.51266" lon="1.82509">
        <ele>193.3</ele>
        <time>2014-06-08T11:25:12.42</time>
      </trkpt>
      <trkpt lat="49.51267" lon="1.82498">
        <ele>193.4</ele>
        <time>2014-06-08T11:25:18.42</time>
      </trkpt>
      <trkpt lat="49.5127" lon="1.82487">
        <ele>193.4</ele>
        <time>2014-06-08T11:25:24.42</time>
      </trkpt>
      <trkpt lat="49.51272" lon="1.82474">
        <ele>193.4</ele>
        <time>2014-06-08T11:25:31.42</time>
      </trkpt>
      <trkpt lat="49.51273" lon="1.82462">
        <ele>193.2</ele>
        <time>2014-06-08T11:25:37.43</time>
      </trkpt>
      <trkpt lat="49.51276" lon="1.82453">
        <ele>192.8</ele>
        <time>2014-06-08T11:25:44.42</time>
      </trkpt>
      <trkpt lat="49.5128" lon="1.82441">
        <ele>192.2</ele>
        <time>2014-06-08T11:25:51.42</time>
      </trkpt>
      <trkpt lat="49.51282" lon="1.82429">
        <ele>192.3</ele>
        <time>2014-06-08T11:25:58.42</time>
      </trkpt>
      <trkpt lat="49.51285" lon="1.82417">
        <ele>192.4</ele>
        <time>2014-06-08T11:26:04.42</time>
      </trkpt>
      <trkpt lat="49.51289" lon="1.82406">
        <ele>192.5</ele>
        <time>2014-06-08T11:26:11.42</time>
      </trkpt>
      <trkpt lat="49.51292" lon="1.82397">
        <ele>192.7</ele>
        <time>2014-06-08T11:26:18.42</time>
      </trkpt>
      <trkpt lat="49.51295" lon="1.82387">
        <ele>192.6</ele>
        <time>2014-06-08T11:26:24.42</time>
      </trkpt>
      <trkpt lat="49.51298" lon="1.82375">
        <ele>192.7</ele>
        <time>2014-06-08T11:26:30.42</time>
      </trkpt>
      <trkpt lat="49.51304" lon="1.82367">
        <ele>193</ele>
        <time>2014-06-08T11:26:36.42</time>
      </trkpt>
      <trkpt lat="49.51309" lon="1.82359">
        <ele>193.1</ele>
        <time>2014-06-08T11:26:42.42</time>
      </trkpt>
      <trkpt lat="49.51314" lon="1.8235">
        <ele>192.6</ele>
        <time>2014-06-08T11:26:48.42</time>
      </trkpt>
      <trkpt lat="49.51319" lon="1.8234">
        <ele>192.6</ele>
        <time>2014-06-08T11:26:54.42</time>
      </trkpt>
      <trkpt lat="49.51324" lon="1.82332">
        <ele>192.4</ele>
        <time>2014-06-08T11:27:00.42</time>
      </trkpt>
      <trkpt lat="49.51329" lon="1.82324">
        <ele>192.3</ele>
        <time>2014-06-08T11:27:05.42</time>
      </trkpt>
      <trkpt lat="49.51335" lon="1.82315">
        <ele>191.8</ele>
        <time>2014-06-08T11:27:12.42</time>
      </trkpt>
      <trkpt lat="49.51341" lon="1.82305">
        <ele>191.6</ele>
        <time>2014-06-08T11:27:19.42</time>
      </trkpt>
      <trkpt lat="49.51348" lon="1.82297">
        <ele>191.5</ele>
        <time>2014-06-08T11:27:24.42</time>
      </trkpt>
      <trkpt lat="49.5135" lon="1.82287">
        <ele>191.4</ele>
        <time>2014-06-08T11:27:29.42</time>
      </trkpt>
      <trkpt lat="49.51356" lon="1.82279">
        <ele>191.3</ele>
        <time>2014-06-08T11:27:36.42</time>
      </trkpt>
      <trkpt lat="49.51359" lon="1.8227">
        <ele>191.3</ele>
        <time>2014-06-08T11:27:42.42</time>
      </trkpt>
      <trkpt lat="49.51366" lon="1.82262">
        <ele>191.3</ele>
        <time>2014-06-08T11:27:48.42</time>
      </trkpt>
      <trkpt lat="49.51372" lon="1.82253">
        <ele>191.2</ele>
        <time>2014-06-08T11:27:54.42</time>
      </trkpt>
      <trkpt lat="49.51378" lon="1.82245">
        <ele>190.8</ele>
        <time>2014-06-08T11:28:00.42</time>
      </trkpt>
      <trkpt lat="49.51384" lon="1.82238">
        <ele>190.5</ele>
        <time>2014-06-08T11:28:07.42</time>
      </trkpt>
      <trkpt lat="49.51388" lon="1.82227">
        <ele>190.2</ele>
        <time>2014-06-08T11:28:14.42</time>
      </trkpt>
      <trkpt lat="49.51394" lon="1.8222">
        <ele>189.6</ele>
        <time>2014-06-08T11:28:20.42</time>
      </trkpt>
      <trkpt lat="49.51399" lon="1.8221">
        <ele>189</ele>
        <time>2014-06-08T11:28:27.43</time>
      </trkpt>
      <trkpt lat="49.51405" lon="1.822">
        <ele>188.7</ele>
        <time>2014-06-08T11:28:33.42</time>
      </trkpt>
      <trkpt lat="49.5141" lon="1.82192">
        <ele>188.6</ele>
        <time>2014-06-08T11:28:38.42</time>
      </trkpt>
      <trkpt lat="49.51414" lon="1.82182">
        <ele>188.1</ele>
        <time>2014-06-08T11:28:45.42</time>
      </trkpt>
      <trkpt lat="49.5142" lon="1.82173">
        <ele>187.9</ele>
        <time>2014-06-08T11:28:50.42</time>
      </trkpt>
      <trkpt lat="49.51427" lon="1.82166">
        <ele>187.8</ele>
        <time>2014-06-08T11:28:56.42</time>
      </trkpt>
      <trkpt lat="49.51435" lon="1.8216">
        <ele>187.6</ele>
        <time>2014-06-08T11:29:02.42</time>
      </trkpt>
      <trkpt lat="49.5144" lon="1.82153">
        <ele>187.4</ele>
        <time>2014-06-08T11:29:07.42</time>
      </trkpt>
      <trkpt lat="49.51446" lon="1.82146">
        <ele>186.9</ele>
        <time>2014-06-08T11:29:13.42</time>
      </trkpt>
      <trkpt lat="49.51453" lon="1.8214">
        <ele>186.3</ele>
        <time>2014-06-08T11:29:19.42</time>
      </trkpt>
      <trkpt lat="49.51459" lon="1.82132">
        <ele>186</ele>
        <time>2014-06-08T11:29:26.42</time>
      </trkpt>
      <trkpt lat="49.51465" lon="1.82126">
        <ele>185.8</ele>
        <time>2014-06-08T11:29:32.42</time>
      </trkpt>
      <trkpt lat="49.51471" lon="1.82118">
        <ele>185.8</ele>
        <time>2014-06-08T11:29:39.42</time>
      </trkpt>
      <trkpt lat="49.51477" lon="1.82111">
        <ele>186</ele>
        <time>2014-06-08T11:29:44.42</time>
      </trkpt>
      <trkpt lat="49.51484" lon="1.82105">
        <ele>185.9</ele>
        <time>2014-06-08T11:29:50.42</time>
      </trkpt>
      <trkpt lat="49.51487" lon="1.82101">
        <ele>186.2</ele>
        <time>2014-06-08T11:29:57.42</time>
      </trkpt>
      <trkpt lat="49.51492" lon="1.82098">
        <ele>186.6</ele>
        <time>2014-06-08T11:30:04.42</time>
      </trkpt>
      <trkpt lat="49.51494" lon="1.82098">
        <ele>186.5</ele>
        <time>2014-06-08T11:30:11.42</time>
      </trkpt>
      <trkpt lat="49.51501" lon="1.82092">
        <ele>187.2</ele>
        <time>2014-06-08T11:30:15.45</time>
      </trkpt>
      <trkpt lat="49.51508" lon="1.82085">
        <ele>186.9</ele>
        <time>2014-06-08T11:30:21.42</time>
      </trkpt>
      <trkpt lat="49.51513" lon="1.82077">
        <ele>187.1</ele>
        <time>2014-06-08T11:30:28.42</time>
      </trkpt>
      <trkpt lat="49.5152" lon="1.82071">
        <ele>187.2</ele>
        <time>2014-06-08T11:30:35.42</time>
      </trkpt>
      <trkpt lat="49.51526" lon="1.82066">
        <ele>187.8</ele>
        <time>2014-06-08T11:30:42.42</time>
      </trkpt>
      <trkpt lat="49.51533" lon="1.82059">
        <ele>188.2</ele>
        <time>2014-06-08T11:30:49.42</time>
      </trkpt>
      <trkpt lat="49.51539" lon="1.82053">
        <ele>188.7</ele>
        <time>2014-06-08T11:30:56.42</time>
      </trkpt>
      <trkpt lat="49.51546" lon="1.82046">
        <ele>189.1</ele>
        <time>2014-06-08T11:31:02.42</time>
      </trkpt>
      <trkpt lat="49.51552" lon="1.8204">
        <ele>189</ele>
        <time>2014-06-08T11:31:07.42</time>
      </trkpt>
      <trkpt lat="49.51559" lon="1.82035">
        <ele>189.1</ele>
        <time>2014-06-08T11:31:14.42</time>
      </trkpt>
      <trkpt lat="49.51566" lon="1.82029">
        <ele>189.5</ele>
        <time>2014-06-08T11:31:21.42</time>
      </trkpt>
      <trkpt lat="49.51572" lon="1.82023">
        <ele>189.9</ele>
        <time>2014-06-08T11:31:27.42</time>
      </trkpt>
      <trkpt lat="49.51577" lon="1.82016">
        <ele>190.6</ele>
        <time>2014-06-08T11:31:34.42</time>
      </trkpt>
      <trkpt lat="49.51585" lon="1.82011">
        <ele>191.2</ele>
        <time>2014-06-08T11:31:40.42</time>
      </trkpt>
      <trkpt lat="49.51592" lon="1.82008">
        <ele>191.9</ele>
        <time>2014-06-08T11:31:45.42</time>
      </trkpt>
      <trkpt lat="49.51599" lon="1.82005">
        <ele>192.6</ele>
        <time>2014-06-08T11:31:49.42</time>
      </trkpt>
      <trkpt lat="49.51606" lon="1.82001">
        <ele>193.4</ele>
        <time>2014-06-08T11:31:54.42</time>
      </trkpt>
      <trkpt lat="49.51612" lon="1.81992">
        <ele>194.2</ele>
        <time>2014-06-08T11:32:01.42</time>
      </trkpt>
      <trkpt lat="49.51618" lon="1.81984">
        <ele>195.2</ele>
        <time>2014-06-08T11:32:08.42</time>
      </trkpt>
      <trkpt lat="49.51623" lon="1.81977">
        <ele>195.6</ele>
        <time>2014-06-08T11:32:14.42</time>
      </trkpt>
      <trkpt lat="49.51629" lon="1.8197">
        <ele>196.2</ele>
        <time>2014-06-08T11:32:20.42</time>
      </trkpt>
      <trkpt lat="49.51636" lon="1.81963">
        <ele>196.7</ele>
        <time>2014-06-08T11:32:26.43</time>
      </trkpt>
      <trkpt lat="49.51642" lon="1.81956">
        <ele>197.2</ele>
        <time>2014-06-08T11:32:32.42</time>
      </trkpt>
      <trkpt lat="49.51648" lon="1.81949">
        <ele>197.9</ele>
        <time>2014-06-08T11:32:39.42</time>
      </trkpt>
      <trkpt lat="49.51653" lon="1.81941">
        <ele>198.3</ele>
        <time>2014-06-08T11:32:45.42</time>
      </trkpt>
      <trkpt lat="49.51658" lon="1.81932">
        <ele>198.6</ele>
        <time>2014-06-08T11:32:50.42</time>
      </trkpt>
      <trkpt lat="49.51664" lon="1.81925">
        <ele>199.3</ele>
        <time>2014-06-08T11:32:57.42</time>
      </trkpt>
      <trkpt lat="49.51671" lon="1.81919">
        <ele>199.9</ele>
        <time>2014-06-08T11:33:03.42</time>
      </trkpt>
      <trkpt lat="49.51677" lon="1.8191">
        <ele>200.4</ele>
        <time>2014-06-08T11:33:10.42</time>
      </trkpt>
      <trkpt lat="49.51683" lon="1.81901">
        <ele>200.7</ele>
        <time>2014-06-08T11:33:16.42</time>
      </trkpt>
      <trkpt lat="49.51689" lon="1.81892">
        <ele>201.2</ele>
        <time>2014-06-08T11:33:22.63</time>
      </trkpt>
      <trkpt lat="49.51694" lon="1.81885">
        <ele>201.7</ele>
        <time>2014-06-08T11:33:28.46</time>
      </trkpt>
      <trkpt lat="49.51701" lon="1.81877">
        <ele>202.4</ele>
        <time>2014-06-08T11:33:34.42</time>
      </trkpt>
      <trkpt lat="49.51706" lon="1.8187">
        <ele>202.7</ele>
        <time>2014-06-08T11:33:40.42</time>
      </trkpt>
      <trkpt lat="49.51713" lon="1.81862">
        <ele>202.9</ele>
        <time>2014-06-08T11:33:47.42</time>
      </trkpt>
      <trkpt lat="49.5172" lon="1.81855">
        <ele>203</ele>
        <time>2014-06-08T11:33:53.42</time>
      </trkpt>
      <trkpt lat="49.51726" lon="1.81849">
        <ele>203.4</ele>
        <time>2014-06-08T11:33:59.42</time>
      </trkpt>
      <trkpt lat="49.51732" lon="1.81842">
        <ele>203.9</ele>
        <time>2014-06-08T11:34:05.42</time>
      </trkpt>
      <trkpt lat="49.51735" lon="1.81837">
        <ele>203.9</ele>
        <time>2014-06-08T11:34:12.42</time>
      </trkpt>
      <trkpt lat="49.51741" lon="1.81829">
        <ele>203.8</ele>
        <time>2014-06-08T11:34:18.42</time>
      </trkpt>
      <trkpt lat="49.51746" lon="1.81818">
        <ele>203.8</ele>
        <time>2014-06-08T11:34:24.42</time>
      </trkpt>
      <trkpt lat="49.51752" lon="1.8181">
        <ele>203.9</ele>
        <time>2014-06-08T11:34:29.42</time>
      </trkpt>
      <trkpt lat="49.51757" lon="1.81801">
        <ele>204.4</ele>
        <time>2014-06-08T11:34:35.48</time>
      </trkpt>
      <trkpt lat="49.51761" lon="1.81791">
        <ele>204.6</ele>
        <time>2014-06-08T11:34:41.42</time>
      </trkpt>
      <trkpt lat="49.51765" lon="1.81781">
        <ele>204.8</ele>
        <time>2014-06-08T11:34:47.42</time>
      </trkpt>
      <trkpt lat="49.5177" lon="1.81771">
        <ele>204.3</ele>
        <time>2014-06-08T11:34:53.42</time>
      </trkpt>
      <trkpt lat="49.51773" lon="1.8176">
        <ele>204</ele>
        <time>2014-06-08T11:34:59.42</time>
      </trkpt>
      <trkpt lat="49.51775" lon="1.81749">
        <ele>204.5</ele>
        <time>2014-06-08T11:35:06.42</time>
      </trkpt>
      <trkpt lat="49.51779" lon="1.81737">
        <ele>204.4</ele>
        <time>2014-06-08T11:35:13.42</time>
      </trkpt>
      <trkpt lat="49.51781" lon="1.81725">
        <ele>204.3</ele>
        <time>2014-06-08T11:35:19.42</time>
      </trkpt>
      <trkpt lat="49.51783" lon="1.81715">
        <ele>204.5</ele>
        <time>2014-06-08T11:35:25.42</time>
      </trkpt>
      <trkpt lat="49.51785" lon="1.81702">
        <ele>204.2</ele>
        <time>2014-06-08T11:35:31.42</time>
      </trkpt>
      <trkpt lat="49.51787" lon="1.81691">
        <ele>203.9</ele>
        <time>2014-06-08T11:35:37.42</time>
      </trkpt>
      <trkpt lat="49.51789" lon="1.81679">
        <ele>204</ele>
        <time>2014-06-08T11:35:43.42</time>
      </trkpt>
      <trkpt lat="49.51793" lon="1.81667">
        <ele>203.4</ele>
        <time>2014-06-08T11:35:50.42</time>
      </trkpt>
      <trkpt lat="49.51795" lon="1.81656">
        <ele>203.3</ele>
        <time>2014-06-08T11:35:56.42</time>
      </trkpt>
      <trkpt lat="49.518" lon="1.81646">
        <ele>202.9</ele>
        <time>2014-06-08T11:36:01.42</time>
      </trkpt>
      <trkpt lat="49.51803" lon="1.81635">
        <ele>202.4</ele>
        <time>2014-06-08T11:36:07.43</time>
      </trkpt>
      <trkpt lat="49.51806" lon="1.81624">
        <ele>202.3</ele>
        <time>2014-06-08T11:36:13.42</time>
      </trkpt>
      <trkpt lat="49.51809" lon="1.81612">
        <ele>202.1</ele>
        <time>2014-06-08T11:36:20.42</time>
      </trkpt>
      <trkpt lat="49.51814" lon="1.81603">
        <ele>201.8</ele>
        <time>2014-06-08T11:36:26.42</time>
      </trkpt>
      <trkpt lat="49.51817" lon="1.81591">
        <ele>200.9</ele>
        <time>2014-06-08T11:36:32.42</time>
      </trkpt>
      <trkpt lat="49.5182" lon="1.8158">
        <ele>200.3</ele>
        <time>2014-06-08T11:36:38.42</time>
      </trkpt>
      <trkpt lat="49.51823" lon="1.8157">
        <ele>200.3</ele>
        <time>2014-06-08T11:36:44.42</time>
      </trkpt>
      <trkpt lat="49.51827" lon="1.81559">
        <ele>200</ele>
        <time>2014-06-08T11:36:50.44</time>
      </trkpt>
      <trkpt lat="49.51833" lon="1.81551">
        <ele>199.2</ele>
        <time>2014-06-08T11:36:57.42</time>
      </trkpt>
      <trkpt lat="49.51838" lon="1.8154">
        <ele>199</ele>
        <time>2014-06-08T11:37:03.42</time>
      </trkpt>
      <trkpt lat="49.5184" lon="1.81529">
        <ele>198.6</ele>
        <time>2014-06-08T11:37:09.44</time>
      </trkpt>
      <trkpt lat="49.51842" lon="1.81518">
        <ele>198.1</ele>
        <time>2014-06-08T11:37:14.42</time>
      </trkpt>
      <trkpt lat="49.51845" lon="1.81508">
        <ele>197.4</ele>
        <time>2014-06-08T11:37:20.42</time>
      </trkpt>
      <trkpt lat="49.51847" lon="1.81495">
        <ele>197.2</ele>
        <time>2014-06-08T11:37:26.42</time>
      </trkpt>
      <trkpt lat="49.5185" lon="1.81485">
        <ele>196.6</ele>
        <time>2014-06-08T11:37:32.42</time>
      </trkpt>
      <trkpt lat="49.51852" lon="1.81474">
        <ele>195.8</ele>
        <time>2014-06-08T11:37:38.42</time>
      </trkpt>
      <trkpt lat="49.51855" lon="1.81462">
        <ele>194.9</ele>
        <time>2014-06-08T11:37:45.42</time>
      </trkpt>
      <trkpt lat="49.51855" lon="1.8145">
        <ele>194.8</ele>
        <time>2014-06-08T11:37:52.42</time>
      </trkpt>
      <trkpt lat="49.51853" lon="1.81438">
        <ele>194.4</ele>
        <time>2014-06-08T11:37:58.42</time>
      </trkpt>
      <trkpt lat="49.5185" lon="1.81427">
        <ele>194</ele>
        <time>2014-06-08T11:38:05.42</time>
      </trkpt>
      <trkpt lat="49.51848" lon="1.81417">
        <ele>194.3</ele>
        <time>2014-06-08T11:38:10.42</time>
      </trkpt>
      <trkpt lat="49.51848" lon="1.81406">
        <ele>193.6</ele>
        <time>2014-06-08T11:38:17.42</time>
      </trkpt>
      <trkpt lat="49.51846" lon="1.81395">
        <ele>193.1</ele>
        <time>2014-06-08T11:38:24.42</time>
      </trkpt>
      <trkpt lat="49.51845" lon="1.81383">
        <ele>192.4</ele>
        <time>2014-06-08T11:38:30.42</time>
      </trkpt>
      <trkpt lat="49.51842" lon="1.81372">
        <ele>191.8</ele>
        <time>2014-06-08T11:38:37.42</time>
      </trkpt>
      <trkpt lat="49.51841" lon="1.81359">
        <ele>191.4</ele>
        <time>2014-06-08T11:38:44.42</time>
      </trkpt>
      <trkpt lat="49.51837" lon="1.8135">
        <ele>190.8</ele>
        <time>2014-06-08T11:38:51.42</time>
      </trkpt>
      <trkpt lat="49.51835" lon="1.81342">
        <ele>190.2</ele>
        <time>2014-06-08T11:38:58.42</time>
      </trkpt>
      <trkpt lat="49.51833" lon="1.81346">
        <ele>190.5</ele>
        <time>2014-06-08T11:39:05.44</time>
      </trkpt>
      <trkpt lat="49.51844" lon="1.81345">
        <ele>195</ele>
        <time>2014-06-08T11:39:10.43</time>
      </trkpt>
      <trkpt lat="49.51852" lon="1.81347">
        <ele>195.3</ele>
        <time>2014-06-08T11:39:16.40</time>
      </trkpt>
      <trkpt lat="49.51859" lon="1.81352">
        <ele>195</ele>
        <time>2014-06-08T11:39:21.40</time>
      </trkpt>
      <trkpt lat="49.51865" lon="1.81359">
        <ele>194.7</ele>
        <time>2014-06-08T11:39:27.44</time>
      </trkpt>
      <trkpt lat="49.5187" lon="1.81368">
        <ele>195.3</ele>
        <time>2014-06-08T11:39:33.40</time>
      </trkpt>
      <trkpt lat="49.51876" lon="1.81374">
        <ele>195.6</ele>
        <time>2014-06-08T11:39:39.40</time>
      </trkpt>
      <trkpt lat="49.51882" lon="1.81381">
        <ele>195.5</ele>
        <time>2014-06-08T11:39:46.40</time>
      </trkpt>
      <trkpt lat="49.51885" lon="1.81389">
        <ele>195.4</ele>
        <time>2014-06-08T11:39:53.41</time>
      </trkpt>
      <trkpt lat="49.5189" lon="1.81398">
        <ele>195.2</ele>
        <time>2014-06-08T11:39:59.43</time>
      </trkpt>
      <trkpt lat="49.51895" lon="1.81408">
        <ele>195.1</ele>
        <time>2014-06-08T11:40:06.40</time>
      </trkpt>
      <trkpt lat="49.51901" lon="1.81416">
        <ele>195.1</ele>
        <time>2014-06-08T11:40:11.41</time>
      </trkpt>
      <trkpt lat="49.51905" lon="1.81427">
        <ele>195.2</ele>
        <time>2014-06-08T11:40:18.40</time>
      </trkpt>
      <trkpt lat="49.5191" lon="1.81434">
        <ele>195</ele>
        <time>2014-06-08T11:40:23.41</time>
      </trkpt>
      <trkpt lat="49.51914" lon="1.81446">
        <ele>195</ele>
        <time>2014-06-08T11:40:30.40</time>
      </trkpt>
      <trkpt lat="49.51919" lon="1.81453">
        <ele>195.1</ele>
        <time>2014-06-08T11:40:35.41</time>
      </trkpt>
      <trkpt lat="49.51924" lon="1.81463">
        <ele>194.8</ele>
        <time>2014-06-08T11:40:41.41</time>
      </trkpt>
      <trkpt lat="49.51928" lon="1.81473">
        <ele>194.7</ele>
        <time>2014-06-08T11:40:47.41</time>
      </trkpt>
      <trkpt lat="49.51933" lon="1.81484">
        <ele>194.6</ele>
        <time>2014-06-08T11:40:53.41</time>
      </trkpt>
      <trkpt lat="49.51938" lon="1.81494">
        <ele>194.6</ele>
        <time>2014-06-08T11:40:59.41</time>
      </trkpt>
      <trkpt lat="49.51945" lon="1.815">
        <ele>194.6</ele>
        <time>2014-06-08T11:41:04.40</time>
      </trkpt>
      <trkpt lat="49.51951" lon="1.81508">
        <ele>194.6</ele>
        <time>2014-06-08T11:41:11.41</time>
      </trkpt>
      <trkpt lat="49.51957" lon="1.81515">
        <ele>194.7</ele>
        <time>2014-06-08T11:41:16.40</time>
      </trkpt>
      <trkpt lat="49.51962" lon="1.81524">
        <ele>194.5</ele>
        <time>2014-06-08T11:41:23.41</time>
      </trkpt>
      <trkpt lat="49.51968" lon="1.81531">
        <ele>194.4</ele>
        <time>2014-06-08T11:41:29.41</time>
      </trkpt>
      <trkpt lat="49.51969" lon="1.81534">
        <ele>193.5</ele>
        <time>2014-06-08T11:41:36.40</time>
      </trkpt>
      <trkpt lat="49.51968" lon="1.81534">
        <ele>193.6</ele>
        <time>2014-06-08T11:41:43.40</time>
      </trkpt>
      <trkpt lat="49.51975" lon="1.81539">
        <ele>193.2</ele>
        <time>2014-06-08T11:41:46.43</time>
      </trkpt>
      <trkpt lat="49.51982" lon="1.81545">
        <ele>191.9</ele>
        <time>2014-06-08T11:41:53.42</time>
      </trkpt>
      <trkpt lat="49.51987" lon="1.81551">
        <ele>191.6</ele>
        <time>2014-06-08T11:42:00.30</time>
      </trkpt>
      <trkpt lat="49.51994" lon="1.81558">
        <ele>191.5</ele>
        <time>2014-06-08T11:42:05.30</time>
      </trkpt>
      <trkpt lat="49.52" lon="1.81566">
        <ele>191.6</ele>
        <time>2014-06-08T11:42:12.30</time>
      </trkpt>
      <trkpt lat="49.52005" lon="1.8157">
        <ele>191.5</ele>
        <time>2014-06-08T11:42:19.29</time>
      </trkpt>
      <trkpt lat="49.52012" lon="1.81572">
        <ele>191.2</ele>
        <time>2014-06-08T11:42:26.29</time>
      </trkpt>
      <trkpt lat="49.5202" lon="1.81567">
        <ele>190.5</ele>
        <time>2014-06-08T11:42:31.30</time>
      </trkpt>
      <trkpt lat="49.52027" lon="1.81562">
        <ele>190.1</ele>
        <time>2014-06-08T11:42:36.30</time>
      </trkpt>
      <trkpt lat="49.52034" lon="1.81559">
        <ele>189.5</ele>
        <time>2014-06-08T11:42:40.30</time>
      </trkpt>
      <trkpt lat="49.52041" lon="1.81555">
        <ele>188.9</ele>
        <time>2014-06-08T11:42:46.30</time>
      </trkpt>
      <trkpt lat="49.52046" lon="1.81545">
        <ele>187.6</ele>
        <time>2014-06-08T11:42:53.30</time>
      </trkpt>
      <trkpt lat="49.52051" lon="1.81538">
        <ele>186.8</ele>
        <time>2014-06-08T11:43:00.30</time>
      </trkpt>
      <trkpt lat="49.52057" lon="1.8153">
        <ele>185.9</ele>
        <time>2014-06-08T11:43:07.32</time>
      </trkpt>
      <trkpt lat="49.52064" lon="1.81525">
        <ele>185.6</ele>
        <time>2014-06-08T11:43:13.30</time>
      </trkpt>
      <trkpt lat="49.52069" lon="1.81517">
        <ele>185.1</ele>
        <time>2014-06-08T11:43:19.30</time>
      </trkpt>
      <trkpt lat="49.52073" lon="1.81509">
        <ele>184.2</ele>
        <time>2014-06-08T11:43:26.30</time>
      </trkpt>
      <trkpt lat="49.52075" lon="1.81504">
        <ele>183.4</ele>
        <time>2014-06-08T11:43:33.29</time>
      </trkpt>
      <trkpt lat="49.52082" lon="1.815">
        <ele>183.2</ele>
        <time>2014-06-08T11:43:40.30</time>
      </trkpt>
      <trkpt lat="49.5209" lon="1.81497">
        <ele>182.2</ele>
        <time>2014-06-08T11:43:47.31</time>
      </trkpt>
      <trkpt lat="49.52091" lon="1.81497">
        <ele>182</ele>
        <time>2014-06-08T11:43:54.30</time>
      </trkpt>
      <trkpt lat="49.52099" lon="1.81495">
        <ele>182</ele>
        <time>2014-06-08T11:43:55.32</time>
      </trkpt>
      <trkpt lat="49.52106" lon="1.81499">
        <ele>182.2</ele>
        <time>2014-06-08T11:44:02.30</time>
      </trkpt>
      <trkpt lat="49.52113" lon="1.81498">
        <ele>182.1</ele>
        <time>2014-06-08T11:44:08.30</time>
      </trkpt>
      <trkpt lat="49.52121" lon="1.815">
        <ele>182.1</ele>
        <time>2014-06-08T11:44:15.30</time>
      </trkpt>
      <trkpt lat="49.52127" lon="1.81503">
        <ele>181.8</ele>
        <time>2014-06-08T11:44:22.30</time>
      </trkpt>
      <trkpt lat="49.52132" lon="1.81504">
        <ele>181.9</ele>
        <time>2014-06-08T11:44:29.30</time>
      </trkpt>
      <trkpt lat="49.52138" lon="1.81507">
        <ele>181.9</ele>
        <time>2014-06-08T11:44:36.30</time>
      </trkpt>
      <trkpt lat="49.52145" lon="1.81509">
        <ele>182</ele>
        <time>2014-06-08T11:44:42.30</time>
      </trkpt>
      <trkpt lat="49.52153" lon="1.81513">
        <ele>182.1</ele>
        <time>2014-06-08T11:44:48.30</time>
      </trkpt>
      <trkpt lat="49.52157" lon="1.81515">
        <ele>182.7</ele>
        <time>2014-06-08T11:44:55.30</time>
      </trkpt>
      <trkpt lat="49.52166" lon="1.81513">
        <ele>182.7</ele>
        <time>2014-06-08T11:45:02.30</time>
      </trkpt>
      <trkpt lat="49.52173" lon="1.81517">
        <ele>182.4</ele>
        <time>2014-06-08T11:45:08.30</time>
      </trkpt>
      <trkpt lat="49.52178" lon="1.81522">
        <ele>182.2</ele>
        <time>2014-06-08T11:45:15.30</time>
      </trkpt>
      <trkpt lat="49.52183" lon="1.8153">
        <ele>182.3</ele>
        <time>2014-06-08T11:45:22.30</time>
      </trkpt>
      <trkpt lat="49.5219" lon="1.81535">
        <ele>181.7</ele>
        <time>2014-06-08T11:45:29.30</time>
      </trkpt>
      <trkpt lat="49.52198" lon="1.81539">
        <ele>181.4</ele>
        <time>2014-06-08T11:45:36.30</time>
      </trkpt>
      <trkpt lat="49.52201" lon="1.81545">
        <ele>181.7</ele>
        <time>2014-06-08T11:45:43.30</time>
      </trkpt>
      <trkpt lat="49.52202" lon="1.81545">
        <ele>181.6</ele>
        <time>2014-06-08T11:45:50.30</time>
      </trkpt>
      <trkpt lat="49.52202" lon="1.81554">
        <ele>181.1</ele>
        <time>2014-06-08T11:45:51.31</time>
      </trkpt>
      <trkpt lat="49.52204" lon="1.81563">
        <ele>180.1</ele>
        <time>2014-06-08T11:45:57.32</time>
      </trkpt>
      <trkpt lat="49.52208" lon="1.81571">
        <ele>180</ele>
        <time>2014-06-08T11:46:04.30</time>
      </trkpt>
      <trkpt lat="49.52212" lon="1.81573">
        <ele>179.5</ele>
        <time>2014-06-08T11:46:11.29</time>
      </trkpt>
      <trkpt lat="49.52216" lon="1.81583">
        <ele>180.4</ele>
        <time>2014-06-08T11:46:17.31</time>
      </trkpt>
      <trkpt lat="49.52216" lon="1.81596">
        <ele>180.8</ele>
        <time>2014-06-08T11:46:23.29</time>
      </trkpt>
      <trkpt lat="49.52214" lon="1.81607">
        <ele>180.6</ele>
        <time>2014-06-08T11:46:30.32</time>
      </trkpt>
      <trkpt lat="49.52213" lon="1.81616">
        <ele>180.6</ele>
        <time>2014-06-08T11:46:37.29</time>
      </trkpt>
      <trkpt lat="49.52212" lon="1.81609">
        <ele>179.4</ele>
        <time>2014-06-08T11:46:43.31</time>
      </trkpt>
      <trkpt lat="49.52214" lon="1.816">
        <ele>178.3</ele>
        <time>2014-06-08T11:46:48.31</time>
      </trkpt>
      <trkpt lat="49.52213" lon="1.81589">
        <ele>177.7</ele>
        <time>2014-06-08T11:46:54.31</time>
      </trkpt>
      <trkpt lat="49.5221" lon="1.81576">
        <ele>177.4</ele>
        <time>2014-06-08T11:47:01.30</time>
      </trkpt>
      <trkpt lat="49.52207" lon="1.81569">
        <ele>177</ele>
        <time>2014-06-08T11:47:08.29</time>
      </trkpt>
      <trkpt lat="49.52203" lon="1.8156">
        <ele>176.6</ele>
        <time>2014-06-08T11:47:15.29</time>
      </trkpt>
      <trkpt lat="49.52203" lon="1.81555">
        <ele>176.5</ele>
        <time>2014-06-08T11:47:22.29</time>
      </trkpt>
      <trkpt lat="49.52203" lon="1.81547">
        <ele>176.2</ele>
        <time>2014-06-08T11:47:29.30</time>
      </trkpt>
      <trkpt lat="49.52204" lon="1.81539">
        <ele>176.1</ele>
        <time>2014-06-08T11:47:36.29</time>
      </trkpt>
      <trkpt lat="49.52206" lon="1.81535">
        <ele>176</ele>
        <time>2014-06-08T11:47:43.30</time>
      </trkpt>
      <trkpt lat="49.52205" lon="1.81533">
        <ele>176</ele>
        <time>2014-06-08T11:47:50.29</time>
      </trkpt>
      <trkpt lat="49.52206" lon="1.81522">
        <ele>175.8</ele>
        <time>2014-06-08T11:47:51.31</time>
      </trkpt>
      <trkpt lat="49.52211" lon="1.81513">
        <ele>175.8</ele>
        <time>2014-06-08T11:47:58.29</time>
      </trkpt>
      <trkpt lat="49.52213" lon="1.81505">
        <ele>175.9</ele>
        <time>2014-06-08T11:48:05.39</time>
      </trkpt>
      <trkpt lat="49.52219" lon="1.81499">
        <ele>176.1</ele>
        <time>2014-06-08T11:48:12.33</time>
      </trkpt>
      <trkpt lat="49.52222" lon="1.81485">
        <ele>176.2</ele>
        <time>2014-06-08T11:48:19.29</time>
      </trkpt>
      <trkpt lat="49.52225" lon="1.81476">
        <ele>176.1</ele>
        <time>2014-06-08T11:48:26.29</time>
      </trkpt>
      <trkpt lat="49.52226" lon="1.81465">
        <ele>175.6</ele>
        <time>2014-06-08T11:48:33.29</time>
      </trkpt>
      <trkpt lat="49.52228" lon="1.81458">
        <ele>174.8</ele>
        <time>2014-06-08T11:48:40.29</time>
      </trkpt>
      <trkpt lat="49.5223" lon="1.81449">
        <ele>174.2</ele>
        <time>2014-06-08T11:48:47.29</time>
      </trkpt>
      <trkpt lat="49.52236" lon="1.81443">
        <ele>174</ele>
        <time>2014-06-08T11:48:54.29</time>
      </trkpt>
      <trkpt lat="49.52237" lon="1.81431">
        <ele>173.8</ele>
        <time>2014-06-08T11:49:00.29</time>
      </trkpt>
      <trkpt lat="49.52239" lon="1.81418">
        <ele>173.7</ele>
        <time>2014-06-08T11:49:06.33</time>
      </trkpt>
      <trkpt lat="49.52243" lon="1.81406">
        <ele>173.3</ele>
        <time>2014-06-08T11:49:13.29</time>
      </trkpt>
      <trkpt lat="49.52244" lon="1.81395">
        <ele>172.9</ele>
        <time>2014-06-08T11:49:19.29</time>
      </trkpt>
      <trkpt lat="49.52244" lon="1.81384">
        <ele>172.5</ele>
        <time>2014-06-08T11:49:26.29</time>
      </trkpt>
      <trkpt lat="49.52246" lon="1.81372">
        <ele>172.4</ele>
        <time>2014-06-08T11:49:32.29</time>
      </trkpt>
      <trkpt lat="49.52246" lon="1.8136">
        <ele>172.2</ele>
        <time>2014-06-08T11:49:39.29</time>
      </trkpt>
      <trkpt lat="49.52248" lon="1.81349">
        <ele>172</ele>
        <time>2014-06-08T11:49:45.29</time>
      </trkpt>
      <trkpt lat="49.52251" lon="1.81338">
        <ele>171.9</ele>
        <time>2014-06-08T11:49:51.29</time>
      </trkpt>
      <trkpt lat="49.52255" lon="1.81327">
        <ele>171.4</ele>
        <time>2014-06-08T11:49:57.29</time>
      </trkpt>
      <trkpt lat="49.52256" lon="1.81314">
        <ele>171.1</ele>
        <time>2014-06-08T11:50:04.29</time>
      </trkpt>
      <trkpt lat="49.52257" lon="1.81302">
        <ele>170.8</ele>
        <time>2014-06-08T11:50:11.29</time>
      </trkpt>
      <trkpt lat="49.52256" lon="1.81291">
        <ele>170.8</ele>
        <time>2014-06-08T11:50:17.29</time>
      </trkpt>
      <trkpt lat="49.52257" lon="1.8128">
        <ele>170.8</ele>
        <time>2014-06-08T11:50:23.29</time>
      </trkpt>
      <trkpt lat="49.52258" lon="1.81267">
        <ele>170.6</ele>
        <time>2014-06-08T11:50:29.29</time>
      </trkpt>
      <trkpt lat="49.52264" lon="1.81256">
        <ele>170.7</ele>
        <time>2014-06-08T11:50:35.29</time>
      </trkpt>
      <trkpt lat="49.52264" lon="1.81255">
        <ele>170.7</ele>
        <time>2014-06-08T11:50:42.32</time>
      </trkpt>
      <trkpt lat="49.52272" lon="1.81252">
        <ele>170.6</ele>
        <time>2014-06-08T11:50:43.34</time>
      </trkpt>
      <trkpt lat="49.52278" lon="1.81251">
        <ele>170.6</ele>
        <time>2014-06-08T11:50:50.32</time>
      </trkpt>
      <trkpt lat="49.52286" lon="1.81249">
        <ele>170.3</ele>
        <time>2014-06-08T11:50:57.32</time>
      </trkpt>
      <trkpt lat="49.5229" lon="1.81251">
        <ele>170</ele>
        <time>2014-06-08T11:51:04.33</time>
      </trkpt>
      <trkpt lat="49.52298" lon="1.81248">
        <ele>169.7</ele>
        <time>2014-06-08T11:51:10.35</time>
      </trkpt>
      <trkpt lat="49.52305" lon="1.81246">
        <ele>169.6</ele>
        <time>2014-06-08T11:51:17.33</time>
      </trkpt>
      <trkpt lat="49.52312" lon="1.81247">
        <ele>169.5</ele>
        <time>2014-06-08T11:51:24.33</time>
      </trkpt>
      <trkpt lat="49.5232" lon="1.81246">
        <ele>169.3</ele>
        <time>2014-06-08T11:51:30.33</time>
      </trkpt>
      <trkpt lat="49.52327" lon="1.81244">
        <ele>169</ele>
        <time>2014-06-08T11:51:36.33</time>
      </trkpt>
      <trkpt lat="49.52335" lon="1.81244">
        <ele>168.8</ele>
        <time>2014-06-08T11:51:42.33</time>
      </trkpt>
      <trkpt lat="49.52342" lon="1.8124">
        <ele>168.2</ele>
        <time>2014-06-08T11:51:48.33</time>
      </trkpt>
      <trkpt lat="49.5235" lon="1.8124">
        <ele>167.8</ele>
        <time>2014-06-08T11:51:55.33</time>
      </trkpt>
      <trkpt lat="49.52358" lon="1.8124">
        <ele>167.3</ele>
        <time>2014-06-08T11:52:01.33</time>
      </trkpt>
      <trkpt lat="49.52367" lon="1.81237">
        <ele>167.2</ele>
        <time>2014-06-08T11:52:08.33</time>
      </trkpt>
      <trkpt lat="49.52375" lon="1.81237">
        <ele>167.3</ele>
        <time>2014-06-08T11:52:14.33</time>
      </trkpt>
      <trkpt lat="49.52382" lon="1.81237">
        <ele>166.7</ele>
        <time>2014-06-08T11:52:19.33</time>
      </trkpt>
      <trkpt lat="49.5239" lon="1.81233">
        <ele>166.4</ele>
        <time>2014-06-08T11:52:23.33</time>
      </trkpt>
      <trkpt lat="49.52398" lon="1.81231">
        <ele>165.2</ele>
        <time>2014-06-08T11:52:29.33</time>
      </trkpt>
      <trkpt lat="49.52407" lon="1.8123">
        <ele>164.9</ele>
        <time>2014-06-08T11:52:35.33</time>
      </trkpt>
      <trkpt lat="49.52415" lon="1.8123">
        <ele>165</ele>
        <time>2014-06-08T11:52:42.33</time>
      </trkpt>
      <trkpt lat="49.52423" lon="1.81229">
        <ele>164.7</ele>
        <time>2014-06-08T11:52:48.33</time>
      </trkpt>
      <trkpt lat="49.5243" lon="1.81227">
        <ele>163.6</ele>
        <time>2014-06-08T11:52:55.33</time>
      </trkpt>
      <trkpt lat="49.52437" lon="1.81226">
        <ele>162.1</ele>
        <time>2014-06-08T11:53:01.33</time>
      </trkpt>
      <trkpt lat="49.52445" lon="1.81226">
        <ele>160.4</ele>
        <time>2014-06-08T11:53:06.33</time>
      </trkpt>
      <trkpt lat="49.52452" lon="1.81227">
        <ele>159.6</ele>
        <time>2014-06-08T11:53:13.33</time>
      </trkpt>
      <trkpt lat="49.5246" lon="1.81226">
        <ele>157.9</ele>
        <time>2014-06-08T11:53:19.33</time>
      </trkpt>
      <trkpt lat="49.52468" lon="1.81225">
        <ele>155.6</ele>
        <time>2014-06-08T11:53:25.33</time>
      </trkpt>
      <trkpt lat="49.52476" lon="1.81226">
        <ele>152.3</ele>
        <time>2014-06-08T11:53:32.33</time>
      </trkpt>
      <trkpt lat="49.52484" lon="1.81225">
        <ele>149.9</ele>
        <time>2014-06-08T11:53:39.33</time>
      </trkpt>
      <trkpt lat="49.52491" lon="1.81225">
        <ele>148.5</ele>
        <time>2014-06-08T11:53:46.33</time>
      </trkpt>
      <trkpt lat="49.52499" lon="1.81226">
        <ele>148.6</ele>
        <time>2014-06-08T11:53:50.33</time>
      </trkpt>
      <trkpt lat="49.52506" lon="1.8123">
        <ele>147.9</ele>
        <time>2014-06-08T11:53:56.33</time>
      </trkpt>
      <trkpt lat="49.52514" lon="1.81233">
        <ele>146.6</ele>
        <time>2014-06-08T11:54:02.33</time>
      </trkpt>
      <trkpt lat="49.5252" lon="1.81236">
        <ele>145.7</ele>
        <time>2014-06-08T11:54:09.33</time>
      </trkpt>
      <trkpt lat="49.52527" lon="1.81238">
        <ele>145</ele>
        <time>2014-06-08T11:54:16.33</time>
      </trkpt>
      <trkpt lat="49.52534" lon="1.81239">
        <ele>144.3</ele>
        <time>2014-06-08T11:54:21.33</time>
      </trkpt>
      <trkpt lat="49.52541" lon="1.8124">
        <ele>144</ele>
        <time>2014-06-08T11:54:26.33</time>
      </trkpt>
      <trkpt lat="49.52549" lon="1.81237">
        <ele>144.7</ele>
        <time>2014-06-08T11:54:32.33</time>
      </trkpt>
      <trkpt lat="49.52557" lon="1.81233">
        <ele>145</ele>
        <time>2014-06-08T11:54:39.36</time>
      </trkpt>
      <trkpt lat="49.52564" lon="1.81227">
        <ele>144.6</ele>
        <time>2014-06-08T11:54:46.33</time>
      </trkpt>
      <trkpt lat="49.5257" lon="1.81225">
        <ele>145</ele>
        <time>2014-06-08T11:54:53.33</time>
      </trkpt>
      <trkpt lat="49.52576" lon="1.8122">
        <ele>145</ele>
        <time>2014-06-08T11:55:00.33</time>
      </trkpt>
      <trkpt lat="49.52581" lon="1.81217">
        <ele>144.5</ele>
        <time>2014-06-08T11:55:07.33</time>
      </trkpt>
      <trkpt lat="49.52585" lon="1.81212">
        <ele>144.1</ele>
        <time>2014-06-08T11:55:14.33</time>
      </trkpt>
      <trkpt lat="49.5259" lon="1.81206">
        <ele>143.8</ele>
        <time>2014-06-08T11:55:21.33</time>
      </trkpt>
      <trkpt lat="49.52596" lon="1.81199">
        <ele>142.9</ele>
        <time>2014-06-08T11:55:28.33</time>
      </trkpt>
      <trkpt lat="49.52603" lon="1.81193">
        <ele>142</ele>
        <time>2014-06-08T11:55:35.33</time>
      </trkpt>
      <trkpt lat="49.52609" lon="1.81186">
        <ele>141</ele>
        <time>2014-06-08T11:55:40.33</time>
      </trkpt>
      <trkpt lat="49.52615" lon="1.8118">
        <ele>140.2</ele>
        <time>2014-06-08T11:55:45.33</time>
      </trkpt>
      <trkpt lat="49.52623" lon="1.81177">
        <ele>139.5</ele>
        <time>2014-06-08T11:55:52.33</time>
      </trkpt>
      <trkpt lat="49.52626" lon="1.81175">
        <ele>138.6</ele>
        <time>2014-06-08T11:55:59.33</time>
      </trkpt>
      <trkpt lat="49.52635" lon="1.81176">
        <ele>139.8</ele>
        <time>2014-06-08T11:56:03.33</time>
      </trkpt>
      <trkpt lat="49.52644" lon="1.81174">
        <ele>140.9</ele>
        <time>2014-06-08T11:56:10.35</time>
      </trkpt>
      <trkpt lat="49.52648" lon="1.81172">
        <ele>141.7</ele>
        <time>2014-06-08T11:56:17.33</time>
      </trkpt>
      <trkpt lat="49.52655" lon="1.8117">
        <ele>142.5</ele>
        <time>2014-06-08T11:56:24.33</time>
      </trkpt>
      <trkpt lat="49.52663" lon="1.81168">
        <ele>142.7</ele>
        <time>2014-06-08T11:56:30.33</time>
      </trkpt>
      <trkpt lat="49.5267" lon="1.81171">
        <ele>143.8</ele>
        <time>2014-06-08T11:56:35.33</time>
      </trkpt>
      <trkpt lat="49.52677" lon="1.81175">
        <ele>144.7</ele>
        <time>2014-06-08T11:56:42.33</time>
      </trkpt>
      <trkpt lat="49.52684" lon="1.81177">
        <ele>146</ele>
        <time>2014-06-08T11:56:49.33</time>
      </trkpt>
      <trkpt lat="49.5269" lon="1.81182">
        <ele>147.3</ele>
        <time>2014-06-08T11:56:56.33</time>
      </trkpt>
      <trkpt lat="49.52697" lon="1.81186">
        <ele>148.6</ele>
        <time>2014-06-08T11:57:03.33</time>
      </trkpt>
      <trkpt lat="49.52704" lon="1.81191">
        <ele>150.3</ele>
        <time>2014-06-08T11:57:10.33</time>
      </trkpt>
      <trkpt lat="49.52711" lon="1.81195">
        <ele>151.7</ele>
        <time>2014-06-08T11:57:17.33</time>
      </trkpt>
      <trkpt lat="49.52718" lon="1.81202">
        <ele>152.6</ele>
        <time>2014-06-08T11:57:23.33</time>
      </trkpt>
      <trkpt lat="49.52723" lon="1.81205">
        <ele>152.9</ele>
        <time>2014-06-08T11:57:30.33</time>
      </trkpt>
      <trkpt lat="49.52731" lon="1.81209">
        <ele>153.5</ele>
        <time>2014-06-08T11:57:37.33</time>
      </trkpt>
      <trkpt lat="49.52738" lon="1.81212">
        <ele>154</ele>
        <time>2014-06-08T11:57:44.33</time>
      </trkpt>
      <trkpt lat="49.52746" lon="1.81216">
        <ele>154.3</ele>
        <time>2014-06-08T11:57:51.33</time>
      </trkpt>
      <trkpt lat="49.52752" lon="1.81221">
        <ele>154.7</ele>
        <time>2014-06-08T11:57:58.33</time>
      </trkpt>
      <trkpt lat="49.52761" lon="1.81225">
        <ele>155.1</ele>
        <time>2014-06-08T11:58:05.33</time>
      </trkpt>
      <trkpt lat="49.52766" lon="1.81226">
        <ele>156.9</ele>
        <time>2014-06-08T11:58:12.33</time>
      </trkpt>
      <trkpt lat="49.52769" lon="1.81224">
        <ele>158.9</ele>
        <time>2014-06-08T11:58:19.33</time>
      </trkpt>
      <trkpt lat="49.52769" lon="1.81223">
        <ele>159.4</ele>
        <time>2014-06-08T11:58:26.33</time>
      </trkpt>
      <trkpt lat="49.52763" lon="1.8122">
        <ele>160.5</ele>
        <time>2014-06-08T11:58:28.34</time>
      </trkpt>
      <trkpt lat="49.52757" lon="1.81219">
        <ele>161.4</ele>
        <time>2014-06-08T11:58:35.33</time>
      </trkpt>
      <trkpt lat="49.52754" lon="1.81219">
        <ele>162</ele>
        <time>2014-06-08T11:58:42.33</time>
      </trkpt>
      <trkpt lat="49.52753" lon="1.81218">
        <ele>162.1</ele>
        <time>2014-06-08T11:58:49.33</time>
      </trkpt>
      <trkpt lat="49.52746" lon="1.81214">
        <ele>162.4</ele>
        <time>2014-06-08T11:58:51.39</time>
      </trkpt>
      <trkpt lat="49.52739" lon="1.81208">
        <ele>162.7</ele>
        <time>2014-06-08T11:58:55.33</time>
      </trkpt>
      <trkpt lat="49.52732" lon="1.81203">
        <ele>163</ele>
        <time>2014-06-08T11:59:02.35</time>
      </trkpt>
      <trkpt lat="49.52725" lon="1.81199">
        <ele>163.3</ele>
        <time>2014-06-08T11:59:09.33</time>
      </trkpt>
      <trkpt lat="49.52717" lon="1.81191">
        <ele>163.1</ele>
        <time>2014-06-08T11:59:15.33</time>
      </trkpt>
      <trkpt lat="49.52709" lon="1.81188">
        <ele>163.4</ele>
        <time>2014-06-08T11:59:22.33</time>
      </trkpt>
      <trkpt lat="49.52702" lon="1.81187">
        <ele>163.7</ele>
        <time>2014-06-08T11:59:29.33</time>
      </trkpt>
      <trkpt lat="49.52696" lon="1.81185">
        <ele>164.3</ele>
        <time>2014-06-08T11:59:36.33</time>
      </trkpt>
      <trkpt lat="49.52689" lon="1.81181">
        <ele>164.7</ele>
        <time>2014-06-08T11:59:43.33</time>
      </trkpt>
      <trkpt lat="49.52681" lon="1.81178">
        <ele>164.9</ele>
        <time>2014-06-08T11:59:48.33</time>
      </trkpt>
      <trkpt lat="49.52674" lon="1.81173">
        <ele>165</ele>
        <time>2014-06-08T11:59:54.33</time>
      </trkpt>
      <trkpt lat="49.52667" lon="1.81169">
        <ele>165.1</ele>
        <time>2014-06-08T11:59:59.33</time>
      </trkpt>
      <trkpt lat="49.5266" lon="1.81168">
        <ele>165.3</ele>
        <time>2014-06-08T12:00:06.33</time>
      </trkpt>
      <trkpt lat="49.52652" lon="1.81171">
        <ele>165.1</ele>
        <time>2014-06-08T12:00:12.33</time>
      </trkpt>
      <trkpt lat="49.52646" lon="1.81173">
        <ele>165</ele>
        <time>2014-06-08T12:00:19.33</time>
      </trkpt>
      <trkpt lat="49.52641" lon="1.81173">
        <ele>165.2</ele>
        <time>2014-06-08T12:00:26.33</time>
      </trkpt>
      <trkpt lat="49.52641" lon="1.81172">
        <ele>165.3</ele>
        <time>2014-06-08T12:00:33.33</time>
      </trkpt>
      <trkpt lat="49.52644" lon="1.81168">
        <ele>165.1</ele>
        <time>2014-06-08T12:00:40.33</time>
      </trkpt>
      <trkpt lat="49.52646" lon="1.81166">
        <ele>165.2</ele>
        <time>2014-06-08T12:00:47.33</time>
      </trkpt>
      <trkpt lat="49.52645" lon="1.8116">
        <ele>165</ele>
        <time>2014-06-08T12:00:50.36</time>
      </trkpt>
      <trkpt lat="49.52643" lon="1.81178">
        <ele>172.1</ele>
        <time>2014-06-08T12:02:14.44</time>
      </trkpt>
      <trkpt lat="49.5265" lon="1.81182">
        <ele>172.8</ele>
        <time>2014-06-08T12:02:21.74</time>
      </trkpt>
      <trkpt lat="49.52659" lon="1.81179">
        <ele>173.1</ele>
        <time>2014-06-08T12:02:25.34</time>
      </trkpt>
      <trkpt lat="49.52667" lon="1.81177">
        <ele>173.9</ele>
        <time>2014-06-08T12:02:31.74</time>
      </trkpt>
      <trkpt lat="49.52674" lon="1.81173">
        <ele>174</ele>
        <time>2014-06-08T12:02:35.14</time>
      </trkpt>
      <trkpt lat="49.52679" lon="1.81174">
        <ele>174.4</ele>
        <time>2014-06-08T12:02:42.14</time>
      </trkpt>
      <trkpt lat="49.52686" lon="1.81179">
        <ele>174.9</ele>
        <time>2014-06-08T12:02:47.14</time>
      </trkpt>
      <trkpt lat="49.52693" lon="1.81183">
        <ele>175.3</ele>
        <time>2014-06-08T12:02:54.14</time>
      </trkpt>
      <trkpt lat="49.52697" lon="1.81187">
        <ele>175.3</ele>
        <time>2014-06-08T12:03:01.14</time>
      </trkpt>
      <trkpt lat="49.52704" lon="1.8119">
        <ele>175.1</ele>
        <time>2014-06-08T12:03:08.14</time>
      </trkpt>
      <trkpt lat="49.52709" lon="1.81193">
        <ele>175.2</ele>
        <time>2014-06-08T12:03:15.14</time>
      </trkpt>
      <trkpt lat="49.52713" lon="1.81196">
        <ele>175.3</ele>
        <time>2014-06-08T12:03:22.14</time>
      </trkpt>
      <trkpt lat="49.52721" lon="1.81199">
        <ele>174.9</ele>
        <time>2014-06-08T12:03:28.99</time>
      </trkpt>
      <trkpt lat="49.52728" lon="1.81203">
        <ele>174.7</ele>
        <time>2014-06-08T12:03:35.14</time>
      </trkpt>
      <trkpt lat="49.52736" lon="1.81208">
        <ele>174.7</ele>
        <time>2014-06-08T12:03:39.4</time>
      </trkpt>
      <trkpt lat="49.52743" lon="1.81211">
        <ele>175</ele>
        <time>2014-06-08T12:03:45.4</time>
      </trkpt>
      <trkpt lat="49.5275" lon="1.81216">
        <ele>175.4</ele>
        <time>2014-06-08T12:03:52.44</time>
      </trkpt>
      <trkpt lat="49.52757" lon="1.8122">
        <ele>175.7</ele>
        <time>2014-06-08T12:03:59.14</time>
      </trkpt>
      <trkpt lat="49.52763" lon="1.81222">
        <ele>176.1</ele>
        <time>2014-06-08T12:04:06.14</time>
      </trkpt>
      <trkpt lat="49.52769" lon="1.81227">
        <ele>175.8</ele>
        <time>2014-06-08T12:04:13.4</time>
      </trkpt>
      <trkpt lat="49.52777" lon="1.81231">
        <ele>175.9</ele>
        <time>2014-06-08T12:04:19.4</time>
      </trkpt>
      <trkpt lat="49.52783" lon="1.81236">
        <ele>175.9</ele>
        <time>2014-06-08T12:04:26.4</time>
      </trkpt>
      <trkpt lat="49.52792" lon="1.8124">
        <ele>176.4</ele>
        <time>2014-06-08T12:04:32.24</time>
      </trkpt>
      <trkpt lat="49.52799" lon="1.81241">
        <ele>176.9</ele>
        <time>2014-06-08T12:04:37.99</time>
      </trkpt>
      <trkpt lat="49.52806" lon="1.81244">
        <ele>177.6</ele>
        <time>2014-06-08T12:04:44.24</time>
      </trkpt>
      <trkpt lat="49.52814" lon="1.81246">
        <ele>177.7</ele>
        <time>2014-06-08T12:04:50.4</time>
      </trkpt>
      <trkpt lat="49.52821" lon="1.81249">
        <ele>178</ele>
        <time>2014-06-08T12:04:55.4</time>
      </trkpt>
      <trkpt lat="49.52828" lon="1.81254">
        <ele>178.4</ele>
        <time>2014-06-08T12:05:02.4</time>
      </trkpt>
      <trkpt lat="49.52835" lon="1.81257">
        <ele>178.5</ele>
        <time>2014-06-08T12:05:09.4</time>
      </trkpt>
      <trkpt lat="49.52841" lon="1.8126">
        <ele>178.3</ele>
        <time>2014-06-08T12:05:16.14</time>
      </trkpt>
      <trkpt lat="49.52848" lon="1.81264">
        <ele>178.1</ele>
        <time>2014-06-08T12:05:22.14</time>
      </trkpt>
      <trkpt lat="49.52854" lon="1.81267">
        <ele>177.8</ele>
        <time>2014-06-08T12:05:29.14</time>
      </trkpt>
      <trkpt lat="49.5286" lon="1.81271">
        <ele>177.9</ele>
        <time>2014-06-08T12:05:36.13</time>
      </trkpt>
      <trkpt lat="49.52866" lon="1.81276">
        <ele>177.8</ele>
        <time>2014-06-08T12:05:42.98</time>
      </trkpt>
      <trkpt lat="49.52872" lon="1.81281">
        <ele>177.6</ele>
        <time>2014-06-08T12:05:50.4</time>
      </trkpt>
      <trkpt lat="49.5288" lon="1.81285">
        <ele>177.5</ele>
        <time>2014-06-08T12:05:54.98</time>
      </trkpt>
      <trkpt lat="49.52887" lon="1.81291">
        <ele>177.5</ele>
        <time>2014-06-08T12:05:59.4</time>
      </trkpt>
      <trkpt lat="49.52893" lon="1.81293">
        <ele>177.5</ele>
        <time>2014-06-08T12:06:05.98</time>
      </trkpt>
      <trkpt lat="49.52901" lon="1.81295">
        <ele>177.5</ele>
        <time>2014-06-08T12:06:13.34</time>
      </trkpt>
      <trkpt lat="49.52908" lon="1.813">
        <ele>177.5</ele>
        <time>2014-06-08T12:06:19.98</time>
      </trkpt>
      <trkpt lat="49.52915" lon="1.81303">
        <ele>177.6</ele>
        <time>2014-06-08T12:06:26.98</time>
      </trkpt>
      <trkpt lat="49.52922" lon="1.81305">
        <ele>177.6</ele>
        <time>2014-06-08T12:06:31.98</time>
      </trkpt>
      <trkpt lat="49.52929" lon="1.81306">
        <ele>177.7</ele>
        <time>2014-06-08T12:06:36.98</time>
      </trkpt>
      <trkpt lat="49.52936" lon="1.81307">
        <ele>177.9</ele>
        <time>2014-06-08T12:06:43.98</time>
      </trkpt>
      <trkpt lat="49.52943" lon="1.81307">
        <ele>178</ele>
        <time>2014-06-08T12:06:50.98</time>
      </trkpt>
      <trkpt lat="49.5295" lon="1.81308">
        <ele>178.7</ele>
        <time>2014-06-08T12:06:57.98</time>
      </trkpt>
      <trkpt lat="49.52957" lon="1.81307">
        <ele>179.3</ele>
        <time>2014-06-08T12:07:04.98</time>
      </trkpt>
      <trkpt lat="49.52964" lon="1.81303">
        <ele>179.7</ele>
        <time>2014-06-08T12:07:10.98</time>
      </trkpt>
      <trkpt lat="49.52972" lon="1.81298">
        <ele>179.9</ele>
        <time>2014-06-08T12:07:15.98</time>
      </trkpt>
      <trkpt lat="49.5298" lon="1.81295">
        <ele>180.7</ele>
        <time>2014-06-08T12:07:22.98</time>
      </trkpt>
      <trkpt lat="49.52987" lon="1.81293">
        <ele>181.4</ele>
        <time>2014-06-08T12:07:28.98</time>
      </trkpt>
      <trkpt lat="49.52994" lon="1.81289">
        <ele>181.8</ele>
        <time>2014-06-08T12:07:35.98</time>
      </trkpt>
      <trkpt lat="49.53001" lon="1.81285">
        <ele>182.3</ele>
        <time>2014-06-08T12:07:42.98</time>
      </trkpt>
      <trkpt lat="49.53008" lon="1.81281">
        <ele>183.2</ele>
        <time>2014-06-08T12:07:49.98</time>
      </trkpt>
      <trkpt lat="49.53015" lon="1.81278">
        <ele>184</ele>
        <time>2014-06-08T12:07:56.98</time>
      </trkpt>
      <trkpt lat="49.53021" lon="1.81271">
        <ele>184.6</ele>
        <time>2014-06-08T12:08:02.98</time>
      </trkpt>
      <trkpt lat="49.53029" lon="1.81268">
        <ele>185.2</ele>
        <time>2014-06-08T12:08:09.98</time>
      </trkpt>
      <trkpt lat="49.53035" lon="1.81265">
        <ele>185.9</ele>
        <time>2014-06-08T12:08:16.98</time>
      </trkpt>
      <trkpt lat="49.53041" lon="1.81262">
        <ele>186.6</ele>
        <time>2014-06-08T12:08:23.98</time>
      </trkpt>
      <trkpt lat="49.53049" lon="1.81261">
        <ele>187</ele>
        <time>2014-06-08T12:08:29.98</time>
      </trkpt>
      <trkpt lat="49.53056" lon="1.81257">
        <ele>187.4</ele>
        <time>2014-06-08T12:08:34.98</time>
      </trkpt>
      <trkpt lat="49.53063" lon="1.81254">
        <ele>187.7</ele>
        <time>2014-06-08T12:08:39.98</time>
      </trkpt>
      <trkpt lat="49.53069" lon="1.8125">
        <ele>188.1</ele>
        <time>2014-06-08T12:08:46.98</time>
      </trkpt>
      <trkpt lat="49.53077" lon="1.81249">
        <ele>188.7</ele>
        <time>2014-06-08T12:08:53.98</time>
      </trkpt>
      <trkpt lat="49.53083" lon="1.81254">
        <ele>189.1</ele>
        <time>2014-06-08T12:08:59.98</time>
      </trkpt>
      <trkpt lat="49.53088" lon="1.81264">
        <ele>190.1</ele>
        <time>2014-06-08T12:09:06.98</time>
      </trkpt>
      <trkpt lat="49.53089" lon="1.81273">
        <ele>191.2</ele>
        <time>2014-06-08T12:09:13.98</time>
      </trkpt>
      <trkpt lat="49.5309" lon="1.81277">
        <ele>191.8</ele>
        <time>2014-06-08T12:09:20.98</time>
      </trkpt>
      <trkpt lat="49.5309" lon="1.8128">
        <ele>192.2</ele>
        <time>2014-06-08T12:09:27.98</time>
      </trkpt>
      <trkpt lat="49.53092" lon="1.81291">
        <ele>194</ele>
        <time>2014-06-08T12:09:31.4</time>
      </trkpt>
      <trkpt lat="49.53096" lon="1.81301">
        <ele>194.1</ele>
        <time>2014-06-08T12:09:37.98</time>
      </trkpt>
      <trkpt lat="49.531" lon="1.81311">
        <ele>194.1</ele>
        <time>2014-06-08T12:09:43.98</time>
      </trkpt>
      <trkpt lat="49.53103" lon="1.8132">
        <ele>194</ele>
        <time>2014-06-08T12:09:50.98</time>
      </trkpt>
      <trkpt lat="49.53105" lon="1.8133">
        <ele>193.9</ele>
        <time>2014-06-08T12:09:56.98</time>
      </trkpt>
      <trkpt lat="49.53106" lon="1.81342">
        <ele>193.7</ele>
        <time>2014-06-08T12:10:03.98</time>
      </trkpt>
      <trkpt lat="49.53108" lon="1.81353">
        <ele>193.4</ele>
        <time>2014-06-08T12:10:09.98</time>
      </trkpt>
      <trkpt lat="49.53108" lon="1.81365">
        <ele>193.3</ele>
        <time>2014-06-08T12:10:15.98</time>
      </trkpt>
      <trkpt lat="49.53112" lon="1.81376">
        <ele>193.4</ele>
        <time>2014-06-08T12:10:22.98</time>
      </trkpt>
      <trkpt lat="49.53115" lon="1.81388">
        <ele>193.3</ele>
        <time>2014-06-08T12:10:28.98</time>
      </trkpt>
      <trkpt lat="49.53117" lon="1.81398">
        <ele>193.4</ele>
        <time>2014-06-08T12:10:35.98</time>
      </trkpt>
      <trkpt lat="49.53119" lon="1.81409">
        <ele>193.5</ele>
        <time>2014-06-08T12:10:42.98</time>
      </trkpt>
      <trkpt lat="49.53122" lon="1.81419">
        <ele>193.6</ele>
        <time>2014-06-08T12:10:49.98</time>
      </trkpt>
      <trkpt lat="49.53124" lon="1.81427">
        <ele>193.3</ele>
        <time>2014-06-08T12:10:56.98</time>
      </trkpt>
      <trkpt lat="49.53123" lon="1.81429">
        <ele>193.2</ele>
        <time>2014-06-08T12:11:03.98</time>
      </trkpt>
      <trkpt lat="49.53125" lon="1.8144">
        <ele>193.5</ele>
        <time>2014-06-08T12:11:06.4</time>
      </trkpt>
      <trkpt lat="49.5313" lon="1.81449">
        <ele>193.7</ele>
        <time>2014-06-08T12:11:12.98</time>
      </trkpt>
      <trkpt lat="49.53132" lon="1.81461">
        <ele>193.5</ele>
        <time>2014-06-08T12:11:19.98</time>
      </trkpt>
      <trkpt lat="49.53135" lon="1.81473">
        <ele>193.3</ele>
        <time>2014-06-08T12:11:26.98</time>
      </trkpt>
      <trkpt lat="49.53137" lon="1.81485">
        <ele>193.2</ele>
        <time>2014-06-08T12:11:33.98</time>
      </trkpt>
      <trkpt lat="49.53139" lon="1.81497">
        <ele>193.3</ele>
        <time>2014-06-08T12:11:39.98</time>
      </trkpt>
      <trkpt lat="49.53141" lon="1.81508">
        <ele>193</ele>
        <time>2014-06-08T12:11:46.98</time>
      </trkpt>
      <trkpt lat="49.53143" lon="1.81519">
        <ele>193.3</ele>
        <time>2014-06-08T12:11:53.98</time>
      </trkpt>
      <trkpt lat="49.53145" lon="1.8153">
        <ele>193.8</ele>
        <time>2014-06-08T12:12:01.44</time>
      </trkpt>
      <trkpt lat="49.53148" lon="1.8154">
        <ele>194</ele>
        <time>2014-06-08T12:12:06.98</time>
      </trkpt>
      <trkpt lat="49.53152" lon="1.81547">
        <ele>194.3</ele>
        <time>2014-06-08T12:12:13.98</time>
      </trkpt>
      <trkpt lat="49.53155" lon="1.81558">
        <ele>194.4</ele>
        <time>2014-06-08T12:12:20.98</time>
      </trkpt>
      <trkpt lat="49.53155" lon="1.8157">
        <ele>194.6</ele>
        <time>2014-06-08T12:12:26.98</time>
      </trkpt>
      <trkpt lat="49.53157" lon="1.81581">
        <ele>194.8</ele>
        <time>2014-06-08T12:12:32.98</time>
      </trkpt>
      <trkpt lat="49.53159" lon="1.81594">
        <ele>194.8</ele>
        <time>2014-06-08T12:12:38.98</time>
      </trkpt>
      <trkpt lat="49.5316" lon="1.81606">
        <ele>194.7</ele>
        <time>2014-06-08T12:12:44.98</time>
      </trkpt>
      <trkpt lat="49.53162" lon="1.81618">
        <ele>194.7</ele>
        <time>2014-06-08T12:12:51.98</time>
      </trkpt>
      <trkpt lat="49.53163" lon="1.8163">
        <ele>194.7</ele>
        <time>2014-06-08T12:12:58.98</time>
      </trkpt>
      <trkpt lat="49.53163" lon="1.81643">
        <ele>194</ele>
        <time>2014-06-08T12:13:04.98</time>
      </trkpt>
      <trkpt lat="49.53165" lon="1.81654">
        <ele>194.1</ele>
        <time>2014-06-08T12:13:11.98</time>
      </trkpt>
      <trkpt lat="49.53166" lon="1.81666">
        <ele>194.1</ele>
        <time>2014-06-08T12:13:17.98</time>
      </trkpt>
      <trkpt lat="49.53168" lon="1.81677">
        <ele>194.2</ele>
        <time>2014-06-08T12:13:23.98</time>
      </trkpt>
      <trkpt lat="49.5317" lon="1.81688">
        <ele>194.3</ele>
        <time>2014-06-08T12:13:30.98</time>
      </trkpt>
      <trkpt lat="49.53175" lon="1.81699">
        <ele>195</ele>
        <time>2014-06-08T12:13:37.98</time>
      </trkpt>
      <trkpt lat="49.53178" lon="1.81711">
        <ele>195.4</ele>
        <time>2014-06-08T12:13:43.98</time>
      </trkpt>
      <trkpt lat="49.5318" lon="1.81722">
        <ele>195.7</ele>
        <time>2014-06-08T12:13:49.98</time>
      </trkpt>
      <trkpt lat="49.53181" lon="1.81732">
        <ele>196.3</ele>
        <time>2014-06-08T12:13:54.98</time>
      </trkpt>
      <trkpt lat="49.53184" lon="1.81744">
        <ele>196.7</ele>
        <time>2014-06-08T12:14:00.98</time>
      </trkpt>
      <trkpt lat="49.53186" lon="1.81757">
        <ele>196.9</ele>
        <time>2014-06-08T12:14:07.98</time>
      </trkpt>
      <trkpt lat="49.53188" lon="1.81768">
        <ele>197.3</ele>
        <time>2014-06-08T12:14:14.98</time>
      </trkpt>
      <trkpt lat="49.5319" lon="1.81779">
        <ele>197.8</ele>
        <time>2014-06-08T12:14:21.98</time>
      </trkpt>
      <trkpt lat="49.53192" lon="1.81791">
        <ele>197.8</ele>
        <time>2014-06-08T12:14:28.98</time>
      </trkpt>
      <trkpt lat="49.53195" lon="1.81803">
        <ele>197.9</ele>
        <time>2014-06-08T12:14:34.98</time>
      </trkpt>
      <trkpt lat="49.53196" lon="1.81814">
        <ele>198</ele>
        <time>2014-06-08T12:14:40.98</time>
      </trkpt>
      <trkpt lat="49.53199" lon="1.81824">
        <ele>198.1</ele>
        <time>2014-06-08T12:14:47.98</time>
      </trkpt>
      <trkpt lat="49.53202" lon="1.81835">
        <ele>198.2</ele>
        <time>2014-06-08T12:14:53.98</time>
      </trkpt>
      <trkpt lat="49.53207" lon="1.81844">
        <ele>198.3</ele>
        <time>2014-06-08T12:15:00.98</time>
      </trkpt>
      <trkpt lat="49.53212" lon="1.81852">
        <ele>198.3</ele>
        <time>2014-06-08T12:15:06.98</time>
      </trkpt>
      <trkpt lat="49.53216" lon="1.81863">
        <ele>198.3</ele>
        <time>2014-06-08T12:15:13.98</time>
      </trkpt>
      <trkpt lat="49.53219" lon="1.81872">
        <ele>198.2</ele>
        <time>2014-06-08T12:15:20.98</time>
      </trkpt>
      <trkpt lat="49.53225" lon="1.81881">
        <ele>198.1</ele>
        <time>2014-06-08T12:15:27.98</time>
      </trkpt>
      <trkpt lat="49.53233" lon="1.81887">
        <ele>198.1</ele>
        <time>2014-06-08T12:15:33.98</time>
      </trkpt>
      <trkpt lat="49.53241" lon="1.81891">
        <ele>198.4</ele>
        <time>2014-06-08T12:15:38.98</time>
      </trkpt>
      <trkpt lat="49.53245" lon="1.81896">
        <ele>198.5</ele>
        <time>2014-06-08T12:15:45.98</time>
      </trkpt>
      <trkpt lat="49.5325" lon="1.81904">
        <ele>198.3</ele>
        <time>2014-06-08T12:15:52.98</time>
      </trkpt>
      <trkpt lat="49.53257" lon="1.8191">
        <ele>198.2</ele>
        <time>2014-06-08T12:15:59.98</time>
      </trkpt>
      <trkpt lat="49.53265" lon="1.81913">
        <ele>197.8</ele>
        <time>2014-06-08T12:16:03.98</time>
      </trkpt>
      <trkpt lat="49.53272" lon="1.81919">
        <ele>197.4</ele>
        <time>2014-06-08T12:16:08.98</time>
      </trkpt>
      <trkpt lat="49.53281" lon="1.81922">
        <ele>198.1</ele>
        <time>2014-06-08T12:16:16.4</time>
      </trkpt>
      <trkpt lat="49.53287" lon="1.81929">
        <ele>198.3</ele>
        <time>2014-06-08T12:16:20.34</time>
      </trkpt>
      <trkpt lat="49.53292" lon="1.8193">
        <ele>198.3</ele>
        <time>2014-06-08T12:16:27.4</time>
      </trkpt>
      <trkpt lat="49.53299" lon="1.81937">
        <ele>198.6</ele>
        <time>2014-06-08T12:16:33.99</time>
      </trkpt>
      <trkpt lat="49.53305" lon="1.81943">
        <ele>198.6</ele>
        <time>2014-06-08T12:16:39.98</time>
      </trkpt>
      <trkpt lat="49.53312" lon="1.81949">
        <ele>198.7</ele>
        <time>2014-06-08T12:16:47.24</time>
      </trkpt>
      <trkpt lat="49.53319" lon="1.81955">
        <ele>199.2</ele>
        <time>2014-06-08T12:16:53.98</time>
      </trkpt>
      <trkpt lat="49.53325" lon="1.81962">
        <ele>200.9</ele>
        <time>2014-06-08T12:17:01.84</time>
      </trkpt>
      <trkpt lat="49.53329" lon="1.81972">
        <ele>201.4</ele>
        <time>2014-06-08T12:17:08.4</time>
      </trkpt>
      <trkpt lat="49.53334" lon="1.81983">
        <ele>201.2</ele>
        <time>2014-06-08T12:17:14.34</time>
      </trkpt>
      <trkpt lat="49.53336" lon="1.81995">
        <ele>200.4</ele>
        <time>2014-06-08T12:17:20.4</time>
      </trkpt>
      <trkpt lat="49.53342" lon="1.82006">
        <ele>200.6</ele>
        <time>2014-06-08T12:17:25.99</time>
      </trkpt>
      <trkpt lat="49.53345" lon="1.82016">
        <ele>200.7</ele>
        <time>2014-06-08T12:17:30.99</time>
      </trkpt>
      <trkpt lat="49.53348" lon="1.82027">
        <ele>200.7</ele>
        <time>2014-06-08T12:17:37.4</time>
      </trkpt>
      <trkpt lat="49.53352" lon="1.82036">
        <ele>200.3</ele>
        <time>2014-06-08T12:17:44.4</time>
      </trkpt>
      <trkpt lat="49.53355" lon="1.82046">
        <ele>199.8</ele>
        <time>2014-06-08T12:17:49.99</time>
      </trkpt>
      <trkpt lat="49.53358" lon="1.82059">
        <ele>199.1</ele>
        <time>2014-06-08T12:17:56.99</time>
      </trkpt>
      <trkpt lat="49.53362" lon="1.82069">
        <ele>198.5</ele>
        <time>2014-06-08T12:18:02.4</time>
      </trkpt>
      <trkpt lat="49.53364" lon="1.8208">
        <ele>198</ele>
        <time>2014-06-08T12:18:09.4</time>
      </trkpt>
      <trkpt lat="49.53366" lon="1.82091">
        <ele>198.5</ele>
        <time>2014-06-08T12:18:16.17</time>
      </trkpt>
      <trkpt lat="49.53371" lon="1.82102">
        <ele>198.2</ele>
        <time>2014-06-08T12:18:22.14</time>
      </trkpt>
      <trkpt lat="49.53374" lon="1.82111">
        <ele>197.7</ele>
        <time>2014-06-08T12:18:27.4</time>
      </trkpt>
      <trkpt lat="49.53377" lon="1.82123">
        <ele>197.3</ele>
        <time>2014-06-08T12:18:33.4</time>
      </trkpt>
      <trkpt lat="49.5338" lon="1.82133">
        <ele>197.2</ele>
        <time>2014-06-08T12:18:39.14</time>
      </trkpt>
      <trkpt lat="49.53383" lon="1.82144">
        <ele>197.2</ele>
        <time>2014-06-08T12:18:45.98</time>
      </trkpt>
      <trkpt lat="49.53388" lon="1.82153">
        <ele>197.6</ele>
        <time>2014-06-08T12:18:52.98</time>
      </trkpt>
      <trkpt lat="49.53391" lon="1.82165">
        <ele>197.9</ele>
        <time>2014-06-08T12:18:59.98</time>
      </trkpt>
      <trkpt lat="49.53394" lon="1.82176">
        <ele>197.6</ele>
        <time>2014-06-08T12:19:04.98</time>
      </trkpt>
      <trkpt lat="49.53397" lon="1.82186">
        <ele>197.5</ele>
        <time>2014-06-08T12:19:11.98</time>
      </trkpt>
      <trkpt lat="49.53401" lon="1.82196">
        <ele>197.7</ele>
        <time>2014-06-08T12:19:17.98</time>
      </trkpt>
      <trkpt lat="49.53403" lon="1.82209">
        <ele>197.7</ele>
        <time>2014-06-08T12:19:23.98</time>
      </trkpt>
      <trkpt lat="49.53405" lon="1.82222">
        <ele>197.7</ele>
        <time>2014-06-08T12:19:29.98</time>
      </trkpt>
      <trkpt lat="49.53408" lon="1.82234">
        <ele>198</ele>
        <time>2014-06-08T12:19:35.98</time>
      </trkpt>
      <trkpt lat="49.53412" lon="1.82244">
        <ele>198.1</ele>
        <time>2014-06-08T12:19:42.98</time>
      </trkpt>
      <trkpt lat="49.53416" lon="1.82253">
        <ele>197.9</ele>
        <time>2014-06-08T12:19:48.98</time>
      </trkpt>
      <trkpt lat="49.53419" lon="1.82261">
        <ele>197.8</ele>
        <time>2014-06-08T12:19:55.98</time>
      </trkpt>
      <trkpt lat="49.53421" lon="1.82264">
        <ele>197.6</ele>
        <time>2014-06-08T12:20:02.98</time>
      </trkpt>
      <trkpt lat="49.53423" lon="1.82274">
        <ele>197.2</ele>
        <time>2014-06-08T12:20:09.98</time>
      </trkpt>
      <trkpt lat="49.53426" lon="1.82285">
        <ele>196.5</ele>
        <time>2014-06-08T12:20:15.98</time>
      </trkpt>
      <trkpt lat="49.53429" lon="1.82295">
        <ele>196.1</ele>
        <time>2014-06-08T12:20:22.98</time>
      </trkpt>
      <trkpt lat="49.53431" lon="1.82307">
        <ele>195.7</ele>
        <time>2014-06-08T12:20:28.98</time>
      </trkpt>
      <trkpt lat="49.53433" lon="1.82319">
        <ele>195.4</ele>
        <time>2014-06-08T12:20:34.98</time>
      </trkpt>
      <trkpt lat="49.53433" lon="1.82332">
        <ele>195</ele>
        <time>2014-06-08T12:20:40.98</time>
      </trkpt>
      <trkpt lat="49.53436" lon="1.82345">
        <ele>194.6</ele>
        <time>2014-06-08T12:20:46.98</time>
      </trkpt>
      <trkpt lat="49.53437" lon="1.82353">
        <ele>194.5</ele>
        <time>2014-06-08T12:20:53.98</time>
      </trkpt>
      <trkpt lat="49.5344" lon="1.82365">
        <ele>194.5</ele>
        <time>2014-06-08T12:21:00.98</time>
      </trkpt>
      <trkpt lat="49.53441" lon="1.82377">
        <ele>194.4</ele>
        <time>2014-06-08T12:21:05.98</time>
      </trkpt>
      <trkpt lat="49.53443" lon="1.82382">
        <ele>194.2</ele>
        <time>2014-06-08T12:21:12.98</time>
      </trkpt>
      <trkpt lat="49.53445" lon="1.82393">
        <ele>194</ele>
        <time>2014-06-08T12:21:19.98</time>
      </trkpt>
      <trkpt lat="49.53449" lon="1.82405">
        <ele>193.6</ele>
        <time>2014-06-08T12:21:25.98</time>
      </trkpt>
      <trkpt lat="49.53452" lon="1.82416">
        <ele>193.1</ele>
        <time>2014-06-08T12:21:31.98</time>
      </trkpt>
      <trkpt lat="49.53455" lon="1.82427">
        <ele>192.4</ele>
        <time>2014-06-08T12:21:37.98</time>
      </trkpt>
      <trkpt lat="49.53455" lon="1.82439">
        <ele>191.9</ele>
        <time>2014-06-08T12:21:42.97</time>
      </trkpt>
      <trkpt lat="49.53457" lon="1.82447">
        <ele>191.2</ele>
        <time>2014-06-08T12:21:49.98</time>
      </trkpt>
      <trkpt lat="49.53462" lon="1.82456">
        <ele>190.7</ele>
        <time>2014-06-08T12:21:55.98</time>
      </trkpt>
      <trkpt lat="49.53466" lon="1.82466">
        <ele>190</ele>
        <time>2014-06-08T12:22:01.98</time>
      </trkpt>
      <trkpt lat="49.5347" lon="1.82478">
        <ele>189.4</ele>
        <time>2014-06-08T12:22:07.98</time>
      </trkpt>
      <trkpt lat="49.53474" lon="1.82487">
        <ele>188.8</ele>
        <time>2014-06-08T12:22:14.4</time>
      </trkpt>
      <trkpt lat="49.53478" lon="1.82498">
        <ele>188.5</ele>
        <time>2014-06-08T12:22:19.98</time>
      </trkpt>
      <trkpt lat="49.53484" lon="1.82505">
        <ele>188.2</ele>
        <time>2014-06-08T12:22:24.98</time>
      </trkpt>
      <trkpt lat="49.53487" lon="1.82516">
        <ele>187.3</ele>
        <time>2014-06-08T12:22:31.98</time>
      </trkpt>
      <trkpt lat="49.53492" lon="1.82525">
        <ele>186.5</ele>
        <time>2014-06-08T12:22:36.97</time>
      </trkpt>
      <trkpt lat="49.53497" lon="1.82534">
        <ele>185.2</ele>
        <time>2014-06-08T12:22:42.97</time>
      </trkpt>
      <trkpt lat="49.535" lon="1.82545">
        <ele>184.4</ele>
        <time>2014-06-08T12:22:48.98</time>
      </trkpt>
      <trkpt lat="49.53505" lon="1.82554">
        <ele>183.1</ele>
        <time>2014-06-08T12:22:54.97</time>
      </trkpt>
      <trkpt lat="49.53511" lon="1.82562">
        <ele>182.6</ele>
        <time>2014-06-08T12:22:59.97</time>
      </trkpt>
      <trkpt lat="49.53517" lon="1.82569">
        <ele>182.2</ele>
        <time>2014-06-08T12:23:05.97</time>
      </trkpt>
      <trkpt lat="49.53519" lon="1.82577">
        <ele>180.8</ele>
        <time>2014-06-08T12:23:12.97</time>
      </trkpt>
      <trkpt lat="49.5352" lon="1.82581">
        <ele>180.7</ele>
        <time>2014-06-08T12:23:19.98</time>
      </trkpt>
      <trkpt lat="49.53526" lon="1.82589">
        <ele>180.2</ele>
        <time>2014-06-08T12:23:22.99</time>
      </trkpt>
      <trkpt lat="49.53531" lon="1.82596">
        <ele>180.2</ele>
        <time>2014-06-08T12:23:28.97</time>
      </trkpt>
      <trkpt lat="49.53537" lon="1.82607">
        <ele>180</ele>
        <time>2014-06-08T12:23:34.97</time>
      </trkpt>
      <trkpt lat="49.53544" lon="1.82612">
        <ele>180</ele>
        <time>2014-06-08T12:23:41.97</time>
      </trkpt>
      <trkpt lat="49.53548" lon="1.82619">
        <ele>180</ele>
        <time>2014-06-08T12:23:48.97</time>
      </trkpt>
      <trkpt lat="49.53549" lon="1.82624">
        <ele>179.6</ele>
        <time>2014-06-08T12:23:55.97</time>
      </trkpt>
      <trkpt lat="49.5355" lon="1.82634">
        <ele>179.4</ele>
        <time>2014-06-08T12:24:02.98</time>
      </trkpt>
      <trkpt lat="49.53551" lon="1.82646">
        <ele>179</ele>
        <time>2014-06-08T12:24:09.97</time>
      </trkpt>
      <trkpt lat="49.53558" lon="1.82653">
        <ele>178.6</ele>
        <time>2014-06-08T12:24:15.97</time>
      </trkpt>
      <trkpt lat="49.53565" lon="1.82658">
        <ele>178.4</ele>
        <time>2014-06-08T12:24:20.98</time>
      </trkpt>
      <trkpt lat="49.53571" lon="1.82666">
        <ele>178.3</ele>
        <time>2014-06-08T12:24:27.97</time>
      </trkpt>
      <trkpt lat="49.53576" lon="1.82674">
        <ele>177.8</ele>
        <time>2014-06-08T12:24:34.98</time>
      </trkpt>
      <trkpt lat="49.53583" lon="1.82679">
        <ele>177.6</ele>
        <time>2014-06-08T12:24:41.97</time>
      </trkpt>
      <trkpt lat="49.53588" lon="1.82687">
        <ele>177</ele>
        <time>2014-06-08T12:24:46.97</time>
      </trkpt>
      <trkpt lat="49.53593" lon="1.82696">
        <ele>176.7</ele>
        <time>2014-06-08T12:24:51.97</time>
      </trkpt>
      <trkpt lat="49.53598" lon="1.82704">
        <ele>176.5</ele>
        <time>2014-06-08T12:24:58.98</time>
      </trkpt>
      <trkpt lat="49.53602" lon="1.82711">
        <ele>176</ele>
        <time>2014-06-08T12:25:05.97</time>
      </trkpt>
      <trkpt lat="49.53606" lon="1.82719">
        <ele>175.7</ele>
        <time>2014-06-08T12:25:12.97</time>
      </trkpt>
      <trkpt lat="49.53612" lon="1.82727">
        <ele>175.6</ele>
        <time>2014-06-08T12:25:17.97</time>
      </trkpt>
      <trkpt lat="49.53618" lon="1.82735">
        <ele>175.2</ele>
        <time>2014-06-08T12:25:22.97</time>
      </trkpt>
      <trkpt lat="49.53622" lon="1.8274">
        <ele>174.8</ele>
        <time>2014-06-08T12:25:29.97</time>
      </trkpt>
      <trkpt lat="49.53629" lon="1.82745">
        <ele>173.9</ele>
        <time>2014-06-08T12:25:36.97</time>
      </trkpt>
      <trkpt lat="49.53637" lon="1.82747">
        <ele>173.3</ele>
        <time>2014-06-08T12:25:43.97</time>
      </trkpt>
      <trkpt lat="49.53643" lon="1.82747">
        <ele>172.9</ele>
        <time>2014-06-08T12:25:50.98</time>
      </trkpt>
      <trkpt lat="49.53649" lon="1.8275">
        <ele>172.5</ele>
        <time>2014-06-08T12:25:57.97</time>
      </trkpt>
      <trkpt lat="49.53653" lon="1.82754">
        <ele>172.3</ele>
        <time>2014-06-08T12:26:04.98</time>
      </trkpt>
      <trkpt lat="49.53653" lon="1.82755">
        <ele>172.1</ele>
        <time>2014-06-08T12:26:11.97</time>
      </trkpt>
      <trkpt lat="49.53658" lon="1.82762">
        <ele>172</ele>
        <time>2014-06-08T12:26:14.54</time>
      </trkpt>
      <trkpt lat="49.53663" lon="1.82766">
        <ele>172</ele>
        <time>2014-06-08T12:26:21.34</time>
      </trkpt>
      <trkpt lat="49.53671" lon="1.82765">
        <ele>172</ele>
        <time>2014-06-08T12:26:28.34</time>
      </trkpt>
      <trkpt lat="49.53676" lon="1.82766">
        <ele>171.9</ele>
        <time>2014-06-08T12:26:35.34</time>
      </trkpt>
      <trkpt lat="49.53684" lon="1.82766">
        <ele>171.4</ele>
        <time>2014-06-08T12:26:41.34</time>
      </trkpt>
      <trkpt lat="49.53691" lon="1.82762">
        <ele>171.5</ele>
        <time>2014-06-08T12:26:46.34</time>
      </trkpt>
      <trkpt lat="49.53697" lon="1.8276">
        <ele>171.4</ele>
        <time>2014-06-08T12:26:53.34</time>
      </trkpt>
      <trkpt lat="49.53702" lon="1.8276">
        <ele>171.3</ele>
        <time>2014-06-08T12:27:00.34</time>
      </trkpt>
      <trkpt lat="49.53705" lon="1.82758">
        <ele>171</ele>
        <time>2014-06-08T12:27:07.34</time>
      </trkpt>
      <trkpt lat="49.53712" lon="1.82758">
        <ele>173.1</ele>
        <time>2014-06-08T12:27:09.44</time>
      </trkpt>
      <trkpt lat="49.53707" lon="1.82758">
        <ele>173.9</ele>
        <time>2014-06-08T12:27:16.34</time>
      </trkpt>
      <trkpt lat="49.5371" lon="1.82752">
        <ele>173.8</ele>
        <time>2014-06-08T12:27:23.14</time>
      </trkpt>
      <trkpt lat="49.53714" lon="1.82742">
        <ele>173.8</ele>
        <time>2014-06-08T12:27:28.4</time>
      </trkpt>
      <trkpt lat="49.53718" lon="1.82732">
        <ele>173.7</ele>
        <time>2014-06-08T12:27:34.24</time>
      </trkpt>
      <trkpt lat="49.53723" lon="1.82721">
        <ele>173.7</ele>
        <time>2014-06-08T12:27:40.4</time>
      </trkpt>
      <trkpt lat="49.53728" lon="1.82712">
        <ele>173.7</ele>
        <time>2014-06-08T12:27:45.99</time>
      </trkpt>
      <trkpt lat="49.53733" lon="1.82703">
        <ele>173.7</ele>
        <time>2014-06-08T12:27:52.34</time>
      </trkpt>
      <trkpt lat="49.53736" lon="1.82693">
        <ele>173.7</ele>
        <time>2014-06-08T12:27:56.99</time>
      </trkpt>
      <trkpt lat="49.53742" lon="1.82685">
        <ele>173.7</ele>
        <time>2014-06-08T12:28:03.14</time>
      </trkpt>
      <trkpt lat="49.53749" lon="1.82679">
        <ele>173.6</ele>
        <time>2014-06-08T12:28:08.4</time>
      </trkpt>
      <trkpt lat="49.53754" lon="1.82669">
        <ele>173.9</ele>
        <time>2014-06-08T12:28:14.4</time>
      </trkpt>
      <trkpt lat="49.53759" lon="1.82658">
        <ele>174.2</ele>
        <time>2014-06-08T12:28:20.4</time>
      </trkpt>
      <trkpt lat="49.53763" lon="1.82647">
        <ele>174.9</ele>
        <time>2014-06-08T12:28:26.98</time>
      </trkpt>
      <trkpt lat="49.5377" lon="1.82639">
        <ele>175.1</ele>
        <time>2014-06-08T12:28:32.98</time>
      </trkpt>
      <trkpt lat="49.53775" lon="1.82631">
        <ele>175.1</ele>
        <time>2014-06-08T12:28:37.99</time>
      </trkpt>
      <trkpt lat="49.53781" lon="1.82622">
        <ele>175</ele>
        <time>2014-06-08T12:28:44.98</time>
      </trkpt>
      <trkpt lat="49.53786" lon="1.82612">
        <ele>175</ele>
        <time>2014-06-08T12:28:50.98</time>
      </trkpt>
      <trkpt lat="49.5379" lon="1.82603">
        <ele>174.8</ele>
        <time>2014-06-08T12:28:57.98</time>
      </trkpt>
      <trkpt lat="49.53794" lon="1.82592">
        <ele>174.7</ele>
        <time>2014-06-08T12:29:03.98</time>
      </trkpt>
      <trkpt lat="49.53799" lon="1.82582">
        <ele>174.6</ele>
        <time>2014-06-08T12:29:09.98</time>
      </trkpt>
      <trkpt lat="49.53804" lon="1.82574">
        <ele>174.4</ele>
        <time>2014-06-08T12:29:15.98</time>
      </trkpt>
      <trkpt lat="49.5381" lon="1.82567">
        <ele>174.4</ele>
        <time>2014-06-08T12:29:21.98</time>
      </trkpt>
      <trkpt lat="49.53816" lon="1.82562">
        <ele>174</ele>
        <time>2014-06-08T12:29:29.4</time>
      </trkpt>
      <trkpt lat="49.53823" lon="1.82555">
        <ele>173.6</ele>
        <time>2014-06-08T12:29:35.98</time>
      </trkpt>
      <trkpt lat="49.53828" lon="1.82545">
        <ele>173.4</ele>
        <time>2014-06-08T12:29:41.98</time>
      </trkpt>
      <trkpt lat="49.53834" lon="1.82538">
        <ele>173</ele>
        <time>2014-06-08T12:29:47.98</time>
      </trkpt>
      <trkpt lat="49.53839" lon="1.82529">
        <ele>172.6</ele>
        <time>2014-06-08T12:29:54.98</time>
      </trkpt>
      <trkpt lat="49.53843" lon="1.82518">
        <ele>172.4</ele>
        <time>2014-06-08T12:30:00.98</time>
      </trkpt>
      <trkpt lat="49.53846" lon="1.82514">
        <ele>172.1</ele>
        <time>2014-06-08T12:30:07.98</time>
      </trkpt>
      <trkpt lat="49.53851" lon="1.82505">
        <ele>171.4</ele>
        <time>2014-06-08T12:30:13.98</time>
      </trkpt>
      <trkpt lat="49.53857" lon="1.82496">
        <ele>170.8</ele>
        <time>2014-06-08T12:30:19.98</time>
      </trkpt>
      <trkpt lat="49.53863" lon="1.82488">
        <ele>170.3</ele>
        <time>2014-06-08T12:30:25.98</time>
      </trkpt>
      <trkpt lat="49.53869" lon="1.8248">
        <ele>169.8</ele>
        <time>2014-06-08T12:30:30.98</time>
      </trkpt>
      <trkpt lat="49.53875" lon="1.82477">
        <ele>169.5</ele>
        <time>2014-06-08T12:30:37.98</time>
      </trkpt>
      <trkpt lat="49.53879" lon="1.8247">
        <ele>168.7</ele>
        <time>2014-06-08T12:30:44.98</time>
      </trkpt>
      <trkpt lat="49.53881" lon="1.82469">
        <ele>167.9</ele>
        <time>2014-06-08T12:30:51.98</time>
      </trkpt>
      <trkpt lat="49.53884" lon="1.82469">
        <ele>165</ele>
        <time>2014-06-08T12:30:55.4</time>
      </trkpt>
      <trkpt lat="49.53885" lon="1.82472">
        <ele>165.8</ele>
        <time>2014-06-08T12:31:02.34</time>
      </trkpt>
      <trkpt lat="49.53892" lon="1.82477">
        <ele>166.1</ele>
        <time>2014-06-08T12:31:07.24</time>
      </trkpt>
      <trkpt lat="49.53896" lon="1.82474">
        <ele>166.1</ele>
        <time>2014-06-08T12:31:13.99</time>
      </trkpt>
      <trkpt lat="49.53904" lon="1.82474">
        <ele>166</ele>
        <time>2014-06-08T12:31:18.99</time>
      </trkpt>
      <trkpt lat="49.5391" lon="1.82469">
        <ele>166</ele>
        <time>2014-06-08T12:31:25.99</time>
      </trkpt>
      <trkpt lat="49.53915" lon="1.82464">
        <ele>166.2</ele>
        <time>2014-06-08T12:31:32.99</time>
      </trkpt>
      <trkpt lat="49.53922" lon="1.82456">
        <ele>166.2</ele>
        <time>2014-06-08T12:31:39.99</time>
      </trkpt>
      <trkpt lat="49.53929" lon="1.82453">
        <ele>166.3</ele>
        <time>2014-06-08T12:31:44.99</time>
      </trkpt>
      <trkpt lat="49.53935" lon="1.82447">
        <ele>166.2</ele>
        <time>2014-06-08T12:31:50.99</time>
      </trkpt>
      <trkpt lat="49.53944" lon="1.82446">
        <ele>166.2</ele>
        <time>2014-06-08T12:31:56.99</time>
      </trkpt>
      <trkpt lat="49.53951" lon="1.82443">
        <ele>166.2</ele>
        <time>2014-06-08T12:32:01.99</time>
      </trkpt>
      <trkpt lat="49.53959" lon="1.8244">
        <ele>166.3</ele>
        <time>2014-06-08T12:32:06.99</time>
      </trkpt>
      <trkpt lat="49.53967" lon="1.82437">
        <ele>166.3</ele>
        <time>2014-06-08T12:32:12.99</time>
      </trkpt>
      <trkpt lat="49.53974" lon="1.82433">
        <ele>166.6</ele>
        <time>2014-06-08T12:32:19.99</time>
      </trkpt>
      <trkpt lat="49.5398" lon="1.82428">
        <ele>166.7</ele>
        <time>2014-06-08T12:32:26.99</time>
      </trkpt>
      <trkpt lat="49.53987" lon="1.82427">
        <ele>166.8</ele>
        <time>2014-06-08T12:32:32.99</time>
      </trkpt>
      <trkpt lat="49.53994" lon="1.82424">
        <ele>167</ele>
        <time>2014-06-08T12:32:39.99</time>
      </trkpt>
      <trkpt lat="49.54001" lon="1.82421">
        <ele>167.1</ele>
        <time>2014-06-08T12:32:46.99</time>
      </trkpt>
      <trkpt lat="49.54007" lon="1.82418">
        <ele>167.2</ele>
        <time>2014-06-08T12:32:53.99</time>
      </trkpt>
      <trkpt lat="49.54014" lon="1.82415">
        <ele>167.4</ele>
        <time>2014-06-08T12:32:58.99</time>
      </trkpt>
      <trkpt lat="49.54022" lon="1.82412">
        <ele>167.6</ele>
        <time>2014-06-08T12:33:05.99</time>
      </trkpt>
      <trkpt lat="49.54029" lon="1.8241">
        <ele>168.2</ele>
        <time>2014-06-08T12:33:12.99</time>
      </trkpt>
      <trkpt lat="49.54033" lon="1.82409">
        <ele>168.5</ele>
        <time>2014-06-08T12:33:19.99</time>
      </trkpt>
      <trkpt lat="49.54036" lon="1.82403">
        <ele>168.7</ele>
        <time>2014-06-08T12:33:26.99</time>
      </trkpt>
      <trkpt lat="49.54041" lon="1.82398">
        <ele>168.6</ele>
        <time>2014-06-08T12:33:33.99</time>
      </trkpt>
      <trkpt lat="49.54047" lon="1.82391">
        <ele>168.7</ele>
        <time>2014-06-08T12:33:38.99</time>
      </trkpt>
      <trkpt lat="49.54054" lon="1.82388">
        <ele>168.8</ele>
        <time>2014-06-08T12:33:44.99</time>
      </trkpt>
      <trkpt lat="49.54061" lon="1.82382">
        <ele>169.1</ele>
        <time>2014-06-08T12:33:51.99</time>
      </trkpt>
      <trkpt lat="49.54067" lon="1.82378">
        <ele>169.2</ele>
        <time>2014-06-08T12:33:59.4</time>
      </trkpt>
      <trkpt lat="49.54075" lon="1.82378">
        <ele>169.4</ele>
        <time>2014-06-08T12:34:04.99</time>
      </trkpt>
      <trkpt lat="49.54082" lon="1.82372">
        <ele>169.5</ele>
        <time>2014-06-08T12:34:11.99</time>
      </trkpt>
      <trkpt lat="49.54089" lon="1.82368">
        <ele>170</ele>
        <time>2014-06-08T12:34:17.99</time>
      </trkpt>
      <trkpt lat="49.54097" lon="1.82364">
        <ele>170.4</ele>
        <time>2014-06-08T12:34:23.98</time>
      </trkpt>
      <trkpt lat="49.541" lon="1.8236">
        <ele>170.5</ele>
        <time>2014-06-08T12:34:30.99</time>
      </trkpt>
      <trkpt lat="49.54108" lon="1.82356">
        <ele>170.9</ele>
        <time>2014-06-08T12:34:36.99</time>
      </trkpt>
      <trkpt lat="49.54115" lon="1.82352">
        <ele>171.2</ele>
        <time>2014-06-08T12:34:43.99</time>
      </trkpt>
      <trkpt lat="49.54118" lon="1.82349">
        <ele>171.4</ele>
        <time>2014-06-08T12:34:50.99</time>
      </trkpt>
      <trkpt lat="49.54123" lon="1.82351">
        <ele>171.5</ele>
        <time>2014-06-08T12:34:57.99</time>
      </trkpt>
      <trkpt lat="49.54123" lon="1.82357">
        <ele>172.5</ele>
        <time>2014-06-08T12:35:04.99</time>
      </trkpt>
      <trkpt lat="49.54121" lon="1.82365">
        <ele>173.3</ele>
        <time>2014-06-08T12:35:11.99</time>
      </trkpt>
      <trkpt lat="49.54122" lon="1.8237">
        <ele>173.5</ele>
        <time>2014-06-08T12:35:18.99</time>
      </trkpt>
      <trkpt lat="49.54124" lon="1.82376">
        <ele>173.6</ele>
        <time>2014-06-08T12:35:25.99</time>
      </trkpt>
      <trkpt lat="49.54127" lon="1.82382">
        <ele>173.9</ele>
        <time>2014-06-08T12:35:32.98</time>
      </trkpt>
      <trkpt lat="49.54125" lon="1.82383">
        <ele>173.9</ele>
        <time>2014-06-08T12:35:39.99</time>
      </trkpt>
      <trkpt lat="49.54127" lon="1.82391">
        <ele>174.6</ele>
        <time>2014-06-08T12:35:42.4</time>
      </trkpt>
      <trkpt lat="49.54126" lon="1.82393">
        <ele>175.2</ele>
        <time>2014-06-08T12:35:48.98</time>
      </trkpt>
      <trkpt lat="49.54128" lon="1.82396">
        <ele>175.7</ele>
        <time>2014-06-08T12:35:52.4</time>
      </trkpt>
      <trkpt lat="49.54126" lon="1.8239">
        <ele>178.1</ele>
        <time>2014-06-08T12:35:59.4</time>
      </trkpt>
      <trkpt lat="49.54121" lon="1.82399">
        <ele>180.4</ele>
        <time>2014-06-08T12:36:02.24</time>
      </trkpt>
      <trkpt lat="49.5412" lon="1.82409">
        <ele>181</ele>
        <time>2014-06-08T12:36:09.4</time>
      </trkpt>
      <trkpt lat="49.54117" lon="1.8242">
        <ele>181.4</ele>
        <time>2014-06-08T12:36:16.4</time>
      </trkpt>
      <trkpt lat="49.54115" lon="1.8243">
        <ele>181.6</ele>
        <time>2014-06-08T12:36:23.4</time>
      </trkpt>
      <trkpt lat="49.54119" lon="1.82437">
        <ele>182</ele>
        <time>2014-06-08T12:36:30.4</time>
      </trkpt>
      <trkpt lat="49.54121" lon="1.82444">
        <ele>182.4</ele>
        <time>2014-06-08T12:36:37.4</time>
      </trkpt>
      <trkpt lat="49.54123" lon="1.8245">
        <ele>182.8</ele>
        <time>2014-06-08T12:36:44.4</time>
      </trkpt>
      <trkpt lat="49.54126" lon="1.82456">
        <ele>183.1</ele>
        <time>2014-06-08T12:36:51.4</time>
      </trkpt>
      <trkpt lat="49.54129" lon="1.82462">
        <ele>183.4</ele>
        <time>2014-06-08T12:36:58.4</time>
      </trkpt>
      <trkpt lat="49.54134" lon="1.82468">
        <ele>183.9</ele>
        <time>2014-06-08T12:37:05.4</time>
      </trkpt>
      <trkpt lat="49.54137" lon="1.8247">
        <ele>184.3</ele>
        <time>2014-06-08T12:37:12.4</time>
      </trkpt>
      <trkpt lat="49.54143" lon="1.82477">
        <ele>184.9</ele>
        <time>2014-06-08T12:37:19.4</time>
      </trkpt>
      <trkpt lat="49.54146" lon="1.82485">
        <ele>185.4</ele>
        <time>2014-06-08T12:37:26.4</time>
      </trkpt>
      <trkpt lat="49.54152" lon="1.82494">
        <ele>185.8</ele>
        <time>2014-06-08T12:37:32.4</time>
      </trkpt>
      <trkpt lat="49.54155" lon="1.82504">
        <ele>186.1</ele>
        <time>2014-06-08T12:37:36.4</time>
      </trkpt>
      <trkpt lat="49.54158" lon="1.82513">
        <ele>186.4</ele>
        <time>2014-06-08T12:37:41.24</time>
      </trkpt>
      <trkpt lat="49.5416" lon="1.82519">
        <ele>186.5</ele>
        <time>2014-06-08T12:37:48.4</time>
      </trkpt>
      <trkpt lat="49.54165" lon="1.82525">
        <ele>186.3</ele>
        <time>2014-06-08T12:37:55.4</time>
      </trkpt>
      <trkpt lat="49.54169" lon="1.82529">
        <ele>186.2</ele>
        <time>2014-06-08T12:38:02.4</time>
      </trkpt>
      <trkpt lat="49.54176" lon="1.82534">
        <ele>186.1</ele>
        <time>2014-06-08T12:38:09.4</time>
      </trkpt>
      <trkpt lat="49.54181" lon="1.8254">
        <ele>186.1</ele>
        <time>2014-06-08T12:38:16.13</time>
      </trkpt>
      <trkpt lat="49.5419" lon="1.82543">
        <ele>186.1</ele>
        <time>2014-06-08T12:38:23.4</time>
      </trkpt>
      <trkpt lat="49.54197" lon="1.82541">
        <ele>186.1</ele>
        <time>2014-06-08T12:38:29.4</time>
      </trkpt>
      <trkpt lat="49.54203" lon="1.82543">
        <ele>186.2</ele>
        <time>2014-06-08T12:38:36.4</time>
      </trkpt>
      <trkpt lat="49.54204" lon="1.82545">
        <ele>186.2</ele>
        <time>2014-06-08T12:38:43.4</time>
      </trkpt>
      <trkpt lat="49.54211" lon="1.8254">
        <ele>186</ele>
        <time>2014-06-08T12:38:45.24</time>
      </trkpt>
      <trkpt lat="49.54215" lon="1.82542">
        <ele>186</ele>
        <time>2014-06-08T12:38:51.99</time>
      </trkpt>
      <trkpt lat="49.54228" lon="1.82542">
        <ele>186.2</ele>
        <time>2014-06-08T12:38:58.4</time>
      </trkpt>
      <trkpt lat="49.54242" lon="1.82551">
        <ele>186.1</ele>
        <time>2014-06-08T12:39:02.24</time>
      </trkpt>
      <trkpt lat="49.54245" lon="1.82551">
        <ele>186.2</ele>
        <time>2014-06-08T12:39:08.99</time>
      </trkpt>
      <trkpt lat="49.54249" lon="1.82555">
        <ele>185.3</ele>
        <time>2014-06-08T12:39:13.4</time>
      </trkpt>
      <trkpt lat="49.54251" lon="1.82559">
        <ele>185</ele>
        <time>2014-06-08T12:39:19.99</time>
      </trkpt>
      <trkpt lat="49.5425" lon="1.82561">
        <ele>184.9</ele>
        <time>2014-06-08T12:39:26.99</time>
      </trkpt>
      <trkpt lat="49.54245" lon="1.82569">
        <ele>184.8</ele>
        <time>2014-06-08T12:39:30.4</time>
      </trkpt>
      <trkpt lat="49.54244" lon="1.82582">
        <ele>185.8</ele>
        <time>2014-06-08T12:39:37.4</time>
      </trkpt>
      <trkpt lat="49.54244" lon="1.82594">
        <ele>185.7</ele>
        <time>2014-06-08T12:39:42.4</time>
      </trkpt>
      <trkpt lat="49.54243" lon="1.82605">
        <ele>185.8</ele>
        <time>2014-06-08T12:39:47.99</time>
      </trkpt>
      <trkpt lat="49.5424" lon="1.82615">
        <ele>185.8</ele>
        <time>2014-06-08T12:39:53.4</time>
      </trkpt>
      <trkpt lat="49.54238" lon="1.82618">
        <ele>186.2</ele>
        <time>2014-06-08T12:40:00.44</time>
      </trkpt>
      <trkpt lat="49.54238" lon="1.82615">
        <ele>186.8</ele>
        <time>2014-06-08T12:40:07.24</time>
      </trkpt>
      <trkpt lat="49.54246" lon="1.82617">
        <ele>187.5</ele>
        <time>2014-06-08T12:40:11.24</time>
      </trkpt>
      <trkpt lat="49.54251" lon="1.82626">
        <ele>187.8</ele>
        <time>2014-06-08T12:40:17.24</time>
      </trkpt>
      <trkpt lat="49.54255" lon="1.82637">
        <ele>187.9</ele>
        <time>2014-06-08T12:40:23.16</time>
      </trkpt>
      <trkpt lat="49.54258" lon="1.82647">
        <ele>188</ele>
        <time>2014-06-08T12:40:30.34</time>
      </trkpt>
      <trkpt lat="49.54263" lon="1.82657">
        <ele>188.2</ele>
        <time>2014-06-08T12:40:37.64</time>
      </trkpt>
      <trkpt lat="49.54267" lon="1.82666">
        <ele>188.4</ele>
        <time>2014-06-08T12:40:44.27</time>
      </trkpt>
      <trkpt lat="49.54272" lon="1.82674">
        <ele>188.7</ele>
        <time>2014-06-08T12:40:51.24</time>
      </trkpt>
      <trkpt lat="49.54277" lon="1.82683">
        <ele>189</ele>
        <time>2014-06-08T12:40:57.99</time>
      </trkpt>
      <trkpt lat="49.5428" lon="1.82691">
        <ele>189.3</ele>
        <time>2014-06-08T12:41:05.44</time>
      </trkpt>
      <trkpt lat="49.54283" lon="1.82697">
        <ele>189.5</ele>
        <time>2014-06-08T12:41:12.24</time>
      </trkpt>
      <trkpt lat="49.54287" lon="1.82705">
        <ele>189.9</ele>
        <time>2014-06-08T12:41:19.24</time>
      </trkpt>
      <trkpt lat="49.54295" lon="1.8271">
        <ele>190.4</ele>
        <time>2014-06-08T12:41:24.4</time>
      </trkpt>
      <trkpt lat="49.543" lon="1.82719">
        <ele>190.7</ele>
        <time>2014-06-08T12:41:27.44</time>
      </trkpt>
      <trkpt lat="49.54305" lon="1.82727">
        <ele>191.3</ele>
        <time>2014-06-08T12:41:32.4</time>
      </trkpt>
      <trkpt lat="49.54309" lon="1.82732">
        <ele>191.7</ele>
        <time>2014-06-08T12:41:38.99</time>
      </trkpt>
      <trkpt lat="49.54312" lon="1.82738">
        <ele>192</ele>
        <time>2014-06-08T12:41:45.98</time>
      </trkpt>
      <trkpt lat="49.54318" lon="1.82747">
        <ele>192.3</ele>
        <time>2014-06-08T12:41:52.99</time>
      </trkpt>
      <trkpt lat="49.54324" lon="1.82758">
        <ele>192.4</ele>
        <time>2014-06-08T12:41:59.99</time>
      </trkpt>
      <trkpt lat="49.54328" lon="1.82768">
        <ele>192.4</ele>
        <time>2014-06-08T12:42:05.99</time>
      </trkpt>
      <trkpt lat="49.54332" lon="1.82777">
        <ele>192.3</ele>
        <time>2014-06-08T12:42:11.84</time>
      </trkpt>
      <trkpt lat="49.54338" lon="1.82783">
        <ele>192.2</ele>
        <time>2014-06-08T12:42:17.54</time>
      </trkpt>
      <trkpt lat="49.54345" lon="1.82788">
        <ele>192.2</ele>
        <time>2014-06-08T12:42:23.24</time>
      </trkpt>
      <trkpt lat="49.54348" lon="1.82791">
        <ele>192</ele>
        <time>2014-06-08T12:42:29.99</time>
      </trkpt>
      <trkpt lat="49.54354" lon="1.82799">
        <ele>191.8</ele>
        <time>2014-06-08T12:42:35.56</time>
      </trkpt>
      <trkpt lat="49.54365" lon="1.82802">
        <ele>192.1</ele>
        <time>2014-06-08T12:42:42.56</time>
      </trkpt>
      <trkpt lat="49.54366" lon="1.82806">
        <ele>191.8</ele>
        <time>2014-06-08T12:42:49.53</time>
      </trkpt>
      <trkpt lat="49.5437" lon="1.82809">
        <ele>191.5</ele>
        <time>2014-06-08T12:42:56.53</time>
      </trkpt>
      <trkpt lat="49.54373" lon="1.8281">
        <ele>191.4</ele>
        <time>2014-06-08T12:43:03.53</time>
      </trkpt>
      <trkpt lat="49.54378" lon="1.82817">
        <ele>191.3</ele>
        <time>2014-06-08T12:43:10.53</time>
      </trkpt>
      <trkpt lat="49.54384" lon="1.8282">
        <ele>191.1</ele>
        <time>2014-06-08T12:43:17.53</time>
      </trkpt>
      <trkpt lat="49.5439" lon="1.82827">
        <ele>190.8</ele>
        <time>2014-06-08T12:43:24.53</time>
      </trkpt>
      <trkpt lat="49.54397" lon="1.82832">
        <ele>190.5</ele>
        <time>2014-06-08T12:43:31.53</time>
      </trkpt>
      <trkpt lat="49.54407" lon="1.82838">
        <ele>190.2</ele>
        <time>2014-06-08T12:43:36.53</time>
      </trkpt>
      <trkpt lat="49.54412" lon="1.82845">
        <ele>189.9</ele>
        <time>2014-06-08T12:43:39.53</time>
      </trkpt>
      <trkpt lat="49.54418" lon="1.82853">
        <ele>189.6</ele>
        <time>2014-06-08T12:43:44.53</time>
      </trkpt>
      <trkpt lat="49.54422" lon="1.82857">
        <ele>189.1</ele>
        <time>2014-06-08T12:43:51.53</time>
      </trkpt>
      <trkpt lat="49.54422" lon="1.82858">
        <ele>188.9</ele>
        <time>2014-06-08T12:43:58.53</time>
      </trkpt>
      <trkpt lat="49.54419" lon="1.82861">
        <ele>188.8</ele>
        <time>2014-06-08T12:44:01.55</time>
      </trkpt>
      <trkpt lat="49.54419" lon="1.82867">
        <ele>188.7</ele>
        <time>2014-06-08T12:44:08.49</time>
      </trkpt>
      <trkpt lat="49.54416" lon="1.82872">
        <ele>188.6</ele>
        <time>2014-06-08T12:44:15.50</time>
      </trkpt>
      <trkpt lat="49.54419" lon="1.82869">
        <ele>188.5</ele>
        <time>2014-06-08T12:44:22.50</time>
      </trkpt>
      <trkpt lat="49.54421" lon="1.82873">
        <ele>187.2</ele>
        <time>2014-06-08T12:44:29.53</time>
      </trkpt>
      <trkpt lat="49.54418" lon="1.82881">
        <ele>186.7</ele>
        <time>2014-06-08T12:44:36.50</time>
      </trkpt>
      <trkpt lat="49.54418" lon="1.82892">
        <ele>186.5</ele>
        <time>2014-06-08T12:44:43.50</time>
      </trkpt>
      <trkpt lat="49.54417" lon="1.82904">
        <ele>186.1</ele>
        <time>2014-06-08T12:44:50.50</time>
      </trkpt>
      <trkpt lat="49.54413" lon="1.82916">
        <ele>186.1</ele>
        <time>2014-06-08T12:44:57.50</time>
      </trkpt>
      <trkpt lat="49.54409" lon="1.82927">
        <ele>186</ele>
        <time>2014-06-08T12:45:03.50</time>
      </trkpt>
      <trkpt lat="49.54407" lon="1.82938">
        <ele>186</ele>
        <time>2014-06-08T12:45:10.50</time>
      </trkpt>
      <trkpt lat="49.54407" lon="1.82948">
        <ele>185.9</ele>
        <time>2014-06-08T12:45:17.50</time>
      </trkpt>
      <trkpt lat="49.54409" lon="1.82961">
        <ele>185.7</ele>
        <time>2014-06-08T12:45:23.50</time>
      </trkpt>
      <trkpt lat="49.54408" lon="1.82972">
        <ele>185.4</ele>
        <time>2014-06-08T12:45:29.50</time>
      </trkpt>
      <trkpt lat="49.5441" lon="1.82984">
        <ele>185.3</ele>
        <time>2014-06-08T12:45:36.50</time>
      </trkpt>
      <trkpt lat="49.54408" lon="1.82996">
        <ele>185.4</ele>
        <time>2014-06-08T12:45:43.50</time>
      </trkpt>
      <trkpt lat="49.54406" lon="1.83006">
        <ele>185.3</ele>
        <time>2014-06-08T12:45:49.50</time>
      </trkpt>
      <trkpt lat="49.54404" lon="1.83017">
        <ele>185.3</ele>
        <time>2014-06-08T12:45:56.50</time>
      </trkpt>
      <trkpt lat="49.54403" lon="1.83029">
        <ele>185.5</ele>
        <time>2014-06-08T12:46:02.50</time>
      </trkpt>
      <trkpt lat="49.54403" lon="1.83043">
        <ele>185.5</ele>
        <time>2014-06-08T12:46:09.50</time>
      </trkpt>
      <trkpt lat="49.54403" lon="1.83054">
        <ele>185.7</ele>
        <time>2014-06-08T12:46:14.50</time>
      </trkpt>
      <trkpt lat="49.54401" lon="1.83066">
        <ele>185.7</ele>
        <time>2014-06-08T12:46:21.50</time>
      </trkpt>
      <trkpt lat="49.54399" lon="1.83077">
        <ele>185.9</ele>
        <time>2014-06-08T12:46:27.50</time>
      </trkpt>
      <trkpt lat="49.54399" lon="1.83087">
        <ele>186</ele>
        <time>2014-06-08T12:46:34.50</time>
      </trkpt>
      <trkpt lat="49.54396" lon="1.83098">
        <ele>186</ele>
        <time>2014-06-08T12:46:41.50</time>
      </trkpt>
      <trkpt lat="49.54391" lon="1.83106">
        <ele>185.8</ele>
        <time>2014-06-08T12:46:48.50</time>
      </trkpt>
      <trkpt lat="49.54388" lon="1.83114">
        <ele>185.6</ele>
        <time>2014-06-08T12:46:55.50</time>
      </trkpt>
      <trkpt lat="49.54386" lon="1.83125">
        <ele>185.4</ele>
        <time>2014-06-08T12:47:00.50</time>
      </trkpt>
      <trkpt lat="49.54383" lon="1.83136">
        <ele>185.4</ele>
        <time>2014-06-08T12:47:06.50</time>
      </trkpt>
      <trkpt lat="49.54383" lon="1.83149">
        <ele>185.4</ele>
        <time>2014-06-08T12:47:13.50</time>
      </trkpt>
      <trkpt lat="49.54385" lon="1.83162">
        <ele>185.6</ele>
        <time>2014-06-08T12:47:17.50</time>
      </trkpt>
      <trkpt lat="49.54386" lon="1.83175">
        <ele>185.6</ele>
        <time>2014-06-08T12:47:21.50</time>
      </trkpt>
      <trkpt lat="49.54386" lon="1.83188">
        <ele>185.6</ele>
        <time>2014-06-08T12:47:26.50</time>
      </trkpt>
      <trkpt lat="49.54386" lon="1.832">
        <ele>185.4</ele>
        <time>2014-06-08T12:47:32.50</time>
      </trkpt>
      <trkpt lat="49.5439" lon="1.83211">
        <ele>185.2</ele>
        <time>2014-06-08T12:47:38.50</time>
      </trkpt>
      <trkpt lat="49.54392" lon="1.83223">
        <ele>184.6</ele>
        <time>2014-06-08T12:47:45.50</time>
      </trkpt>
      <trkpt lat="49.54394" lon="1.83235">
        <ele>184.3</ele>
        <time>2014-06-08T12:47:51.50</time>
      </trkpt>
      <trkpt lat="49.54395" lon="1.83248">
        <ele>184</ele>
        <time>2014-06-08T12:47:57.50</time>
      </trkpt>
      <trkpt lat="49.54398" lon="1.83258">
        <ele>183.2</ele>
        <time>2014-06-08T12:48:04.50</time>
      </trkpt>
      <trkpt lat="49.544" lon="1.83268">
        <ele>182.6</ele>
        <time>2014-06-08T12:48:10.50</time>
      </trkpt>
      <trkpt lat="49.54405" lon="1.83276">
        <ele>182.3</ele>
        <time>2014-06-08T12:48:15.50</time>
      </trkpt>
      <trkpt lat="49.54409" lon="1.83287">
        <ele>181.9</ele>
        <time>2014-06-08T12:48:21.50</time>
      </trkpt>
      <trkpt lat="49.54413" lon="1.83296">
        <ele>181.4</ele>
        <time>2014-06-08T12:48:26.50</time>
      </trkpt>
      <trkpt lat="49.54417" lon="1.83307">
        <ele>180.4</ele>
        <time>2014-06-08T12:48:33.50</time>
      </trkpt>
      <trkpt lat="49.5442" lon="1.83318">
        <ele>180</ele>
        <time>2014-06-08T12:48:39.50</time>
      </trkpt>
      <trkpt lat="49.54423" lon="1.83329">
        <ele>179.4</ele>
        <time>2014-06-08T12:48:46.50</time>
      </trkpt>
      <trkpt lat="49.54426" lon="1.8334">
        <ele>178.9</ele>
        <time>2014-06-08T12:48:52.50</time>
      </trkpt>
      <trkpt lat="49.54428" lon="1.83352">
        <ele>178.4</ele>
        <time>2014-06-08T12:48:57.50</time>
      </trkpt>
      <trkpt lat="49.54428" lon="1.83363">
        <ele>177.4</ele>
        <time>2014-06-08T12:49:03.50</time>
      </trkpt>
      <trkpt lat="49.54434" lon="1.83372">
        <ele>176.4</ele>
        <time>2014-06-08T12:49:09.52</time>
      </trkpt>
      <trkpt lat="49.54438" lon="1.83382">
        <ele>175.6</ele>
        <time>2014-06-08T12:49:15.50</time>
      </trkpt>
      <trkpt lat="49.54441" lon="1.83391">
        <ele>174.6</ele>
        <time>2014-06-08T12:49:22.50</time>
      </trkpt>
      <trkpt lat="49.54442" lon="1.83403">
        <ele>174.3</ele>
        <time>2014-06-08T12:49:27.50</time>
      </trkpt>
      <trkpt lat="49.54444" lon="1.83414">
        <ele>174</ele>
        <time>2014-06-08T12:49:32.50</time>
      </trkpt>
      <trkpt lat="49.54448" lon="1.83425">
        <ele>173.5</ele>
        <time>2014-06-08T12:49:39.50</time>
      </trkpt>
      <trkpt lat="49.54449" lon="1.83436">
        <ele>173.2</ele>
        <time>2014-06-08T12:49:45.50</time>
      </trkpt>
      <trkpt lat="49.54451" lon="1.83448">
        <ele>173.3</ele>
        <time>2014-06-08T12:49:52.50</time>
      </trkpt>
      <trkpt lat="49.54455" lon="1.83459">
        <ele>173.3</ele>
        <time>2014-06-08T12:49:58.50</time>
      </trkpt>
      <trkpt lat="49.54457" lon="1.8347">
        <ele>173.1</ele>
        <time>2014-06-08T12:50:04.50</time>
      </trkpt>
      <trkpt lat="49.54457" lon="1.83482">
        <ele>172.7</ele>
        <time>2014-06-08T12:50:11.54</time>
      </trkpt>
      <trkpt lat="49.54461" lon="1.83493">
        <ele>172.3</ele>
        <time>2014-06-08T12:50:17.50</time>
      </trkpt>
      <trkpt lat="49.54463" lon="1.83505">
        <ele>172.2</ele>
        <time>2014-06-08T12:50:23.50</time>
      </trkpt>
      <trkpt lat="49.54465" lon="1.83517">
        <ele>172.4</ele>
        <time>2014-06-08T12:50:28.50</time>
      </trkpt>
      <trkpt lat="49.54467" lon="1.83528">
        <ele>172.5</ele>
        <time>2014-06-08T12:50:34.50</time>
      </trkpt>
      <trkpt lat="49.54469" lon="1.8354">
        <ele>172.8</ele>
        <time>2014-06-08T12:50:40.50</time>
      </trkpt>
      <trkpt lat="49.5447" lon="1.83552">
        <ele>173</ele>
        <time>2014-06-08T12:50:47.50</time>
      </trkpt>
      <trkpt lat="49.54473" lon="1.83563">
        <ele>173.4</ele>
        <time>2014-06-08T12:50:53.50</time>
      </trkpt>
      <trkpt lat="49.54476" lon="1.83575">
        <ele>174.1</ele>
        <time>2014-06-08T12:50:59.50</time>
      </trkpt>
      <trkpt lat="49.5448" lon="1.83586">
        <ele>174.7</ele>
        <time>2014-06-08T12:51:05.50</time>
      </trkpt>
      <trkpt lat="49.5448" lon="1.83596">
        <ele>175.6</ele>
        <time>2014-06-08T12:51:12.50</time>
      </trkpt>
      <trkpt lat="49.54481" lon="1.83604">
        <ele>176.2</ele>
        <time>2014-06-08T12:51:19.50</time>
      </trkpt>
      <trkpt lat="49.54484" lon="1.83615">
        <ele>176.7</ele>
        <time>2014-06-08T12:51:25.50</time>
      </trkpt>
      <trkpt lat="49.54485" lon="1.83626">
        <ele>177.1</ele>
        <time>2014-06-08T12:51:31.50</time>
      </trkpt>
      <trkpt lat="49.54485" lon="1.83639">
        <ele>177.3</ele>
        <time>2014-06-08T12:51:37.50</time>
      </trkpt>
      <trkpt lat="49.54484" lon="1.83652">
        <ele>177.8</ele>
        <time>2014-06-08T12:51:43.50</time>
      </trkpt>
      <trkpt lat="49.54482" lon="1.83664">
        <ele>178.6</ele>
        <time>2014-06-08T12:51:49.50</time>
      </trkpt>
      <trkpt lat="49.54481" lon="1.83676">
        <ele>179.2</ele>
        <time>2014-06-08T12:51:55.50</time>
      </trkpt>
      <trkpt lat="49.54481" lon="1.83688">
        <ele>179.6</ele>
        <time>2014-06-08T12:52:02.50</time>
      </trkpt>
      <trkpt lat="49.5448" lon="1.83698">
        <ele>180</ele>
        <time>2014-06-08T12:52:08.50</time>
      </trkpt>
      <trkpt lat="49.54479" lon="1.83711">
        <ele>180.5</ele>
        <time>2014-06-08T12:52:14.50</time>
      </trkpt>
      <trkpt lat="49.54479" lon="1.83724">
        <ele>181.2</ele>
        <time>2014-06-08T12:52:20.50</time>
      </trkpt>
      <trkpt lat="49.54477" lon="1.83736">
        <ele>181.6</ele>
        <time>2014-06-08T12:52:26.50</time>
      </trkpt>
      <trkpt lat="49.54479" lon="1.83748">
        <ele>182.4</ele>
        <time>2014-06-08T12:52:32.50</time>
      </trkpt>
      <trkpt lat="49.5448" lon="1.8376">
        <ele>183.4</ele>
        <time>2014-06-08T12:52:39.50</time>
      </trkpt>
      <trkpt lat="49.54478" lon="1.83772">
        <ele>183.8</ele>
        <time>2014-06-08T12:52:45.50</time>
      </trkpt>
      <trkpt lat="49.54477" lon="1.83781">
        <ele>184.4</ele>
        <time>2014-06-08T12:52:52.50</time>
      </trkpt>
      <trkpt lat="49.54476" lon="1.83792">
        <ele>184.9</ele>
        <time>2014-06-08T12:52:59.50</time>
      </trkpt>
      <trkpt lat="49.54475" lon="1.83804">
        <ele>185.2</ele>
        <time>2014-06-08T12:53:05.50</time>
      </trkpt>
      <trkpt lat="49.54475" lon="1.83815">
        <ele>185.7</ele>
        <time>2014-06-08T12:53:12.50</time>
      </trkpt>
      <trkpt lat="49.54475" lon="1.83829">
        <ele>185.7</ele>
        <time>2014-06-08T12:53:18.50</time>
      </trkpt>
      <trkpt lat="49.54473" lon="1.83836">
        <ele>185.9</ele>
        <time>2014-06-08T12:53:25.50</time>
      </trkpt>
      <trkpt lat="49.54473" lon="1.83848">
        <ele>185.7</ele>
        <time>2014-06-08T12:53:30.50</time>
      </trkpt>
      <trkpt lat="49.54473" lon="1.8386">
        <ele>185.4</ele>
        <time>2014-06-08T12:53:36.50</time>
      </trkpt>
      <trkpt lat="49.54472" lon="1.83873">
        <ele>185.2</ele>
        <time>2014-06-08T12:53:41.50</time>
      </trkpt>
      <trkpt lat="49.54475" lon="1.83886">
        <ele>185.1</ele>
        <time>2014-06-08T12:53:45.50</time>
      </trkpt>
      <trkpt lat="49.54475" lon="1.83899">
        <ele>184.9</ele>
        <time>2014-06-08T12:53:52.50</time>
      </trkpt>
      <trkpt lat="49.54476" lon="1.8391">
        <ele>184.9</ele>
        <time>2014-06-08T12:53:57.50</time>
      </trkpt>
      <trkpt lat="49.5448" lon="1.83921">
        <ele>184.5</ele>
        <time>2014-06-08T12:54:04.50</time>
      </trkpt>
      <trkpt lat="49.54486" lon="1.83929">
        <ele>184.2</ele>
        <time>2014-06-08T12:54:09.50</time>
      </trkpt>
      <trkpt lat="49.54491" lon="1.8394">
        <ele>183.9</ele>
        <time>2014-06-08T12:54:16.50</time>
      </trkpt>
      <trkpt lat="49.54493" lon="1.83951">
        <ele>183.6</ele>
        <time>2014-06-08T12:54:23.50</time>
      </trkpt>
      <trkpt lat="49.54497" lon="1.83962">
        <ele>183.3</ele>
        <time>2014-06-08T12:54:30.50</time>
      </trkpt>
      <trkpt lat="49.54499" lon="1.83974">
        <ele>183.3</ele>
        <time>2014-06-08T12:54:36.50</time>
      </trkpt>
      <trkpt lat="49.54501" lon="1.83986">
        <ele>183.1</ele>
        <time>2014-06-08T12:54:42.50</time>
      </trkpt>
      <trkpt lat="49.54504" lon="1.83999">
        <ele>183.3</ele>
        <time>2014-06-08T12:54:47.50</time>
      </trkpt>
      <trkpt lat="49.54506" lon="1.84009">
        <ele>183.2</ele>
        <time>2014-06-08T12:54:53.50</time>
      </trkpt>
      <trkpt lat="49.54508" lon="1.8402">
        <ele>183.3</ele>
        <time>2014-06-08T12:54:58.50</time>
      </trkpt>
      <trkpt lat="49.54514" lon="1.84031">
        <ele>183.4</ele>
        <time>2014-06-08T12:55:04.50</time>
      </trkpt>
      <trkpt lat="49.54517" lon="1.84042">
        <ele>183</ele>
        <time>2014-06-08T12:55:09.50</time>
      </trkpt>
      <trkpt lat="49.5452" lon="1.84052">
        <ele>182.3</ele>
        <time>2014-06-08T12:55:15.50</time>
      </trkpt>
      <trkpt lat="49.54522" lon="1.84063">
        <ele>181.6</ele>
        <time>2014-06-08T12:55:21.50</time>
      </trkpt>
      <trkpt lat="49.54527" lon="1.84074">
        <ele>180.6</ele>
        <time>2014-06-08T12:55:27.50</time>
      </trkpt>
      <trkpt lat="49.5453" lon="1.84085">
        <ele>178.8</ele>
        <time>2014-06-08T12:55:32.50</time>
      </trkpt>
      <trkpt lat="49.54532" lon="1.84097">
        <ele>176</ele>
        <time>2014-06-08T12:55:38.50</time>
      </trkpt>
      <trkpt lat="49.54535" lon="1.84107">
        <ele>173.3</ele>
        <time>2014-06-08T12:55:43.50</time>
      </trkpt>
      <trkpt lat="49.54539" lon="1.84116">
        <ele>170.3</ele>
        <time>2014-06-08T12:55:50.50</time>
      </trkpt>
      <trkpt lat="49.54539" lon="1.84129">
        <ele>168.8</ele>
        <time>2014-06-08T12:55:57.50</time>
      </trkpt>
      <trkpt lat="49.54541" lon="1.84144">
        <ele>167.5</ele>
        <time>2014-06-08T12:56:03.50</time>
      </trkpt>
      <trkpt lat="49.54546" lon="1.84155">
        <ele>166.4</ele>
        <time>2014-06-08T12:56:07.50</time>
      </trkpt>
      <trkpt lat="49.54547" lon="1.84164">
        <ele>165.1</ele>
        <time>2014-06-08T12:56:14.50</time>
      </trkpt>
      <trkpt lat="49.54545" lon="1.84175">
        <ele>164</ele>
        <time>2014-06-08T12:56:21.50</time>
      </trkpt>
      <trkpt lat="49.5454" lon="1.84185">
        <ele>163.4</ele>
        <time>2014-06-08T12:56:27.50</time>
      </trkpt>
      <trkpt lat="49.54535" lon="1.84191">
        <ele>162.2</ele>
        <time>2014-06-08T12:56:34.50</time>
      </trkpt>
      <trkpt lat="49.54534" lon="1.84191">
        <ele>161.7</ele>
        <time>2014-06-08T12:56:41.50</time>
      </trkpt>
      <trkpt lat="49.54538" lon="1.842">
        <ele>160.4</ele>
        <time>2014-06-08T12:56:42.52</time>
      </trkpt>
      <trkpt lat="49.54539" lon="1.842">
        <ele>159.9</ele>
        <time>2014-06-08T12:56:49.50</time>
      </trkpt>
      <trkpt lat="49.5454" lon="1.84209">
        <ele>159.5</ele>
        <time>2014-06-08T12:56:52.52</time>
      </trkpt>
      <trkpt lat="49.5454" lon="1.84212">
        <ele>158.3</ele>
        <time>2014-06-08T12:56:57.52</time>
      </trkpt>
      <trkpt lat="49.54542" lon="1.84218">
        <ele>158.4</ele>
        <time>2014-06-08T12:57:04.50</time>
      </trkpt>
      <trkpt lat="49.54545" lon="1.84228">
        <ele>157.8</ele>
        <time>2014-06-08T12:57:11.50</time>
      </trkpt>
      <trkpt lat="49.54546" lon="1.84238">
        <ele>156.7</ele>
        <time>2014-06-08T12:57:18.50</time>
      </trkpt>
      <trkpt lat="49.54547" lon="1.84249">
        <ele>156.8</ele>
        <time>2014-06-08T12:57:25.50</time>
      </trkpt>
      <trkpt lat="49.54551" lon="1.84258">
        <ele>156.8</ele>
        <time>2014-06-08T12:57:32.50</time>
      </trkpt>
      <trkpt lat="49.54549" lon="1.84272">
        <ele>156.1</ele>
        <time>2014-06-08T12:57:39.50</time>
      </trkpt>
      <trkpt lat="49.54551" lon="1.84286">
        <ele>155.9</ele>
        <time>2014-06-08T12:57:46.50</time>
      </trkpt>
      <trkpt lat="49.54551" lon="1.84297">
        <ele>156.2</ele>
        <time>2014-06-08T12:57:53.50</time>
      </trkpt>
      <trkpt lat="49.54551" lon="1.84308">
        <ele>156.4</ele>
        <time>2014-06-08T12:58:00.50</time>
      </trkpt>
      <trkpt lat="49.54551" lon="1.8432">
        <ele>156.7</ele>
        <time>2014-06-08T12:58:07.50</time>
      </trkpt>
      <trkpt lat="49.54554" lon="1.84331">
        <ele>157.2</ele>
        <time>2014-06-08T12:58:14.50</time>
      </trkpt>
      <trkpt lat="49.54554" lon="1.8434">
        <ele>157.8</ele>
        <time>2014-06-08T12:58:21.50</time>
      </trkpt>
      <trkpt lat="49.54556" lon="1.84352">
        <ele>158.6</ele>
        <time>2014-06-08T12:58:27.50</time>
      </trkpt>
      <trkpt lat="49.54558" lon="1.84365">
        <ele>159.7</ele>
        <time>2014-06-08T12:58:33.50</time>
      </trkpt>
      <trkpt lat="49.54558" lon="1.84374">
        <ele>160.4</ele>
        <time>2014-06-08T12:58:40.50</time>
      </trkpt>
      <trkpt lat="49.54561" lon="1.84386">
        <ele>160.5</ele>
        <time>2014-06-08T12:58:47.50</time>
      </trkpt>
      <trkpt lat="49.54566" lon="1.84396">
        <ele>161.1</ele>
        <time>2014-06-08T12:58:54.50</time>
      </trkpt>
      <trkpt lat="49.5457" lon="1.844">
        <ele>160.9</ele>
        <time>2014-06-08T12:59:01.50</time>
      </trkpt>
      <trkpt lat="49.54575" lon="1.8441">
        <ele>161</ele>
        <time>2014-06-08T12:59:06.50</time>
      </trkpt>
      <trkpt lat="49.5458" lon="1.8442">
        <ele>161.1</ele>
        <time>2014-06-08T12:59:12.53</time>
      </trkpt>
      <trkpt lat="49.54585" lon="1.84432">
        <ele>160.8</ele>
        <time>2014-06-08T12:59:17.50</time>
      </trkpt>
      <trkpt lat="49.54585" lon="1.84443">
        <ele>160.8</ele>
        <time>2014-06-08T12:59:22.50</time>
      </trkpt>
      <trkpt lat="49.54587" lon="1.84452">
        <ele>160.5</ele>
        <time>2014-06-08T12:59:29.53</time>
      </trkpt>
      <trkpt lat="49.54593" lon="1.8446">
        <ele>160.9</ele>
        <time>2014-06-08T12:59:34.50</time>
      </trkpt>
      <trkpt lat="49.54594" lon="1.84469">
        <ele>161.6</ele>
        <time>2014-06-08T12:59:41.57</time>
      </trkpt>
      <trkpt lat="49.54596" lon="1.84477">
        <ele>162.2</ele>
        <time>2014-06-08T12:59:48.53</time>
      </trkpt>
      <trkpt lat="49.54599" lon="1.84487">
        <ele>162</ele>
        <time>2014-06-08T12:59:55.50</time>
      </trkpt>
      <trkpt lat="49.54601" lon="1.84493">
        <ele>162.6</ele>
        <time>2014-06-08T13:00:02.50</time>
      </trkpt>
      <trkpt lat="49.54605" lon="1.84505">
        <ele>162.6</ele>
        <time>2014-06-08T13:00:09.52</time>
      </trkpt>
      <trkpt lat="49.54608" lon="1.84515">
        <ele>162.9</ele>
        <time>2014-06-08T13:00:15.50</time>
      </trkpt>
      <trkpt lat="49.54614" lon="1.84525">
        <ele>162.8</ele>
        <time>2014-06-08T13:00:17.50</time>
      </trkpt>
      <trkpt lat="49.54618" lon="1.84537">
        <ele>163.1</ele>
        <time>2014-06-08T13:00:22.50</time>
      </trkpt>
      <trkpt lat="49.54621" lon="1.84548">
        <ele>163.1</ele>
        <time>2014-06-08T13:00:29.50</time>
      </trkpt>
      <trkpt lat="49.54627" lon="1.84556">
        <ele>162.5</ele>
        <time>2014-06-08T13:00:34.50</time>
      </trkpt>
      <trkpt lat="49.54632" lon="1.84566">
        <ele>162</ele>
        <time>2014-06-08T13:00:40.50</time>
      </trkpt>
      <trkpt lat="49.54633" lon="1.84576">
        <ele>161.4</ele>
        <time>2014-06-08T13:00:47.50</time>
      </trkpt>
      <trkpt lat="49.54635" lon="1.84585">
        <ele>160.9</ele>
        <time>2014-06-08T13:00:54.50</time>
      </trkpt>
      <trkpt lat="49.5464" lon="1.84592">
        <ele>160.2</ele>
        <time>2014-06-08T13:01:01.50</time>
      </trkpt>
      <trkpt lat="49.54641" lon="1.846">
        <ele>159.7</ele>
        <time>2014-06-08T13:01:08.50</time>
      </trkpt>
      <trkpt lat="49.54639" lon="1.84613">
        <ele>159.2</ele>
        <time>2014-06-08T13:01:14.50</time>
      </trkpt>
      <trkpt lat="49.54634" lon="1.8462">
        <ele>159</ele>
        <time>2014-06-08T13:01:18.50</time>
      </trkpt>
      <trkpt lat="49.54634" lon="1.8463">
        <ele>158.5</ele>
        <time>2014-06-08T13:01:25.50</time>
      </trkpt>
      <trkpt lat="49.54638" lon="1.84638">
        <ele>158</ele>
        <time>2014-06-08T13:01:32.52</time>
      </trkpt>
      <trkpt lat="49.54642" lon="1.84648">
        <ele>157.7</ele>
        <time>2014-06-08T13:01:36.50</time>
      </trkpt>
      <trkpt lat="49.54645" lon="1.84659">
        <ele>157.7</ele>
        <time>2014-06-08T13:01:41.50</time>
      </trkpt>
      <trkpt lat="49.54648" lon="1.84671">
        <ele>157.4</ele>
        <time>2014-06-08T13:01:48.50</time>
      </trkpt>
      <trkpt lat="49.54647" lon="1.84683">
        <ele>156.8</ele>
        <time>2014-06-08T13:01:54.50</time>
      </trkpt>
      <trkpt lat="49.54646" lon="1.84694">
        <ele>156.7</ele>
        <time>2014-06-08T13:01:59.50</time>
      </trkpt>
      <trkpt lat="49.54641" lon="1.84705">
        <ele>156.4</ele>
        <time>2014-06-08T13:02:05.50</time>
      </trkpt>
      <trkpt lat="49.5464" lon="1.84718">
        <ele>156</ele>
        <time>2014-06-08T13:02:11.50</time>
      </trkpt>
      <trkpt lat="49.54641" lon="1.8473">
        <ele>155.9</ele>
        <time>2014-06-08T13:02:18.50</time>
      </trkpt>
      <trkpt lat="49.54638" lon="1.84739">
        <ele>155.5</ele>
        <time>2014-06-08T13:02:25.50</time>
      </trkpt>
      <trkpt lat="49.54638" lon="1.84748">
        <ele>154.5</ele>
        <time>2014-06-08T13:02:32.50</time>
      </trkpt>
      <trkpt lat="49.54635" lon="1.84759">
        <ele>154</ele>
        <time>2014-06-08T13:02:38.50</time>
      </trkpt>
      <trkpt lat="49.54631" lon="1.84769">
        <ele>153.2</ele>
        <time>2014-06-08T13:02:44.50</time>
      </trkpt>
      <trkpt lat="49.54625" lon="1.8478">
        <ele>152.5</ele>
        <time>2014-06-08T13:02:50.52</time>
      </trkpt>
      <trkpt lat="49.54623" lon="1.84792">
        <ele>152</ele>
        <time>2014-06-08T13:02:56.50</time>
      </trkpt>
      <trkpt lat="49.5462" lon="1.84801">
        <ele>151.6</ele>
        <time>2014-06-08T13:03:03.50</time>
      </trkpt>
      <trkpt lat="49.54615" lon="1.8481">
        <ele>150.9</ele>
        <time>2014-06-08T13:03:08.50</time>
      </trkpt>
      <trkpt lat="49.54612" lon="1.84819">
        <ele>150.3</ele>
        <time>2014-06-08T13:03:15.73</time>
      </trkpt>
      <trkpt lat="49.54608" lon="1.84831">
        <ele>150.1</ele>
        <time>2014-06-08T13:03:22.50</time>
      </trkpt>
      <trkpt lat="49.54605" lon="1.84838">
        <ele>149.7</ele>
        <time>2014-06-08T13:03:29.50</time>
      </trkpt>
      <trkpt lat="49.54597" lon="1.84846">
        <ele>149.4</ele>
        <time>2014-06-08T13:03:34.50</time>
      </trkpt>
      <trkpt lat="49.54592" lon="1.84856">
        <ele>149.1</ele>
        <time>2014-06-08T13:03:41.50</time>
      </trkpt>
      <trkpt lat="49.54588" lon="1.84867">
        <ele>149.1</ele>
        <time>2014-06-08T13:03:46.50</time>
      </trkpt>
      <trkpt lat="49.54583" lon="1.84876">
        <ele>148.6</ele>
        <time>2014-06-08T13:03:52.50</time>
      </trkpt>
      <trkpt lat="49.5458" lon="1.84877">
        <ele>148.5</ele>
        <time>2014-06-08T13:03:59.50</time>
      </trkpt>
      <trkpt lat="49.54584" lon="1.84872">
        <ele>148.1</ele>
        <time>2014-06-08T13:04:02.53</time>
      </trkpt>
      <trkpt lat="49.54581" lon="1.84881">
        <ele>147.9</ele>
        <time>2014-06-08T13:04:07.52</time>
      </trkpt>
      <trkpt lat="49.54586" lon="1.8489">
        <ele>147.6</ele>
        <time>2014-06-08T13:04:12.50</time>
      </trkpt>
      <trkpt lat="49.54589" lon="1.84884">
        <ele>147.3</ele>
        <time>2014-06-08T13:04:19.51</time>
      </trkpt>
      <trkpt lat="49.54587" lon="1.84877">
        <ele>147.3</ele>
        <time>2014-06-08T13:04:26.51</time>
      </trkpt>
      <trkpt lat="49.54586" lon="1.8488">
        <ele>143.9</ele>
        <time>2014-06-08T13:04:33.53</time>
      </trkpt>
      <trkpt lat="49.54589" lon="1.84881">
        <ele>142.8</ele>
        <time>2014-06-08T13:04:40.48</time>
      </trkpt>
      <trkpt lat="49.54592" lon="1.84879">
        <ele>142.9</ele>
        <time>2014-06-08T13:04:47.45</time>
      </trkpt>
      <trkpt lat="49.54597" lon="1.84876">
        <ele>143.2</ele>
        <time>2014-06-08T13:04:54.44</time>
      </trkpt>
      <trkpt lat="49.54605" lon="1.84871">
        <ele>142.9</ele>
        <time>2014-06-08T13:04:58.45</time>
      </trkpt>
      <trkpt lat="49.5461" lon="1.84863">
        <ele>142.8</ele>
        <time>2014-06-08T13:05:04.50</time>
      </trkpt>
      <trkpt lat="49.54612" lon="1.84857">
        <ele>142.9</ele>
        <time>2014-06-08T13:05:11.47</time>
      </trkpt>
      <trkpt lat="49.54614" lon="1.84849">
        <ele>142.5</ele>
        <time>2014-06-08T13:05:18.48</time>
      </trkpt>
      <trkpt lat="49.54622" lon="1.84844">
        <ele>141.6</ele>
        <time>2014-06-08T13:05:25.46</time>
      </trkpt>
      <trkpt lat="49.54627" lon="1.84836">
        <ele>141</ele>
        <time>2014-06-08T13:05:30.47</time>
      </trkpt>
      <trkpt lat="49.54634" lon="1.84829">
        <ele>141</ele>
        <time>2014-06-08T13:05:37.47</time>
      </trkpt>
      <trkpt lat="49.5464" lon="1.84824">
        <ele>140.5</ele>
        <time>2014-06-08T13:05:43.46</time>
      </trkpt>
      <trkpt lat="49.54648" lon="1.84825">
        <ele>139.5</ele>
        <time>2014-06-08T13:05:49.46</time>
      </trkpt>
      <trkpt lat="49.54654" lon="1.84833">
        <ele>138.5</ele>
        <time>2014-06-08T13:05:56.45</time>
      </trkpt>
      <trkpt lat="49.54657" lon="1.84845">
        <ele>137.9</ele>
        <time>2014-06-08T13:06:02.48</time>
      </trkpt>
      <trkpt lat="49.54659" lon="1.84855">
        <ele>137.1</ele>
        <time>2014-06-08T13:06:08.48</time>
      </trkpt>
      <trkpt lat="49.54659" lon="1.84868">
        <ele>135.8</ele>
        <time>2014-06-08T13:06:14.50</time>
      </trkpt>
      <trkpt lat="49.54659" lon="1.8488">
        <ele>134.8</ele>
        <time>2014-06-08T13:06:19.46</time>
      </trkpt>
      <trkpt lat="49.54658" lon="1.8489">
        <ele>134.4</ele>
        <time>2014-06-08T13:06:24.46</time>
      </trkpt>
      <trkpt lat="49.54659" lon="1.84903">
        <ele>134.1</ele>
        <time>2014-06-08T13:06:31.44</time>
      </trkpt>
      <trkpt lat="49.54661" lon="1.84915">
        <ele>132.8</ele>
        <time>2014-06-08T13:06:38.48</time>
      </trkpt>
      <trkpt lat="49.54662" lon="1.84925">
        <ele>131.2</ele>
        <time>2014-06-08T13:06:45.49</time>
      </trkpt>
      <trkpt lat="49.54667" lon="1.84931">
        <ele>129.4</ele>
        <time>2014-06-08T13:06:52.48</time>
      </trkpt>
      <trkpt lat="49.54671" lon="1.84938">
        <ele>126.9</ele>
        <time>2014-06-08T13:06:59.57</time>
      </trkpt>
      <trkpt lat="49.54677" lon="1.84946">
        <ele>125.2</ele>
        <time>2014-06-08T13:07:06.47</time>
      </trkpt>
      <trkpt lat="49.54681" lon="1.84954">
        <ele>124.6</ele>
        <time>2014-06-08T13:07:13.45</time>
      </trkpt>
      <trkpt lat="49.54683" lon="1.84961">
        <ele>124.1</ele>
        <time>2014-06-08T13:07:20.44</time>
      </trkpt>
      <trkpt lat="49.54687" lon="1.84966">
        <ele>123</ele>
        <time>2014-06-08T13:07:27.44</time>
      </trkpt>
      <trkpt lat="49.54692" lon="1.84975">
        <ele>122.1</ele>
        <time>2014-06-08T13:07:34.45</time>
      </trkpt>
      <trkpt lat="49.54696" lon="1.84987">
        <ele>121.4</ele>
        <time>2014-06-08T13:07:41.44</time>
      </trkpt>
      <trkpt lat="49.54693" lon="1.84996">
        <ele>120</ele>
        <time>2014-06-08T13:07:48.45</time>
      </trkpt>
      <trkpt lat="49.54691" lon="1.85007">
        <ele>118.9</ele>
        <time>2014-06-08T13:07:55.44</time>
      </trkpt>
      <trkpt lat="49.54691" lon="1.85016">
        <ele>117.8</ele>
        <time>2014-06-08T13:08:02.44</time>
      </trkpt>
      <trkpt lat="49.5469" lon="1.85027">
        <ele>116.3</ele>
        <time>2014-06-08T13:08:09.44</time>
      </trkpt>
      <trkpt lat="49.54689" lon="1.85039">
        <ele>115.5</ele>
        <time>2014-06-08T13:08:15.44</time>
      </trkpt>
      <trkpt lat="49.54683" lon="1.85047">
        <ele>113</ele>
        <time>2014-06-08T13:08:20.47</time>
      </trkpt>
      <trkpt lat="49.54683" lon="1.85059">
        <ele>112.1</ele>
        <time>2014-06-08T13:08:26.44</time>
      </trkpt>
      <trkpt lat="49.54686" lon="1.8507">
        <ele>111.1</ele>
        <time>2014-06-08T13:08:32.45</time>
      </trkpt>
      <trkpt lat="49.54687" lon="1.85082">
        <ele>110.6</ele>
        <time>2014-06-08T13:08:38.44</time>
      </trkpt>
      <trkpt lat="49.54687" lon="1.85091">
        <ele>109.6</ele>
        <time>2014-06-08T13:08:45.44</time>
      </trkpt>
      <trkpt lat="49.54691" lon="1.85095">
        <ele>108.7</ele>
        <time>2014-06-08T13:08:52.44</time>
      </trkpt>
      <trkpt lat="49.54696" lon="1.85104">
        <ele>108.2</ele>
        <time>2014-06-08T13:08:59.46</time>
      </trkpt>
      <trkpt lat="49.54701" lon="1.85115">
        <ele>108</ele>
        <time>2014-06-08T13:09:06.45</time>
      </trkpt>
      <trkpt lat="49.54701" lon="1.85122">
        <ele>108.1</ele>
        <time>2014-06-08T13:09:13.44</time>
      </trkpt>
      <trkpt lat="49.54703" lon="1.8513">
        <ele>108</ele>
        <time>2014-06-08T13:09:20.44</time>
      </trkpt>
      <trkpt lat="49.54707" lon="1.85131">
        <ele>107.7</ele>
        <time>2014-06-08T13:09:27.44</time>
      </trkpt>
      <trkpt lat="49.54713" lon="1.85137">
        <ele>107.6</ele>
        <time>2014-06-08T13:09:32.48</time>
      </trkpt>
      <trkpt lat="49.54718" lon="1.85139">
        <ele>107.2</ele>
        <time>2014-06-08T13:09:39.46</time>
      </trkpt>
      <trkpt lat="49.54719" lon="1.85141">
        <ele>107.2</ele>
        <time>2014-06-08T13:09:46.46</time>
      </trkpt>
      <trkpt lat="49.54725" lon="1.85141">
        <ele>107</ele>
        <time>2014-06-08T13:09:47.47</time>
      </trkpt>
      <trkpt lat="49.54725" lon="1.85145">
        <ele>107</ele>
        <time>2014-06-08T13:09:54.46</time>
      </trkpt>
      <trkpt lat="49.54728" lon="1.85149">
        <ele>107.6</ele>
        <time>2014-06-08T13:09:58.47</time>
      </trkpt>
      <trkpt lat="49.54735" lon="1.85151">
        <ele>108.1</ele>
        <time>2014-06-08T13:10:00.47</time>
      </trkpt>
      <trkpt lat="49.54741" lon="1.8516">
        <ele>108.2</ele>
        <time>2014-06-08T13:10:07.46</time>
      </trkpt>
      <trkpt lat="49.54747" lon="1.85167">
        <ele>108.4</ele>
        <time>2014-06-08T13:10:13.46</time>
      </trkpt>
      <trkpt lat="49.54753" lon="1.85175">
        <ele>108.5</ele>
        <time>2014-06-08T13:10:20.46</time>
      </trkpt>
      <trkpt lat="49.54757" lon="1.85185">
        <ele>108.8</ele>
        <time>2014-06-08T13:10:27.46</time>
      </trkpt>
      <trkpt lat="49.54756" lon="1.85189">
        <ele>108.9</ele>
        <time>2014-06-08T13:10:34.46</time>
      </trkpt>
      <trkpt lat="49.54759" lon="1.85191">
        <ele>109.2</ele>
        <time>2014-06-08T13:10:41.46</time>
      </trkpt>
      <trkpt lat="49.54767" lon="1.85195">
        <ele>109.7</ele>
        <time>2014-06-08T13:10:47.46</time>
      </trkpt>
      <trkpt lat="49.54771" lon="1.85204">
        <ele>110.2</ele>
        <time>2014-06-08T13:10:54.46</time>
      </trkpt>
      <trkpt lat="49.54777" lon="1.85216">
        <ele>109.9</ele>
        <time>2014-06-08T13:10:59.46</time>
      </trkpt>
      <trkpt lat="49.54783" lon="1.85227">
        <ele>109.4</ele>
        <time>2014-06-08T13:11:02.46</time>
      </trkpt>
      <trkpt lat="49.54788" lon="1.85236">
        <ele>108.5</ele>
        <time>2014-06-08T13:11:08.46</time>
      </trkpt>
      <trkpt lat="49.54794" lon="1.85244">
        <ele>107.7</ele>
        <time>2014-06-08T13:11:14.46</time>
      </trkpt>
      <trkpt lat="49.548" lon="1.85251">
        <ele>107.6</ele>
        <time>2014-06-08T13:11:21.46</time>
      </trkpt>
      <trkpt lat="49.54804" lon="1.8526">
        <ele>107.7</ele>
        <time>2014-06-08T13:11:28.50</time>
      </trkpt>
      <trkpt lat="49.54808" lon="1.85268">
        <ele>107.8</ele>
        <time>2014-06-08T13:11:35.46</time>
      </trkpt>
      <trkpt lat="49.54811" lon="1.8528">
        <ele>107.9</ele>
        <time>2014-06-08T13:11:42.46</time>
      </trkpt>
      <trkpt lat="49.54816" lon="1.8529">
        <ele>108.1</ele>
        <time>2014-06-08T13:11:48.46</time>
      </trkpt>
      <trkpt lat="49.5482" lon="1.85302">
        <ele>108.2</ele>
        <time>2014-06-08T13:11:52.46</time>
      </trkpt>
      <trkpt lat="49.54825" lon="1.85311">
        <ele>108.3</ele>
        <time>2014-06-08T13:11:57.46</time>
      </trkpt>
      <trkpt lat="49.54831" lon="1.8532">
        <ele>108.4</ele>
        <time>2014-06-08T13:12:03.46</time>
      </trkpt>
      <trkpt lat="49.54835" lon="1.85331">
        <ele>108.3</ele>
        <time>2014-06-08T13:12:09.46</time>
      </trkpt>
      <trkpt lat="49.54833" lon="1.85343">
        <ele>108.4</ele>
        <time>2014-06-08T13:12:16.46</time>
      </trkpt>
      <trkpt lat="49.54833" lon="1.85352">
        <ele>108.3</ele>
        <time>2014-06-08T13:12:23.46</time>
      </trkpt>
      <trkpt lat="49.54831" lon="1.85361">
        <ele>108.4</ele>
        <time>2014-06-08T13:12:30.46</time>
      </trkpt>
      <trkpt lat="49.54829" lon="1.85366">
        <ele>108.5</ele>
        <time>2014-06-08T13:12:37.46</time>
      </trkpt>
      <trkpt lat="49.54828" lon="1.85371">
        <ele>108.8</ele>
        <time>2014-06-08T13:12:44.46</time>
      </trkpt>
      <trkpt lat="49.54827" lon="1.85373">
        <ele>109.2</ele>
        <time>2014-06-08T13:12:51.46</time>
      </trkpt>
      <trkpt lat="49.54835" lon="1.85367">
        <ele>110.2</ele>
        <time>2014-06-08T13:12:56.48</time>
      </trkpt>
      <trkpt lat="49.54836" lon="1.85363">
        <ele>110.5</ele>
        <time>2014-06-08T13:13:03.43</time>
      </trkpt>
      <trkpt lat="49.54837" lon="1.85357">
        <ele>110.9</ele>
        <time>2014-06-08T13:13:10.43</time>
      </trkpt>
      <trkpt lat="49.54836" lon="1.85356">
        <ele>111</ele>
        <time>2014-06-08T13:13:17.43</time>
      </trkpt>
      <trkpt lat="49.5484" lon="1.85347">
        <ele>81.2</ele>
        <time>2014-06-08T13:13:18.46</time>
      </trkpt>
      <trkpt lat="49.54848" lon="1.85344">
        <ele>140.9</ele>
        <time>2014-06-08T13:13:23.43</time>
      </trkpt>
      <trkpt lat="49.54846" lon="1.85347">
        <ele>143.6</ele>
        <time>2014-06-08T13:13:30.43</time>
      </trkpt>
      <trkpt lat="49.54847" lon="1.85359">
        <ele>133.2</ele>
        <time>2014-06-08T13:13:33.45</time>
      </trkpt>
      <trkpt lat="49.54851" lon="1.85365">
        <ele>143.7</ele>
        <time>2014-06-08T13:13:40.46</time>
      </trkpt>
      <trkpt lat="49.54842" lon="1.85373">
        <ele>144.2</ele>
        <time>2014-06-08T13:13:42.45</time>
      </trkpt>
      <trkpt lat="49.54835" lon="1.85379">
        <ele>140.6</ele>
        <time>2014-06-08T13:13:45.47</time>
      </trkpt>
      <trkpt lat="49.54833" lon="1.8538">
        <ele>140.6</ele>
        <time>2014-06-08T13:13:52.46</time>
      </trkpt>
      <trkpt lat="49.54826" lon="1.85384">
        <ele>140</ele>
        <time>2014-06-08T13:13:56.47</time>
      </trkpt>
      <trkpt lat="49.54831" lon="1.85394">
        <ele>137.2</ele>
        <time>2014-06-08T13:14:00.46</time>
      </trkpt>
      <trkpt lat="49.54836" lon="1.85404">
        <ele>133.1</ele>
        <time>2014-06-08T13:14:06.46</time>
      </trkpt>
      <trkpt lat="49.54833" lon="1.8541">
        <ele>129.3</ele>
        <time>2014-06-08T13:14:13.46</time>
      </trkpt>
      <trkpt lat="49.54829" lon="1.85414">
        <ele>127.9</ele>
        <time>2014-06-08T13:14:20.46</time>
      </trkpt>
      <trkpt lat="49.54824" lon="1.85417">
        <ele>127.4</ele>
        <time>2014-06-08T13:14:27.46</time>
      </trkpt>
      <trkpt lat="49.54824" lon="1.85418">
        <ele>127.1</ele>
        <time>2014-06-08T13:14:34.46</time>
      </trkpt>
      <trkpt lat="49.54818" lon="1.85426">
        <ele>125.4</ele>
        <time>2014-06-08T13:14:41.48</time>
      </trkpt>
      <trkpt lat="49.54817" lon="1.8543">
        <ele>125.1</ele>
        <time>2014-06-08T13:14:48.46</time>
      </trkpt>
      <trkpt lat="49.54818" lon="1.8544">
        <ele>124.7</ele>
        <time>2014-06-08T13:14:55.46</time>
      </trkpt>
      <trkpt lat="49.54813" lon="1.85447">
        <ele>124.3</ele>
        <time>2014-06-08T13:15:02.46</time>
      </trkpt>
      <trkpt lat="49.54805" lon="1.85452">
        <ele>124</ele>
        <time>2014-06-08T13:15:07.46</time>
      </trkpt>
      <trkpt lat="49.54798" lon="1.85457">
        <ele>123.8</ele>
        <time>2014-06-08T13:15:13.46</time>
      </trkpt>
      <trkpt lat="49.54793" lon="1.85464">
        <ele>123.8</ele>
        <time>2014-06-08T13:15:19.46</time>
      </trkpt>
      <trkpt lat="49.54793" lon="1.85474">
        <ele>124</ele>
        <time>2014-06-08T13:15:26.46</time>
      </trkpt>
      <trkpt lat="49.54798" lon="1.85485">
        <ele>122.7</ele>
        <time>2014-06-08T13:15:29.46</time>
      </trkpt>
      <trkpt lat="49.54801" lon="1.85492">
        <ele>122.2</ele>
        <time>2014-06-08T13:15:36.46</time>
      </trkpt>
      <trkpt lat="49.54799" lon="1.85499">
        <ele>121.7</ele>
        <time>2014-06-08T13:15:43.46</time>
      </trkpt>
      <trkpt lat="49.54793" lon="1.85504">
        <ele>121.4</ele>
        <time>2014-06-08T13:15:50.46</time>
      </trkpt>
      <trkpt lat="49.54791" lon="1.85506">
        <ele>121.1</ele>
        <time>2014-06-08T13:15:57.46</time>
      </trkpt>
      <trkpt lat="49.54794" lon="1.85516">
        <ele>120.7</ele>
        <time>2014-06-08T13:16:04.46</time>
      </trkpt>
      <trkpt lat="49.54786" lon="1.85521">
        <ele>120.4</ele>
        <time>2014-06-08T13:16:11.48</time>
      </trkpt>
      <trkpt lat="49.54779" lon="1.85519">
        <ele>119.5</ele>
        <time>2014-06-08T13:16:17.46</time>
      </trkpt>
      <trkpt lat="49.54773" lon="1.85526">
        <ele>119</ele>
        <time>2014-06-08T13:16:23.46</time>
      </trkpt>
      <trkpt lat="49.54767" lon="1.85533">
        <ele>118.5</ele>
        <time>2014-06-08T13:16:29.46</time>
      </trkpt>
      <trkpt lat="49.5476" lon="1.85538">
        <ele>118.3</ele>
        <time>2014-06-08T13:16:34.52</time>
      </trkpt>
      <trkpt lat="49.54754" lon="1.85548">
        <ele>118</ele>
        <time>2014-06-08T13:16:41.46</time>
      </trkpt>
      <trkpt lat="49.54749" lon="1.85556">
        <ele>117.5</ele>
        <time>2014-06-08T13:16:48.46</time>
      </trkpt>
      <trkpt lat="49.54753" lon="1.85568">
        <ele>116.8</ele>
        <time>2014-06-08T13:16:53.46</time>
      </trkpt>
      <trkpt lat="49.54748" lon="1.85579">
        <ele>116.4</ele>
        <time>2014-06-08T13:17:00.50</time>
      </trkpt>
      <trkpt lat="49.54742" lon="1.85581">
        <ele>116.1</ele>
        <time>2014-06-08T13:17:07.46</time>
      </trkpt>
      <trkpt lat="49.54741" lon="1.85582">
        <ele>115.9</ele>
        <time>2014-06-08T13:17:14.46</time>
      </trkpt>
      <trkpt lat="49.54737" lon="1.85589">
        <ele>115</ele>
        <time>2014-06-08T13:17:18.49</time>
      </trkpt>
      <trkpt lat="49.54736" lon="1.8559">
        <ele>114.6</ele>
        <time>2014-06-08T13:17:25.46</time>
      </trkpt>
      <trkpt lat="49.54737" lon="1.85582">
        <ele>114.7</ele>
        <time>2014-06-08T13:17:32.47</time>
      </trkpt>
      <trkpt lat="49.54731" lon="1.85574">
        <ele>114.5</ele>
        <time>2014-06-08T13:17:38.48</time>
      </trkpt>
      <trkpt lat="49.54725" lon="1.8557">
        <ele>114.6</ele>
        <time>2014-06-08T13:17:45.46</time>
      </trkpt>
      <trkpt lat="49.54718" lon="1.85567">
        <ele>114.7</ele>
        <time>2014-06-08T13:17:49.46</time>
      </trkpt>
      <trkpt lat="49.54712" lon="1.85562">
        <ele>114.6</ele>
        <time>2014-06-08T13:17:56.49</time>
      </trkpt>
      <trkpt lat="49.54708" lon="1.85558">
        <ele>114.5</ele>
        <time>2014-06-08T13:18:03.46</time>
      </trkpt>
      <trkpt lat="49.54703" lon="1.85553">
        <ele>114.5</ele>
        <time>2014-06-08T13:18:10.46</time>
      </trkpt>
      <trkpt lat="49.54699" lon="1.85544">
        <ele>114.4</ele>
        <time>2014-06-08T13:18:17.46</time>
      </trkpt>
      <trkpt lat="49.54691" lon="1.85541">
        <ele>114.5</ele>
        <time>2014-06-08T13:18:24.46</time>
      </trkpt>
      <trkpt lat="49.54685" lon="1.85535">
        <ele>114.6</ele>
        <time>2014-06-08T13:18:30.46</time>
      </trkpt>
      <trkpt lat="49.54677" lon="1.85527">
        <ele>114.7</ele>
        <time>2014-06-08T13:18:34.46</time>
      </trkpt>
      <trkpt lat="49.5467" lon="1.85523">
        <ele>114.6</ele>
        <time>2014-06-08T13:18:38.46</time>
      </trkpt>
      <trkpt lat="49.54663" lon="1.85517">
        <ele>114.6</ele>
        <time>2014-06-08T13:18:44.46</time>
      </trkpt>
      <trkpt lat="49.54658" lon="1.85512">
        <ele>114.6</ele>
        <time>2014-06-08T13:18:51.46</time>
      </trkpt>
      <trkpt lat="49.54651" lon="1.85504">
        <ele>114.6</ele>
        <time>2014-06-08T13:18:58.46</time>
      </trkpt>
      <trkpt lat="49.54646" lon="1.85495">
        <ele>114.6</ele>
        <time>2014-06-08T13:19:04.46</time>
      </trkpt>
      <trkpt lat="49.54644" lon="1.85485">
        <ele>114.5</ele>
        <time>2014-06-08T13:19:11.46</time>
      </trkpt>
      <trkpt lat="49.54638" lon="1.85477">
        <ele>114.5</ele>
        <time>2014-06-08T13:19:17.46</time>
      </trkpt>
      <trkpt lat="49.54631" lon="1.85471">
        <ele>114.6</ele>
        <time>2014-06-08T13:19:24.46</time>
      </trkpt>
      <trkpt lat="49.54623" lon="1.85465">
        <ele>114.5</ele>
        <time>2014-06-08T13:19:30.46</time>
      </trkpt>
      <trkpt lat="49.54616" lon="1.8546">
        <ele>114.4</ele>
        <time>2014-06-08T13:19:35.46</time>
      </trkpt>
      <trkpt lat="49.54609" lon="1.85461">
        <ele>114.3</ele>
        <time>2014-06-08T13:19:41.46</time>
      </trkpt>
      <trkpt lat="49.54601" lon="1.85466">
        <ele>114.3</ele>
        <time>2014-06-08T13:19:46.46</time>
      </trkpt>
      <trkpt lat="49.54596" lon="1.85475">
        <ele>114</ele>
        <time>2014-06-08T13:19:52.46</time>
      </trkpt>
      <trkpt lat="49.54589" lon="1.85482">
        <ele>113.8</ele>
        <time>2014-06-08T13:19:59.46</time>
      </trkpt>
      <trkpt lat="49.54583" lon="1.85491">
        <ele>113.4</ele>
        <time>2014-06-08T13:20:06.46</time>
      </trkpt>
      <trkpt lat="49.54579" lon="1.855">
        <ele>113.2</ele>
        <time>2014-06-08T13:20:12.46</time>
      </trkpt>
      <trkpt lat="49.54575" lon="1.85511">
        <ele>112.8</ele>
        <time>2014-06-08T13:20:19.46</time>
      </trkpt>
      <trkpt lat="49.54571" lon="1.85523">
        <ele>112.5</ele>
        <time>2014-06-08T13:20:24.46</time>
      </trkpt>
      <trkpt lat="49.54568" lon="1.85534">
        <ele>112.2</ele>
        <time>2014-06-08T13:20:30.46</time>
      </trkpt>
      <trkpt lat="49.54567" lon="1.85545">
        <ele>111.4</ele>
        <time>2014-06-08T13:20:36.46</time>
      </trkpt>
      <trkpt lat="49.54565" lon="1.85554">
        <ele>110.6</ele>
        <time>2014-06-08T13:20:43.46</time>
      </trkpt>
      <trkpt lat="49.54563" lon="1.85564">
        <ele>110</ele>
        <time>2014-06-08T13:20:50.46</time>
      </trkpt>
      <trkpt lat="49.54562" lon="1.85575">
        <ele>108.9</ele>
        <time>2014-06-08T13:20:57.46</time>
      </trkpt>
      <trkpt lat="49.54558" lon="1.85587">
        <ele>108.5</ele>
        <time>2014-06-08T13:21:04.46</time>
      </trkpt>
      <trkpt lat="49.54556" lon="1.85598">
        <ele>108.1</ele>
        <time>2014-06-08T13:21:11.46</time>
      </trkpt>
      <trkpt lat="49.54555" lon="1.85606">
        <ele>107.8</ele>
        <time>2014-06-08T13:21:18.46</time>
      </trkpt>
      <trkpt lat="49.54553" lon="1.85616">
        <ele>107.3</ele>
        <time>2014-06-08T13:21:25.46</time>
      </trkpt>
      <trkpt lat="49.54549" lon="1.85626">
        <ele>106.6</ele>
        <time>2014-06-08T13:21:32.46</time>
      </trkpt>
      <trkpt lat="49.54546" lon="1.85637">
        <ele>106.3</ele>
        <time>2014-06-08T13:21:39.46</time>
      </trkpt>
      <trkpt lat="49.54541" lon="1.85645">
        <ele>106.3</ele>
        <time>2014-06-08T13:21:46.46</time>
      </trkpt>
      <trkpt lat="49.54536" lon="1.85646">
        <ele>106.1</ele>
        <time>2014-06-08T13:21:53.46</time>
      </trkpt>
      <trkpt lat="49.54535" lon="1.85646">
        <ele>106.3</ele>
        <time>2014-06-08T13:22:00.46</time>
      </trkpt>
      <trkpt lat="49.54527" lon="1.85644">
        <ele>106.7</ele>
        <time>2014-06-08T13:22:07.46</time>
      </trkpt>
      <trkpt lat="49.54532" lon="1.85641">
        <ele>106.5</ele>
        <time>2014-06-08T13:22:14.46</time>
      </trkpt>
      <trkpt lat="49.54527" lon="1.85635">
        <ele>106.6</ele>
        <time>2014-06-08T13:22:21.46</time>
      </trkpt>
      <trkpt lat="49.54528" lon="1.85634">
        <ele>106.5</ele>
        <time>2014-06-08T13:22:28.46</time>
      </trkpt>
      <trkpt lat="49.54521" lon="1.85627">
        <ele>106.5</ele>
        <time>2014-06-08T13:22:30.46</time>
      </trkpt>
      <trkpt lat="49.54514" lon="1.85622">
        <ele>106.3</ele>
        <time>2014-06-08T13:22:33.50</time>
      </trkpt>
      <trkpt lat="49.54507" lon="1.85618">
        <ele>106.3</ele>
        <time>2014-06-08T13:22:39.46</time>
      </trkpt>
      <trkpt lat="49.54501" lon="1.85614">
        <ele>105.9</ele>
        <time>2014-06-08T13:22:46.46</time>
      </trkpt>
      <trkpt lat="49.54493" lon="1.85609">
        <ele>105.8</ele>
        <time>2014-06-08T13:22:51.45</time>
      </trkpt>
      <trkpt lat="49.54491" lon="1.85608">
        <ele>105.8</ele>
        <time>2014-06-08T13:22:58.46</time>
      </trkpt>
      <trkpt lat="49.54485" lon="1.85601">
        <ele>104.3</ele>
        <time>2014-06-08T13:23:03.54</time>
      </trkpt>
      <trkpt lat="49.5448" lon="1.85601">
        <ele>104.1</ele>
        <time>2014-06-08T13:23:10.48</time>
      </trkpt>
      <trkpt lat="49.54459" lon="1.85614">
        <ele>103.6</ele>
        <time>2014-06-08T13:23:13.51</time>
      </trkpt>
      <trkpt lat="49.54453" lon="1.85616">
        <ele>103.5</ele>
        <time>2014-06-08T13:23:20.48</time>
      </trkpt>
      <trkpt lat="49.54449" lon="1.85617">
        <ele>103.3</ele>
        <time>2014-06-08T13:23:27.48</time>
      </trkpt>
      <trkpt lat="49.54443" lon="1.85615">
        <ele>103.2</ele>
        <time>2014-06-08T13:23:34.48</time>
      </trkpt>
      <trkpt lat="49.5444" lon="1.8561">
        <ele>103.3</ele>
        <time>2014-06-08T13:23:41.48</time>
      </trkpt>
      <trkpt lat="49.54438" lon="1.85608">
        <ele>103.3</ele>
        <time>2014-06-08T13:23:48.48</time>
      </trkpt>
      <trkpt lat="49.5443" lon="1.85605">
        <ele>103.4</ele>
        <time>2014-06-08T13:23:54.48</time>
      </trkpt>
      <trkpt lat="49.54427" lon="1.85601">
        <ele>103.4</ele>
        <time>2014-06-08T13:24:01.48</time>
      </trkpt>
      <trkpt lat="49.54423" lon="1.85598">
        <ele>103.3</ele>
        <time>2014-06-08T13:24:08.48</time>
      </trkpt>
      <trkpt lat="49.54415" lon="1.85593">
        <ele>103.2</ele>
        <time>2014-06-08T13:24:14.48</time>
      </trkpt>
      <trkpt lat="49.54408" lon="1.85589">
        <ele>103.3</ele>
        <time>2014-06-08T13:24:20.48</time>
      </trkpt>
      <trkpt lat="49.54401" lon="1.85585">
        <ele>103.1</ele>
        <time>2014-06-08T13:24:25.48</time>
      </trkpt>
      <trkpt lat="49.54394" lon="1.85581">
        <ele>103</ele>
        <time>2014-06-08T13:24:31.48</time>
      </trkpt>
      <trkpt lat="49.54387" lon="1.85575">
        <ele>102.9</ele>
        <time>2014-06-08T13:24:36.48</time>
      </trkpt>
      <trkpt lat="49.54379" lon="1.85573">
        <ele>102.9</ele>
        <time>2014-06-08T13:24:42.48</time>
      </trkpt>
      <trkpt lat="49.54371" lon="1.8557">
        <ele>102.9</ele>
        <time>2014-06-08T13:24:47.48</time>
      </trkpt>
      <trkpt lat="49.54365" lon="1.85565">
        <ele>103</ele>
        <time>2014-06-08T13:24:54.48</time>
      </trkpt>
      <trkpt lat="49.54359" lon="1.8556">
        <ele>103</ele>
        <time>2014-06-08T13:24:58.48</time>
      </trkpt>
      <trkpt lat="49.54351" lon="1.85556">
        <ele>103</ele>
        <time>2014-06-08T13:25:03.48</time>
      </trkpt>
      <trkpt lat="49.54345" lon="1.85552">
        <ele>102.6</ele>
        <time>2014-06-08T13:25:10.48</time>
      </trkpt>
      <trkpt lat="49.54337" lon="1.85548">
        <ele>102.2</ele>
        <time>2014-06-08T13:25:17.48</time>
      </trkpt>
      <trkpt lat="49.5433" lon="1.85544">
        <ele>102</ele>
        <time>2014-06-08T13:25:23.48</time>
      </trkpt>
      <trkpt lat="49.54323" lon="1.85539">
        <ele>101.9</ele>
        <time>2014-06-08T13:25:28.48</time>
      </trkpt>
      <trkpt lat="49.54316" lon="1.85535">
        <ele>101.8</ele>
        <time>2014-06-08T13:25:35.48</time>
      </trkpt>
      <trkpt lat="49.54312" lon="1.85529">
        <ele>101.7</ele>
        <time>2014-06-08T13:25:42.48</time>
      </trkpt>
      <trkpt lat="49.54305" lon="1.85524">
        <ele>101.6</ele>
        <time>2014-06-08T13:25:49.48</time>
      </trkpt>
      <trkpt lat="49.54299" lon="1.85521">
        <ele>101.3</ele>
        <time>2014-06-08T13:25:56.48</time>
      </trkpt>
      <trkpt lat="49.5429" lon="1.8552">
        <ele>101.4</ele>
        <time>2014-06-08T13:26:02.48</time>
      </trkpt>
      <trkpt lat="49.54283" lon="1.85518">
        <ele>101.5</ele>
        <time>2014-06-08T13:26:07.48</time>
      </trkpt>
      <trkpt lat="49.54276" lon="1.85519">
        <ele>101.4</ele>
        <time>2014-06-08T13:26:13.48</time>
      </trkpt>
      <trkpt lat="49.54269" lon="1.85521">
        <ele>101.3</ele>
        <time>2014-06-08T13:26:20.48</time>
      </trkpt>
      <trkpt lat="49.5426" lon="1.85524">
        <ele>101.2</ele>
        <time>2014-06-08T13:26:26.48</time>
      </trkpt>
      <trkpt lat="49.54253" lon="1.85527">
        <ele>101.3</ele>
        <time>2014-06-08T13:26:32.48</time>
      </trkpt>
      <trkpt lat="49.54245" lon="1.85527">
        <ele>101.3</ele>
        <time>2014-06-08T13:26:36.48</time>
      </trkpt>
      <trkpt lat="49.54237" lon="1.85529">
        <ele>101.4</ele>
        <time>2014-06-08T13:26:42.48</time>
      </trkpt>
      <trkpt lat="49.5423" lon="1.85531">
        <ele>101.3</ele>
        <time>2014-06-08T13:26:49.48</time>
      </trkpt>
      <trkpt lat="49.54221" lon="1.85529">
        <ele>101.3</ele>
        <time>2014-06-08T13:26:56.48</time>
      </trkpt>
      <trkpt lat="49.54213" lon="1.85532">
        <ele>101.2</ele>
        <time>2014-06-08T13:27:02.48</time>
      </trkpt>
      <trkpt lat="49.54206" lon="1.85536">
        <ele>101.2</ele>
        <time>2014-06-08T13:27:08.48</time>
      </trkpt>
      <trkpt lat="49.54198" lon="1.8554">
        <ele>101.3</ele>
        <time>2014-06-08T13:27:14.48</time>
      </trkpt>
      <trkpt lat="49.5419" lon="1.85543">
        <ele>101.4</ele>
        <time>2014-06-08T13:27:21.48</time>
      </trkpt>
      <trkpt lat="49.54182" lon="1.85546">
        <ele>101.5</ele>
        <time>2014-06-08T13:27:27.48</time>
      </trkpt>
      <trkpt lat="49.54175" lon="1.85551">
        <ele>101.7</ele>
        <time>2014-06-08T13:27:33.48</time>
      </trkpt>
      <trkpt lat="49.54168" lon="1.85558">
        <ele>101.6</ele>
        <time>2014-06-08T13:27:39.48</time>
      </trkpt>
      <trkpt lat="49.54164" lon="1.85565">
        <ele>101.7</ele>
        <time>2014-06-08T13:27:46.48</time>
      </trkpt>
      <trkpt lat="49.54157" lon="1.85572">
        <ele>101.6</ele>
        <time>2014-06-08T13:27:52.48</time>
      </trkpt>
      <trkpt lat="49.54151" lon="1.8558">
        <ele>101.7</ele>
        <time>2014-06-08T13:27:58.49</time>
      </trkpt>
      <trkpt lat="49.54148" lon="1.85585">
        <ele>102</ele>
        <time>2014-06-08T13:28:05.48</time>
      </trkpt>
      <trkpt lat="49.54143" lon="1.85591">
        <ele>102.4</ele>
        <time>2014-06-08T13:28:12.48</time>
      </trkpt>
      <trkpt lat="49.54137" lon="1.85594">
        <ele>102.7</ele>
        <time>2014-06-08T13:28:19.48</time>
      </trkpt>
      <trkpt lat="49.54131" lon="1.85595">
        <ele>103</ele>
        <time>2014-06-08T13:28:26.48</time>
      </trkpt>
      <trkpt lat="49.5413" lon="1.85593">
        <ele>103.1</ele>
        <time>2014-06-08T13:28:33.48</time>
      </trkpt>
      <trkpt lat="49.54127" lon="1.85604">
        <ele>103.8</ele>
        <time>2014-06-08T13:28:37.50</time>
      </trkpt>
      <trkpt lat="49.54123" lon="1.85614">
        <ele>104.1</ele>
        <time>2014-06-08T13:28:43.46</time>
      </trkpt>
      <trkpt lat="49.54117" lon="1.85622">
        <ele>104.5</ele>
        <time>2014-06-08T13:28:47.45</time>
      </trkpt>
      <trkpt lat="49.54109" lon="1.85626">
        <ele>104.9</ele>
        <time>2014-06-08T13:28:51.46</time>
      </trkpt>
      <trkpt lat="49.54103" lon="1.85633">
        <ele>105.2</ele>
        <time>2014-06-08T13:28:58.45</time>
      </trkpt>
      <trkpt lat="49.54096" lon="1.8564">
        <ele>105.4</ele>
        <time>2014-06-08T13:29:05.45</time>
      </trkpt>
      <trkpt lat="49.5409" lon="1.85647">
        <ele>105.7</ele>
        <time>2014-06-08T13:29:10.46</time>
      </trkpt>
      <trkpt lat="49.54087" lon="1.85655">
        <ele>106</ele>
        <time>2014-06-08T13:29:17.45</time>
      </trkpt>
      <trkpt lat="49.5408" lon="1.85661">
        <ele>106.5</ele>
        <time>2014-06-08T13:29:23.45</time>
      </trkpt>
      <trkpt lat="49.54074" lon="1.8567">
        <ele>107.1</ele>
        <time>2014-06-08T13:29:29.45</time>
      </trkpt>
      <trkpt lat="49.54066" lon="1.85676">
        <ele>107.4</ele>
        <time>2014-06-08T13:29:35.45</time>
      </trkpt>
      <trkpt lat="49.54058" lon="1.85681">
        <ele>107.9</ele>
        <time>2014-06-08T13:29:41.45</time>
      </trkpt>
      <trkpt lat="49.54051" lon="1.85684">
        <ele>108.3</ele>
        <time>2014-06-08T13:29:46.45</time>
      </trkpt>
      <trkpt lat="49.54045" lon="1.85687">
        <ele>108.8</ele>
        <time>2014-06-08T13:29:53.45</time>
      </trkpt>
      <trkpt lat="49.5404" lon="1.85692">
        <ele>109.1</ele>
        <time>2014-06-08T13:30:00.45</time>
      </trkpt>
      <trkpt lat="49.54033" lon="1.85694">
        <ele>109.5</ele>
        <time>2014-06-08T13:30:04.45</time>
      </trkpt>
      <trkpt lat="49.54031" lon="1.85696">
        <ele>109.6</ele>
        <time>2014-06-08T13:30:11.45</time>
      </trkpt>
      <trkpt lat="49.54023" lon="1.85697">
        <ele>109.8</ele>
        <time>2014-06-08T13:30:15.48</time>
      </trkpt>
      <trkpt lat="49.54016" lon="1.85695">
        <ele>109.9</ele>
        <time>2014-06-08T13:30:22.45</time>
      </trkpt>
      <trkpt lat="49.54008" lon="1.85695">
        <ele>110.1</ele>
        <time>2014-06-08T13:30:28.45</time>
      </trkpt>
      <trkpt lat="49.54001" lon="1.85694">
        <ele>110.3</ele>
        <time>2014-06-08T13:30:35.45</time>
      </trkpt>
      <trkpt lat="49.5399" lon="1.8569">
        <ele>110.4</ele>
        <time>2014-06-08T13:30:39.45</time>
      </trkpt>
      <trkpt lat="49.53983" lon="1.85688">
        <ele>110.6</ele>
        <time>2014-06-08T13:30:44.45</time>
      </trkpt>
      <trkpt lat="49.53975" lon="1.85683">
        <ele>110.8</ele>
        <time>2014-06-08T13:30:50.45</time>
      </trkpt>
      <trkpt lat="49.53967" lon="1.85677">
        <ele>111.1</ele>
        <time>2014-06-08T13:30:54.45</time>
      </trkpt>
      <trkpt lat="49.53961" lon="1.85669">
        <ele>111.7</ele>
        <time>2014-06-08T13:30:59.45</time>
      </trkpt>
      <trkpt lat="49.53954" lon="1.85665">
        <ele>111.8</ele>
        <time>2014-06-08T13:31:03.45</time>
      </trkpt>
      <trkpt lat="49.53948" lon="1.85656">
        <ele>112.3</ele>
        <time>2014-06-08T13:31:09.45</time>
      </trkpt>
      <trkpt lat="49.53947" lon="1.85644">
        <ele>112.8</ele>
        <time>2014-06-08T13:31:15.45</time>
      </trkpt>
      <trkpt lat="49.53954" lon="1.85639">
        <ele>113.4</ele>
        <time>2014-06-08T13:31:19.46</time>
      </trkpt>
      <trkpt lat="49.53954" lon="1.85627">
        <ele>114</ele>
        <time>2014-06-08T13:31:26.45</time>
      </trkpt>
      <trkpt lat="49.53953" lon="1.85621">
        <ele>114.3</ele>
        <time>2014-06-08T13:31:33.45</time>
      </trkpt>
      <trkpt lat="49.53951" lon="1.85615">
        <ele>114.6</ele>
        <time>2014-06-08T13:31:40.75</time>
      </trkpt>
      <trkpt lat="49.53955" lon="1.85618">
        <ele>115.1</ele>
        <time>2014-06-08T13:31:47.52</time>
      </trkpt>
      <trkpt lat="49.53954" lon="1.85617">
        <ele>115.9</ele>
        <time>2014-06-08T13:31:54.55</time>
      </trkpt>
      <trkpt lat="49.53959" lon="1.85619">
        <ele>117</ele>
        <time>2014-06-08T13:31:55.50</time>
      </trkpt>
      <trkpt lat="49.53959" lon="1.85618">
        <ele>117.1</ele>
        <time>2014-06-08T13:32:02.44</time>
      </trkpt>
      <trkpt lat="49.53956" lon="1.85613">
        <ele>117.4</ele>
        <time>2014-06-08T13:32:09.47</time>
      </trkpt>
      <trkpt lat="49.53952" lon="1.85608">
        <ele>117.8</ele>
        <time>2014-06-08T13:32:16.40</time>
      </trkpt>
      <trkpt lat="49.53952" lon="1.85599">
        <ele>118.3</ele>
        <time>2014-06-08T13:32:23.44</time>
      </trkpt>
      <trkpt lat="49.53951" lon="1.85588">
        <ele>118.7</ele>
        <time>2014-06-08T13:32:30.41</time>
      </trkpt>
      <trkpt lat="49.53946" lon="1.85579">
        <ele>118.9</ele>
        <time>2014-06-08T13:32:36.41</time>
      </trkpt>
      <trkpt lat="49.53941" lon="1.8557">
        <ele>119.1</ele>
        <time>2014-06-08T13:32:40.41</time>
      </trkpt>
      <trkpt lat="49.53934" lon="1.85561">
        <ele>119.4</ele>
        <time>2014-06-08T13:32:47.43</time>
      </trkpt>
      <trkpt lat="49.53931" lon="1.8555">
        <ele>119.7</ele>
        <time>2014-06-08T13:32:54.40</time>
      </trkpt>
      <trkpt lat="49.53926" lon="1.8554">
        <ele>120.1</ele>
        <time>2014-06-08T13:33:00.39</time>
      </trkpt>
      <trkpt lat="49.53919" lon="1.85534">
        <ele>120.2</ele>
        <time>2014-06-08T13:33:05.51</time>
      </trkpt>
      <trkpt lat="49.53912" lon="1.85527">
        <ele>120.4</ele>
        <time>2014-06-08T13:33:10.38</time>
      </trkpt>
      <trkpt lat="49.53911" lon="1.85525">
        <ele>120.3</ele>
        <time>2014-06-08T13:33:17.38</time>
      </trkpt>
      <trkpt lat="49.53909" lon="1.85518">
        <ele>119.8</ele>
        <time>2014-06-08T13:33:24.38</time>
      </trkpt>
      <trkpt lat="49.5391" lon="1.85509">
        <ele>119.2</ele>
        <time>2014-06-08T13:33:31.38</time>
      </trkpt>
      <trkpt lat="49.5391" lon="1.85502">
        <ele>119.1</ele>
        <time>2014-06-08T13:33:38.38</time>
      </trkpt>
      <trkpt lat="49.53904" lon="1.85494">
        <ele>118.9</ele>
        <time>2014-06-08T13:33:44.38</time>
      </trkpt>
      <trkpt lat="49.53898" lon="1.85486">
        <ele>118.7</ele>
        <time>2014-06-08T13:33:49.38</time>
      </trkpt>
      <trkpt lat="49.53893" lon="1.85478">
        <ele>118.1</ele>
        <time>2014-06-08T13:33:54.38</time>
      </trkpt>
      <trkpt lat="49.53894" lon="1.85467">
        <ele>117.8</ele>
        <time>2014-06-08T13:34:01.38</time>
      </trkpt>
      <trkpt lat="49.53889" lon="1.85458">
        <ele>117.7</ele>
        <time>2014-06-08T13:34:06.39</time>
      </trkpt>
      <trkpt lat="49.53883" lon="1.85451">
        <ele>117.5</ele>
        <time>2014-06-08T13:34:12.38</time>
      </trkpt>
      <trkpt lat="49.53877" lon="1.85444">
        <ele>117.2</ele>
        <time>2014-06-08T13:34:16.38</time>
      </trkpt>
      <trkpt lat="49.53871" lon="1.85437">
        <ele>117.2</ele>
        <time>2014-06-08T13:34:22.38</time>
      </trkpt>
      <trkpt lat="49.53865" lon="1.85429">
        <ele>117.2</ele>
        <time>2014-06-08T13:34:29.38</time>
      </trkpt>
      <trkpt lat="49.53863" lon="1.8542">
        <ele>117.1</ele>
        <time>2014-06-08T13:34:36.38</time>
      </trkpt>
      <trkpt lat="49.53856" lon="1.85409">
        <ele>116.9</ele>
        <time>2014-06-08T13:34:41.38</time>
      </trkpt>
      <trkpt lat="49.53853" lon="1.85399">
        <ele>116.9</ele>
        <time>2014-06-08T13:34:47.38</time>
      </trkpt>
      <trkpt lat="49.53849" lon="1.8539">
        <ele>116.8</ele>
        <time>2014-06-08T13:34:53.38</time>
      </trkpt>
      <trkpt lat="49.53846" lon="1.8538">
        <ele>116.8</ele>
        <time>2014-06-08T13:35:00.38</time>
      </trkpt>
      <trkpt lat="49.53842" lon="1.85375">
        <ele>116.6</ele>
        <time>2014-06-08T13:35:07.38</time>
      </trkpt>
      <trkpt lat="49.53837" lon="1.85364">
        <ele>115.9</ele>
        <time>2014-06-08T13:35:13.38</time>
      </trkpt>
      <trkpt lat="49.53827" lon="1.85355">
        <ele>116</ele>
        <time>2014-06-08T13:35:16.38</time>
      </trkpt>
      <trkpt lat="49.53821" lon="1.85347">
        <ele>116</ele>
        <time>2014-06-08T13:35:20.38</time>
      </trkpt>
      <trkpt lat="49.53818" lon="1.85337">
        <ele>115.7</ele>
        <time>2014-06-08T13:35:27.38</time>
      </trkpt>
      <trkpt lat="49.53812" lon="1.85325">
        <ele>115.9</ele>
        <time>2014-06-08T13:35:31.38</time>
      </trkpt>
      <trkpt lat="49.53811" lon="1.85318">
        <ele>116.2</ele>
        <time>2014-06-08T13:35:38.38</time>
      </trkpt>
      <trkpt lat="49.53809" lon="1.85313">
        <ele>116.1</ele>
        <time>2014-06-08T13:35:45.39</time>
      </trkpt>
      <trkpt lat="49.5381" lon="1.85302">
        <ele>116.1</ele>
        <time>2014-06-08T13:35:52.38</time>
      </trkpt>
      <trkpt lat="49.53809" lon="1.85295">
        <ele>115.8</ele>
        <time>2014-06-08T13:35:59.38</time>
      </trkpt>
      <trkpt lat="49.53804" lon="1.85287">
        <ele>115.5</ele>
        <time>2014-06-08T13:36:02.38</time>
      </trkpt>
      <trkpt lat="49.53797" lon="1.8528">
        <ele>115.1</ele>
        <time>2014-06-08T13:36:06.38</time>
      </trkpt>
      <trkpt lat="49.53791" lon="1.85274">
        <ele>114.4</ele>
        <time>2014-06-08T13:36:10.38</time>
      </trkpt>
      <trkpt lat="49.53786" lon="1.85266">
        <ele>113.5</ele>
        <time>2014-06-08T13:36:14.38</time>
      </trkpt>
      <trkpt lat="49.53781" lon="1.85256">
        <ele>112.9</ele>
        <time>2014-06-08T13:36:21.38</time>
      </trkpt>
      <trkpt lat="49.5378" lon="1.85243">
        <ele>112.1</ele>
        <time>2014-06-08T13:36:27.39</time>
      </trkpt>
      <trkpt lat="49.53781" lon="1.8524">
        <ele>112</ele>
        <time>2014-06-08T13:36:34.38</time>
      </trkpt>
      <trkpt lat="49.53781" lon="1.85234">
        <ele>111.8</ele>
        <time>2014-06-08T13:36:36.41</time>
      </trkpt>
      <trkpt lat="49.53772" lon="1.85231">
        <ele>112.2</ele>
        <time>2014-06-08T13:36:40.39</time>
      </trkpt>
      <trkpt lat="49.53775" lon="1.85236">
        <ele>112.6</ele>
        <time>2014-06-08T13:36:47.38</time>
      </trkpt>
      <trkpt lat="49.53783" lon="1.85239">
        <ele>112.6</ele>
        <time>2014-06-08T13:36:54.38</time>
      </trkpt>
      <trkpt lat="49.5379" lon="1.85242">
        <ele>112.6</ele>
        <time>2014-06-08T13:37:01.37</time>
      </trkpt>
      <trkpt lat="49.53791" lon="1.8524">
        <ele>112.6</ele>
        <time>2014-06-08T13:37:08.37</time>
      </trkpt>
      <trkpt lat="49.53786" lon="1.85239">
        <ele>112.5</ele>
        <time>2014-06-08T13:37:15.37</time>
      </trkpt>
      <trkpt lat="49.53785" lon="1.85239">
        <ele>112.4</ele>
        <time>2014-06-08T13:37:22.38</time>
      </trkpt>
      <trkpt lat="49.53776" lon="1.85236">
        <ele>112</ele>
        <time>2014-06-08T13:37:23.40</time>
      </trkpt>
      <trkpt lat="49.53775" lon="1.85234">
        <ele>115.3</ele>
        <time>2014-06-08T13:37:30.39</time>
      </trkpt>
      <trkpt lat="49.53777" lon="1.85237">
        <ele>117.5</ele>
        <time>2014-06-08T13:37:37.39</time>
      </trkpt>
      <trkpt lat="49.53776" lon="1.85238">
        <ele>117.7</ele>
        <time>2014-06-08T13:37:44.40</time>
      </trkpt>
      <trkpt lat="49.5378" lon="1.85241">
        <ele>119.5</ele>
        <time>2014-06-08T13:37:45.39</time>
      </trkpt>
      <trkpt lat="49.53775" lon="1.85243">
        <ele>119.2</ele>
        <time>2014-06-08T13:37:52.38</time>
      </trkpt>
      <trkpt lat="49.5377" lon="1.85239">
        <ele>119</ele>
        <time>2014-06-08T13:37:59.38</time>
      </trkpt>
      <trkpt lat="49.5377" lon="1.85238">
        <ele>118.8</ele>
        <time>2014-06-08T13:38:06.38</time>
      </trkpt>
      <trkpt lat="49.53768" lon="1.85237">
        <ele>118.3</ele>
        <time>2014-06-08T13:38:13.38</time>
      </trkpt>
      <trkpt lat="49.53769" lon="1.85236">
        <ele>118.3</ele>
        <time>2014-06-08T13:38:20.38</time>
      </trkpt>
      <trkpt lat="49.53775" lon="1.85232">
        <ele>118.3</ele>
        <time>2014-06-08T13:38:23.40</time>
      </trkpt>
      <trkpt lat="49.53779" lon="1.85236">
        <ele>118.5</ele>
        <time>2014-06-08T13:38:28.39</time>
      </trkpt>
      <trkpt lat="49.53782" lon="1.85239">
        <ele>117.9</ele>
        <time>2014-06-08T13:38:35.39</time>
      </trkpt>
      <trkpt lat="49.53779" lon="1.85236">
        <ele>117.4</ele>
        <time>2014-06-08T13:38:42.40</time>
      </trkpt>
      <trkpt lat="49.53775" lon="1.85226">
        <ele>117.2</ele>
        <time>2014-06-08T13:38:46.42</time>
      </trkpt>
      <trkpt lat="49.53771" lon="1.85225">
        <ele>117.7</ele>
        <time>2014-06-08T13:38:53.43</time>
      </trkpt>
      <trkpt lat="49.53766" lon="1.85222">
        <ele>118</ele>
        <time>2014-06-08T13:39:00.40</time>
      </trkpt>
      <trkpt lat="49.53768" lon="1.8523">
        <ele>115.9</ele>
        <time>2014-06-08T13:39:07.41</time>
      </trkpt>
      <trkpt lat="49.53773" lon="1.85233">
        <ele>115.3</ele>
        <time>2014-06-08T13:39:14.39</time>
      </trkpt>
      <trkpt lat="49.53775" lon="1.85237">
        <ele>115.3</ele>
        <time>2014-06-08T13:39:21.38</time>
      </trkpt>
      <trkpt lat="49.53768" lon="1.85231">
        <ele>114.8</ele>
        <time>2014-06-08T13:39:26.39</time>
      </trkpt>
      <trkpt lat="49.53771" lon="1.85235">
        <ele>114.4</ele>
        <time>2014-06-08T13:39:33.38</time>
      </trkpt>
      <trkpt lat="49.53771" lon="1.85236">
        <ele>114.4</ele>
        <time>2014-06-08T13:39:40.38</time>
      </trkpt>
      <trkpt lat="49.53782" lon="1.8524">
        <ele>113.5</ele>
        <time>2014-06-08T13:39:41.40</time>
      </trkpt>
      <trkpt lat="49.53779" lon="1.85235">
        <ele>114.9</ele>
        <time>2014-06-08T13:39:45.39</time>
      </trkpt>
      <trkpt lat="49.53776" lon="1.85231">
        <ele>114.9</ele>
        <time>2014-06-08T13:39:52.37</time>
      </trkpt>
      <trkpt lat="49.53775" lon="1.85231">
        <ele>114.9</ele>
        <time>2014-06-08T13:39:59.38</time>
      </trkpt>
      <trkpt lat="49.53773" lon="1.8523">
        <ele>115.3</ele>
        <time>2014-06-08T13:40:00.39</time>
      </trkpt>
      <trkpt lat="49.53773" lon="1.85229">
        <ele>115.4</ele>
        <time>2014-06-08T13:40:07.37</time>
      </trkpt>
      <trkpt lat="49.53772" lon="1.85232">
        <ele>115.3</ele>
        <time>2014-06-08T13:40:14.37</time>
      </trkpt>
      <trkpt lat="49.53769" lon="1.85222">
        <ele>115.6</ele>
        <time>2014-06-08T13:40:20.39</time>
      </trkpt>
      <trkpt lat="49.5377" lon="1.85222">
        <ele>115.7</ele>
        <time>2014-06-08T13:40:27.37</time>
      </trkpt>
      <trkpt lat="49.53768" lon="1.85224">
        <ele>115.4</ele>
        <time>2014-06-08T13:40:30.39</time>
      </trkpt>
      <trkpt lat="49.53768" lon="1.85222">
        <ele>115.3</ele>
        <time>2014-06-08T13:40:37.37</time>
      </trkpt>
      <trkpt lat="49.53769" lon="1.85222">
        <ele>115.2</ele>
        <time>2014-06-08T13:40:44.37</time>
      </trkpt>
      <trkpt lat="49.53768" lon="1.8522">
        <ele>115.1</ele>
        <time>2014-06-08T13:40:51.37</time>
      </trkpt>
      <trkpt lat="49.5377" lon="1.85231">
        <ele>114.8</ele>
        <time>2014-06-08T13:40:55.40</time>
      </trkpt>
      <trkpt lat="49.5377" lon="1.85232">
        <ele>114.8</ele>
        <time>2014-06-08T13:41:02.37</time>
      </trkpt>
      <trkpt lat="49.53767" lon="1.85236">
        <ele>114.8</ele>
        <time>2014-06-08T13:41:03.39</time>
      </trkpt>
      <trkpt lat="49.53767" lon="1.85235">
        <ele>114.7</ele>
        <time>2014-06-08T13:41:10.37</time>
      </trkpt>
      <trkpt lat="49.53766" lon="1.85235">
        <ele>114.7</ele>
        <time>2014-06-08T13:41:17.43</time>
      </trkpt>
      <trkpt lat="49.53763" lon="1.85238">
        <ele>114.6</ele>
        <time>2014-06-08T13:41:24.37</time>
      </trkpt>
      <trkpt lat="49.53764" lon="1.85241">
        <ele>114.5</ele>
        <time>2014-06-08T13:41:31.37</time>
      </trkpt>
      <trkpt lat="49.53763" lon="1.8524">
        <ele>114.6</ele>
        <time>2014-06-08T13:41:38.37</time>
      </trkpt>
      <trkpt lat="49.53763" lon="1.85235">
        <ele>114.5</ele>
        <time>2014-06-08T13:41:45.37</time>
      </trkpt>
      <trkpt lat="49.53761" lon="1.85233">
        <ele>114.4</ele>
        <time>2014-06-08T13:41:52.37</time>
      </trkpt>
      <trkpt lat="49.53766" lon="1.85233">
        <ele>114.3</ele>
        <time>2014-06-08T13:41:56.39</time>
      </trkpt>
      <trkpt lat="49.53765" lon="1.8523">
        <ele>113.5</ele>
        <time>2014-06-08T13:42:03.37</time>
      </trkpt>
      <trkpt lat="49.5376" lon="1.85229">
        <ele>112.4</ele>
        <time>2014-06-08T13:42:10.37</time>
      </trkpt>
      <trkpt lat="49.53756" lon="1.85229">
        <ele>111.2</ele>
        <time>2014-06-08T13:42:17.40</time>
      </trkpt>
      <trkpt lat="49.53754" lon="1.85226">
        <ele>110.4</ele>
        <time>2014-06-08T13:42:24.37</time>
      </trkpt>
      <trkpt lat="49.53748" lon="1.85225">
        <ele>110.1</ele>
        <time>2014-06-08T13:42:31.37</time>
      </trkpt>
      <trkpt lat="49.53744" lon="1.85218">
        <ele>109.8</ele>
        <time>2014-06-08T13:42:38.37</time>
      </trkpt>
      <trkpt lat="49.53737" lon="1.85212">
        <ele>109.6</ele>
        <time>2014-06-08T13:42:45.37</time>
      </trkpt>
      <trkpt lat="49.53732" lon="1.85206">
        <ele>109.5</ele>
        <time>2014-06-08T13:42:52.37</time>
      </trkpt>
      <trkpt lat="49.53725" lon="1.852">
        <ele>109.3</ele>
        <time>2014-06-08T13:42:58.37</time>
      </trkpt>
      <trkpt lat="49.53717" lon="1.85196">
        <ele>109</ele>
        <time>2014-06-08T13:43:02.43</time>
      </trkpt>
      <trkpt lat="49.53711" lon="1.85195">
        <ele>108.8</ele>
        <time>2014-06-08T13:43:09.37</time>
      </trkpt>
      <trkpt lat="49.53707" lon="1.85192">
        <ele>108.3</ele>
        <time>2014-06-08T13:43:16.37</time>
      </trkpt>
      <trkpt lat="49.53702" lon="1.85188">
        <ele>108.2</ele>
        <time>2014-06-08T13:43:23.37</time>
      </trkpt>
      <trkpt lat="49.53703" lon="1.85183">
        <ele>108.7</ele>
        <time>2014-06-08T13:43:30.37</time>
      </trkpt>
      <trkpt lat="49.53696" lon="1.85177">
        <ele>109</ele>
        <time>2014-06-08T13:43:37.37</time>
      </trkpt>
      <trkpt lat="49.53689" lon="1.85172">
        <ele>108.9</ele>
        <time>2014-06-08T13:43:44.37</time>
      </trkpt>
      <trkpt lat="49.53682" lon="1.85169">
        <ele>108.6</ele>
        <time>2014-06-08T13:43:51.37</time>
      </trkpt>
      <trkpt lat="49.53677" lon="1.85161">
        <ele>108.7</ele>
        <time>2014-06-08T13:43:58.37</time>
      </trkpt>
      <trkpt lat="49.53669" lon="1.85158">
        <ele>108.9</ele>
        <time>2014-06-08T13:44:05.37</time>
      </trkpt>
      <trkpt lat="49.53664" lon="1.85157">
        <ele>108.7</ele>
        <time>2014-06-08T13:44:12.37</time>
      </trkpt>
      <trkpt lat="49.53657" lon="1.85152">
        <ele>108.6</ele>
        <time>2014-06-08T13:44:19.37</time>
      </trkpt>
      <trkpt lat="49.53649" lon="1.85152">
        <ele>108.9</ele>
        <time>2014-06-08T13:44:24.37</time>
      </trkpt>
      <trkpt lat="49.53642" lon="1.85151">
        <ele>109.2</ele>
        <time>2014-06-08T13:44:28.37</time>
      </trkpt>
      <trkpt lat="49.53634" lon="1.8515">
        <ele>109.3</ele>
        <time>2014-06-08T13:44:31.37</time>
      </trkpt>
      <trkpt lat="49.53626" lon="1.85151">
        <ele>109.6</ele>
        <time>2014-06-08T13:44:36.37</time>
      </trkpt>
      <trkpt lat="49.53618" lon="1.85151">
        <ele>109.9</ele>
        <time>2014-06-08T13:44:43.37</time>
      </trkpt>
      <trkpt lat="49.53612" lon="1.85147">
        <ele>110.6</ele>
        <time>2014-06-08T13:44:48.40</time>
      </trkpt>
      <trkpt lat="49.53609" lon="1.85147">
        <ele>110.7</ele>
        <time>2014-06-08T13:44:55.37</time>
      </trkpt>
      <trkpt lat="49.53602" lon="1.85146">
        <ele>111.3</ele>
        <time>2014-06-08T13:45:00.37</time>
      </trkpt>
      <trkpt lat="49.53594" lon="1.85139">
        <ele>112.8</ele>
        <time>2014-06-08T13:45:06.38</time>
      </trkpt>
      <trkpt lat="49.53586" lon="1.85138">
        <ele>113.6</ele>
        <time>2014-06-08T13:45:10.37</time>
      </trkpt>
      <trkpt lat="49.5358" lon="1.85133">
        <ele>114.1</ele>
        <time>2014-06-08T13:45:17.37</time>
      </trkpt>
      <trkpt lat="49.53575" lon="1.85127">
        <ele>114.4</ele>
        <time>2014-06-08T13:45:24.37</time>
      </trkpt>
      <trkpt lat="49.53568" lon="1.85123">
        <ele>115.2</ele>
        <time>2014-06-08T13:45:31.37</time>
      </trkpt>
      <trkpt lat="49.53564" lon="1.85115">
        <ele>116.7</ele>
        <time>2014-06-08T13:45:38.37</time>
      </trkpt>
      <trkpt lat="49.53558" lon="1.85108">
        <ele>118.3</ele>
        <time>2014-06-08T13:45:45.37</time>
      </trkpt>
      <trkpt lat="49.53551" lon="1.851">
        <ele>119.7</ele>
        <time>2014-06-08T13:45:50.37</time>
      </trkpt>
      <trkpt lat="49.53544" lon="1.8509">
        <ele>123</ele>
        <time>2014-06-08T13:45:55.37</time>
      </trkpt>
      <trkpt lat="49.5355" lon="1.85087">
        <ele>127.5</ele>
        <time>2014-06-08T13:46:02.37</time>
      </trkpt>
      <trkpt lat="49.53541" lon="1.85088">
        <ele>130.4</ele>
        <time>2014-06-08T13:46:07.39</time>
      </trkpt>
      <trkpt lat="49.53536" lon="1.85087">
        <ele>131.6</ele>
        <time>2014-06-08T13:46:14.37</time>
      </trkpt>
      <trkpt lat="49.53533" lon="1.85086">
        <ele>134.4</ele>
        <time>2014-06-08T13:46:21.38</time>
      </trkpt>
      <trkpt lat="49.53537" lon="1.85087">
        <ele>136.3</ele>
        <time>2014-06-08T13:46:28.37</time>
      </trkpt>
      <trkpt lat="49.5353" lon="1.85087">
        <ele>138.2</ele>
        <time>2014-06-08T13:46:34.39</time>
      </trkpt>
      <trkpt lat="49.53525" lon="1.85083">
        <ele>138.7</ele>
        <time>2014-06-08T13:46:41.37</time>
      </trkpt>
      <trkpt lat="49.53524" lon="1.8508">
        <ele>139.4</ele>
        <time>2014-06-08T13:46:48.37</time>
      </trkpt>
      <trkpt lat="49.53522" lon="1.85069">
        <ele>139.5</ele>
        <time>2014-06-08T13:46:51.39</time>
      </trkpt>
      <trkpt lat="49.53523" lon="1.85059">
        <ele>139.9</ele>
        <time>2014-06-08T13:46:58.37</time>
      </trkpt>
      <trkpt lat="49.53524" lon="1.85051">
        <ele>139.8</ele>
        <time>2014-06-08T13:47:05.37</time>
      </trkpt>
      <trkpt lat="49.53525" lon="1.85041">
        <ele>139.9</ele>
        <time>2014-06-08T13:47:12.37</time>
      </trkpt>
      <trkpt lat="49.53526" lon="1.85035">
        <ele>140.1</ele>
        <time>2014-06-08T13:47:19.37</time>
      </trkpt>
      <trkpt lat="49.53525" lon="1.8503">
        <ele>141.2</ele>
        <time>2014-06-08T13:47:26.37</time>
      </trkpt>
      <trkpt lat="49.53526" lon="1.85029">
        <ele>141.3</ele>
        <time>2014-06-08T13:47:33.37</time>
      </trkpt>
      <trkpt lat="49.5352" lon="1.85022">
        <ele>142.7</ele>
        <time>2014-06-08T13:47:35.40</time>
      </trkpt>
      <trkpt lat="49.53514" lon="1.85034">
        <ele>142.4</ele>
        <time>2014-06-08T13:47:38.37</time>
      </trkpt>
      <trkpt lat="49.53511" lon="1.85046">
        <ele>142.8</ele>
        <time>2014-06-08T13:47:43.35</time>
      </trkpt>
      <trkpt lat="49.53512" lon="1.85058">
        <ele>143.3</ele>
        <time>2014-06-08T13:47:48.35</time>
      </trkpt>
      <trkpt lat="49.5351" lon="1.85058">
        <ele>143.6</ele>
        <time>2014-06-08T13:47:55.35</time>
      </trkpt>
      <trkpt lat="49.53505" lon="1.85061">
        <ele>144.1</ele>
        <time>2014-06-08T13:48:02.37</time>
      </trkpt>
      <trkpt lat="49.535" lon="1.85059">
        <ele>144.2</ele>
        <time>2014-06-08T13:48:09.35</time>
      </trkpt>
      <trkpt lat="49.53494" lon="1.85054">
        <ele>144.5</ele>
        <time>2014-06-08T13:48:16.35</time>
      </trkpt>
      <trkpt lat="49.53491" lon="1.85049">
        <ele>144.6</ele>
        <time>2014-06-08T13:48:23.38</time>
      </trkpt>
      <trkpt lat="49.53488" lon="1.85046">
        <ele>144.7</ele>
        <time>2014-06-08T13:48:30.35</time>
      </trkpt>
      <trkpt lat="49.5348" lon="1.8505">
        <ele>144.9</ele>
        <time>2014-06-08T13:48:37.35</time>
      </trkpt>
      <trkpt lat="49.53474" lon="1.85052">
        <ele>145.1</ele>
        <time>2014-06-08T13:48:44.35</time>
      </trkpt>
      <trkpt lat="49.53468" lon="1.85049">
        <ele>145.1</ele>
        <time>2014-06-08T13:48:51.35</time>
      </trkpt>
      <trkpt lat="49.53462" lon="1.85047">
        <ele>145.1</ele>
        <time>2014-06-08T13:48:58.35</time>
      </trkpt>
      <trkpt lat="49.53454" lon="1.85047">
        <ele>144.5</ele>
        <time>2014-06-08T13:49:03.35</time>
      </trkpt>
      <trkpt lat="49.53449" lon="1.85049">
        <ele>144.5</ele>
        <time>2014-06-08T13:49:10.35</time>
      </trkpt>
      <trkpt lat="49.53444" lon="1.85047">
        <ele>144.7</ele>
        <time>2014-06-08T13:49:17.35</time>
      </trkpt>
      <trkpt lat="49.53438" lon="1.85047">
        <ele>145.3</ele>
        <time>2014-06-08T13:49:24.35</time>
      </trkpt>
      <trkpt lat="49.53431" lon="1.85043">
        <ele>145.5</ele>
        <time>2014-06-08T13:49:31.35</time>
      </trkpt>
      <trkpt lat="49.53426" lon="1.85042">
        <ele>145.8</ele>
        <time>2014-06-08T13:49:38.35</time>
      </trkpt>
      <trkpt lat="49.53424" lon="1.85034">
        <ele>146</ele>
        <time>2014-06-08T13:49:45.35</time>
      </trkpt>
      <trkpt lat="49.53422" lon="1.85027">
        <ele>146.2</ele>
        <time>2014-06-08T13:49:52.35</time>
      </trkpt>
      <trkpt lat="49.53419" lon="1.85023">
        <ele>146.3</ele>
        <time>2014-06-08T13:49:59.35</time>
      </trkpt>
      <trkpt lat="49.53418" lon="1.85017">
        <ele>146.4</ele>
        <time>2014-06-08T13:50:06.35</time>
      </trkpt>
      <trkpt lat="49.53412" lon="1.85012">
        <ele>146.4</ele>
        <time>2014-06-08T13:50:13.35</time>
      </trkpt>
      <trkpt lat="49.53405" lon="1.85007">
        <ele>146.5</ele>
        <time>2014-06-08T13:50:18.36</time>
      </trkpt>
      <trkpt lat="49.53401" lon="1.85003">
        <ele>146.6</ele>
        <time>2014-06-08T13:50:25.35</time>
      </trkpt>
      <trkpt lat="49.53398" lon="1.84999">
        <ele>146.5</ele>
        <time>2014-06-08T13:50:32.35</time>
      </trkpt>
      <trkpt lat="49.53395" lon="1.84998">
        <ele>146.5</ele>
        <time>2014-06-08T13:50:39.35</time>
      </trkpt>
      <trkpt lat="49.53394" lon="1.84989">
        <ele>146.8</ele>
        <time>2014-06-08T13:50:46.35</time>
      </trkpt>
      <trkpt lat="49.53388" lon="1.84991">
        <ele>147</ele>
        <time>2014-06-08T13:50:53.35</time>
      </trkpt>
      <trkpt lat="49.53381" lon="1.84996">
        <ele>147.2</ele>
        <time>2014-06-08T13:50:59.35</time>
      </trkpt>
      <trkpt lat="49.53379" lon="1.85004">
        <ele>147.4</ele>
        <time>2014-06-08T13:51:06.37</time>
      </trkpt>
      <trkpt lat="49.53375" lon="1.85011">
        <ele>147.6</ele>
        <time>2014-06-08T13:51:13.35</time>
      </trkpt>
      <trkpt lat="49.53369" lon="1.85016">
        <ele>147.8</ele>
        <time>2014-06-08T13:51:20.35</time>
      </trkpt>
      <trkpt lat="49.53367" lon="1.8502">
        <ele>147.9</ele>
        <time>2014-06-08T13:51:27.35</time>
      </trkpt>
      <trkpt lat="49.53367" lon="1.85025">
        <ele>148.2</ele>
        <time>2014-06-08T13:51:34.35</time>
      </trkpt>
      <trkpt lat="49.53366" lon="1.85028">
        <ele>148.5</ele>
        <time>2014-06-08T13:51:41.35</time>
      </trkpt>
      <trkpt lat="49.53358" lon="1.85026">
        <ele>149</ele>
        <time>2014-06-08T13:51:45.35</time>
      </trkpt>
      <trkpt lat="49.53353" lon="1.85025">
        <ele>149.2</ele>
        <time>2014-06-08T13:51:52.35</time>
      </trkpt>
      <trkpt lat="49.53349" lon="1.85025">
        <ele>149.2</ele>
        <time>2014-06-08T13:51:59.35</time>
      </trkpt>
      <trkpt lat="49.53346" lon="1.85022">
        <ele>149.8</ele>
        <time>2014-06-08T13:52:06.35</time>
      </trkpt>
      <trkpt lat="49.53356" lon="1.85021">
        <ele>151</ele>
        <time>2014-06-08T13:52:13.36</time>
      </trkpt>
      <trkpt lat="49.53356" lon="1.85022">
        <ele>151</ele>
        <time>2014-06-08T13:52:20.35</time>
      </trkpt>
      <trkpt lat="49.53352" lon="1.85015">
        <ele>151</ele>
        <time>2014-06-08T13:52:22.37</time>
      </trkpt>
      <trkpt lat="49.53358" lon="1.85007">
        <ele>151.7</ele>
        <time>2014-06-08T13:52:27.36</time>
      </trkpt>
      <trkpt lat="49.5336" lon="1.85006">
        <ele>152.1</ele>
        <time>2014-06-08T13:52:34.34</time>
      </trkpt>
      <trkpt lat="49.5336" lon="1.85006">
        <ele>152.1</ele>
        <time>2014-06-08T13:52:37.34</time>
      </trkpt>
    </trkseg>
  </trk>
</gpx>